﻿<?xml version="1.0" encoding="utf-8"?><gpx creator="Garmin Desktop App" version="1.1" xsi:schemaLocation="http://www.topografix.com/GPX/1/1 http://www.topografix.com/GPX/1/1/gpx.xsd http://www.garmin.com/xmlschemas/WaypointExtension/v1 http://www8.garmin.com/xmlschemas/WaypointExtensionv1.xsd http://www.garmin.com/xmlschemas/TrackPointExtension/v1 http://www.garmin.com/xmlschemas/TrackPointExtensionv1.xsd http://www.garmin.com/xmlschemas/GpxExtensions/v3 http://www8.garmin.com/xmlschemas/GpxExtensionsv3.xsd http://www.garmin.com/xmlschemas/ActivityExtension/v1 http://www8.garmin.com/xmlschemas/ActivityExtensionv1.xsd http://www.garmin.com/xmlschemas/AdventuresExtensions/v1 http://www8.garmin.com/xmlschemas/AdventuresExtensionv1.xsd http://www.garmin.com/xmlschemas/PressureExtension/v1 http://www.garmin.com/xmlschemas/PressureExtensionv1.xsd http://www.garmin.com/xmlschemas/TripExtensions/v1 http://www.garmin.com/xmlschemas/TripExtensionsv1.xsd http://www.garmin.com/xmlschemas/TripMetaDataExtensions/v1 http://www.garmin.com/xmlschemas/TripMetaDataExtensionsv1.xsd http://www.garmin.com/xmlschemas/ViaPointTransportationModeExtensions/v1 http://www.garmin.com/xmlschemas/ViaPointTransportationModeExtensionsv1.xsd http://www.garmin.com/xmlschemas/CreationTimeExtension/v1 http://www.garmin.com/xmlschemas/CreationTimeExtensionsv1.xsd http://www.garmin.com/xmlschemas/AccelerationExtension/v1 http://www.garmin.com/xmlschemas/AccelerationExtensionv1.xsd http://www.garmin.com/xmlschemas/PowerExtension/v1 http://www.garmin.com/xmlschemas/PowerExtensionv1.xsd http://www.garmin.com/xmlschemas/VideoExtension/v1 http://www.garmin.com/xmlschemas/VideoExtensionv1.xsd" xmlns="http://www.topografix.com/GPX/1/1" xmlns:xsi="http://www.w3.org/2001/XMLSchema-instance" xmlns:wptx1="http://www.garmin.com/xmlschemas/WaypointExtension/v1" xmlns:gpxtrx="http://www.garmin.com/xmlschemas/GpxExtensions/v3" xmlns:gpxtpx="http://www.garmin.com/xmlschemas/TrackPointExtension/v1" xmlns:gpxx="http://www.garmin.com/xmlschemas/GpxExtensions/v3" xmlns:trp="http://www.garmin.com/xmlschemas/TripExtensions/v1" xmlns:adv="http://www.garmin.com/xmlschemas/AdventuresExtensions/v1" xmlns:prs="http://www.garmin.com/xmlschemas/PressureExtension/v1" xmlns:tmd="http://www.garmin.com/xmlschemas/TripMetaDataExtensions/v1" xmlns:vptm="http://www.garmin.com/xmlschemas/ViaPointTransportationModeExtensions/v1" xmlns:ctx="http://www.garmin.com/xmlschemas/CreationTimeExtension/v1" xmlns:gpxacc="http://www.garmin.com/xmlschemas/AccelerationExtension/v1" xmlns:gpxpx="http://www.garmin.com/xmlschemas/PowerExtension/v1" xmlns:vidx1="http://www.garmin.com/xmlschemas/VideoExtension/v1">

  <metadata>
    <link href="http://www.garmin.com">
      <text>Garmin International</text>
    </link>
    <time>2021-07-26T06:10:05Z</time>
    <bounds maxlat="45.916351983323693" maxlon="7.677665306255221" minlat="45.892594316974282" minlon="7.647139169275761" />
  </metadata>

  <trk>
    <name>gran-sometta2021-07-25</name>
    <extensions>
      <gpxx:TrackExtension>
        <gpxx:DisplayColor>Yellow</gpxx:DisplayColor>
      </gpxx:TrackExtension>
    </extensions>
    <trkseg>
      <trkpt lat="45.89346494525671" lon="7.647221311926842">
        <ele>2124.2800000000002</ele>
        <time>2021-07-25T07:17:45Z</time>
      </trkpt>
      <trkpt lat="45.893354052677751" lon="7.647139169275761">
        <ele>2123.98</ele>
        <time>2021-07-25T07:18:08Z</time>
      </trkpt>
      <trkpt lat="45.893169650807977" lon="7.647154591977596">
        <ele>2123.6799999999998</ele>
        <time>2021-07-25T07:18:22Z</time>
      </trkpt>
      <trkpt lat="45.892847701907158" lon="7.647197339683771">
        <ele>2123.7600000000002</ele>
        <time>2021-07-25T07:18:42Z</time>
      </trkpt>
      <trkpt lat="45.892798835411668" lon="7.647422729060054">
        <ele>2123.8899999999999</ele>
        <time>2021-07-25T07:18:57Z</time>
      </trkpt>
      <trkpt lat="45.892609404399991" lon="7.647366737946868">
        <ele>2124.1500000000001</ele>
        <time>2021-07-25T07:19:16Z</time>
      </trkpt>
      <trkpt lat="45.892594316974282" lon="7.6472700946033">
        <ele>2124.6199999999999</ele>
        <time>2021-07-25T07:19:28Z</time>
      </trkpt>
      <trkpt lat="45.893235364928842" lon="7.64758282341063">
        <ele>2124.9099999999999</ele>
        <time>2021-07-25T07:19:41Z</time>
      </trkpt>
      <trkpt lat="45.893286662176251" lon="7.647577710449696">
        <ele>2125.0999999999999</ele>
        <time>2021-07-25T07:19:51Z</time>
      </trkpt>
      <trkpt lat="45.893295630812645" lon="7.647580895572901">
        <ele>2125.1999999999998</ele>
        <time>2021-07-25T07:19:52Z</time>
      </trkpt>
      <trkpt lat="45.893409792333841" lon="7.647614255547524">
        <ele>2125.9400000000001</ele>
        <time>2021-07-25T07:20:03Z</time>
      </trkpt>
      <trkpt lat="45.893430160358548" lon="7.647624313831329">
        <ele>2126.71</ele>
        <time>2021-07-25T07:20:14Z</time>
      </trkpt>
      <trkpt lat="45.893428483977914" lon="7.647695979103446">
        <ele>2129.0300000000002</ele>
        <time>2021-07-25T07:20:44Z</time>
      </trkpt>
      <trkpt lat="45.893428651615977" lon="7.647684160619974">
        <ele>2131.0999999999999</ele>
        <time>2021-07-25T07:21:03Z</time>
      </trkpt>
      <trkpt lat="45.893452540040016" lon="7.647671336308122">
        <ele>2132.5700000000002</ele>
        <time>2021-07-25T07:21:27Z</time>
      </trkpt>
      <trkpt lat="45.893503502011299" lon="7.647800417616963">
        <ele>2134.3099999999999</ele>
        <time>2021-07-25T07:21:40Z</time>
      </trkpt>
      <trkpt lat="45.893558152019978" lon="7.647950621321797">
        <ele>2137.0100000000002</ele>
        <time>2021-07-25T07:21:54Z</time>
      </trkpt>
      <trkpt lat="45.893587404862046" lon="7.648139130324125">
        <ele>2139.9000000000001</ele>
        <time>2021-07-25T07:22:10Z</time>
      </trkpt>
      <trkpt lat="45.893619675189257" lon="7.648357143625617">
        <ele>2141.3899999999999</ele>
        <time>2021-07-25T07:22:26Z</time>
      </trkpt>
      <trkpt lat="45.893633002415299" lon="7.648578677326441">
        <ele>2142.75</ele>
        <time>2021-07-25T07:22:41Z</time>
      </trkpt>
      <trkpt lat="45.893648760393262" lon="7.648789817467332">
        <ele>2144.5300000000002</ele>
        <time>2021-07-25T07:22:55Z</time>
      </trkpt>
      <trkpt lat="45.893674409016967" lon="7.648918312042952">
        <ele>2146.9699999999998</ele>
        <time>2021-07-25T07:23:07Z</time>
      </trkpt>
      <trkpt lat="45.893686898052692" lon="7.648978242650628">
        <ele>2148.1599999999999</ele>
        <time>2021-07-25T07:23:12Z</time>
      </trkpt>
      <trkpt lat="45.893731405958533" lon="7.649049572646618">
        <ele>2150.21</ele>
        <time>2021-07-25T07:23:25Z</time>
      </trkpt>
      <trkpt lat="45.893738698214293" lon="7.649059211835265">
        <ele>2150.3899999999999</ele>
        <time>2021-07-25T07:23:27Z</time>
      </trkpt>
      <trkpt lat="45.893773566931486" lon="7.649102378636599">
        <ele>2150.8699999999999</ele>
        <time>2021-07-25T07:23:32Z</time>
      </trkpt>
      <trkpt lat="45.893826624378562" lon="7.649218803271651">
        <ele>2152.6300000000001</ele>
        <time>2021-07-25T07:23:43Z</time>
      </trkpt>
      <trkpt lat="45.893881693482399" lon="7.649266496300697">
        <ele>2153.7399999999998</ele>
        <time>2021-07-25T07:23:50Z</time>
      </trkpt>
      <trkpt lat="45.894000716507435" lon="7.649398762732744">
        <ele>2157.0500000000002</ele>
        <time>2021-07-25T07:24:06Z</time>
      </trkpt>
      <trkpt lat="45.894114961847663" lon="7.649517953395844">
        <ele>2160.2600000000002</ele>
        <time>2021-07-25T07:24:22Z</time>
      </trkpt>
      <trkpt lat="45.894200792536139" lon="7.649582242593169">
        <ele>2163.2800000000002</ele>
        <time>2021-07-25T07:24:34Z</time>
      </trkpt>
      <trkpt lat="45.894300621002913" lon="7.649649884551764">
        <ele>2166.3299999999999</ele>
        <time>2021-07-25T07:24:48Z</time>
      </trkpt>
      <trkpt lat="45.89438745751977" lon="7.649731189012528">
        <ele>2169.4299999999998</ele>
        <time>2021-07-25T07:25:01Z</time>
      </trkpt>
      <trkpt lat="45.894425511360168" lon="7.649742672219873">
        <ele>2171.46</ele>
        <time>2021-07-25T07:25:14Z</time>
      </trkpt>
      <trkpt lat="45.894424673169851" lon="7.649757927283645">
        <ele>2171.7399999999998</ele>
        <time>2021-07-25T07:25:25Z</time>
      </trkpt>
      <trkpt lat="45.894434060901403" lon="7.64975817874074">
        <ele>2173.2199999999998</ele>
        <time>2021-07-25T07:25:47Z</time>
      </trkpt>
      <trkpt lat="45.894432216882706" lon="7.649761699140072">
        <ele>2174.2399999999998</ele>
        <time>2021-07-25T07:25:55Z</time>
      </trkpt>
      <trkpt lat="45.894474796950817" lon="7.649797992780805">
        <ele>2176.25</ele>
        <time>2021-07-25T07:26:08Z</time>
      </trkpt>
      <trkpt lat="45.894535817205906" lon="7.649852558970451">
        <ele>2178.4099999999999</ele>
        <time>2021-07-25T07:26:17Z</time>
      </trkpt>
      <trkpt lat="45.894588204100728" lon="7.649914752691984">
        <ele>2179.6999999999998</ele>
        <time>2021-07-25T07:26:31Z</time>
      </trkpt>
      <trkpt lat="45.894604213535786" lon="7.649924559518695">
        <ele>2180.04</ele>
        <time>2021-07-25T07:26:34Z</time>
      </trkpt>
      <trkpt lat="45.894724242389202" lon="7.650047773495317">
        <ele>2183.3400000000001</ele>
        <time>2021-07-25T07:26:49Z</time>
      </trkpt>
      <trkpt lat="45.89482725597918" lon="7.650182219222188">
        <ele>2185.9400000000001</ele>
        <time>2021-07-25T07:27:03Z</time>
      </trkpt>
      <trkpt lat="45.894930185750127" lon="7.650317335501313">
        <ele>2189.0300000000002</ele>
        <time>2021-07-25T07:27:16Z</time>
      </trkpt>
      <trkpt lat="45.895050885155797" lon="7.65049846842885">
        <ele>2192.1399999999999</ele>
        <time>2021-07-25T07:27:32Z</time>
      </trkpt>
      <trkpt lat="45.895174602046609" lon="7.650668201968074">
        <ele>2194.9299999999998</ele>
        <time>2021-07-25T07:27:48Z</time>
      </trkpt>
      <trkpt lat="45.895269736647606" lon="7.650873810052872">
        <ele>2198.2399999999998</ele>
        <time>2021-07-25T07:28:04Z</time>
      </trkpt>
      <trkpt lat="45.895337043330073" lon="7.651042034849525">
        <ele>2201.3699999999999</ele>
        <time>2021-07-25T07:28:18Z</time>
      </trkpt>
      <trkpt lat="45.895389094948769" lon="7.651166841387749">
        <ele>2204.52</ele>
        <time>2021-07-25T07:28:31Z</time>
      </trkpt>
      <trkpt lat="45.895456988364458" lon="7.651309501379728">
        <ele>2207.6900000000001</ele>
        <time>2021-07-25T07:28:45Z</time>
      </trkpt>
      <trkpt lat="45.895579950883985" lon="7.651410084217787">
        <ele>2210.6999999999998</ele>
        <time>2021-07-25T07:29:00Z</time>
      </trkpt>
      <trkpt lat="45.895678857341409" lon="7.651427015662193">
        <ele>2213.6999999999998</ele>
        <time>2021-07-25T07:29:12Z</time>
      </trkpt>
      <trkpt lat="45.895753875374794" lon="7.65138728544116">
        <ele>2216.9299999999998</ele>
        <time>2021-07-25T07:29:22Z</time>
      </trkpt>
      <trkpt lat="45.895840292796493" lon="7.651333222165704">
        <ele>2220.1100000000001</ele>
        <time>2021-07-25T07:29:34Z</time>
      </trkpt>
      <trkpt lat="45.895874155685306" lon="7.651311596855521">
        <ele>2221.1500000000001</ele>
        <time>2021-07-25T07:29:38Z</time>
      </trkpt>
      <trkpt lat="45.896044056862593" lon="7.651181509718299">
        <ele>2223.0799999999999</ele>
        <time>2021-07-25T07:29:54Z</time>
      </trkpt>
      <trkpt lat="45.896251257508993" lon="7.650967268273234">
        <ele>2224.8400000000001</ele>
        <time>2021-07-25T07:30:14Z</time>
      </trkpt>
      <trkpt lat="45.896419063210487" lon="7.650744142010808">
        <ele>2226.1799999999998</ele>
        <time>2021-07-25T07:30:32Z</time>
      </trkpt>
      <trkpt lat="45.89662685059011" lon="7.650616317987442">
        <ele>2227.52</ele>
        <time>2021-07-25T07:30:51Z</time>
      </trkpt>
      <trkpt lat="45.896829944103956" lon="7.650609109550715">
        <ele>2229.3099999999999</ele>
        <time>2021-07-25T07:31:08Z</time>
      </trkpt>
      <trkpt lat="45.897015184164047" lon="7.650625202804804">
        <ele>2231.0599999999999</ele>
        <time>2021-07-25T07:31:24Z</time>
      </trkpt>
      <trkpt lat="45.897134793922305" lon="7.650609109550715">
        <ele>2233.8299999999999</ele>
        <time>2021-07-25T07:31:37Z</time>
      </trkpt>
      <trkpt lat="45.897245854139328" lon="7.650568038225174">
        <ele>2236.5</ele>
        <time>2021-07-25T07:31:49Z</time>
      </trkpt>
      <trkpt lat="45.897363116964698" lon="7.650493271648884">
        <ele>2239.25</ele>
        <time>2021-07-25T07:32:03Z</time>
      </trkpt>
      <trkpt lat="45.897496808320284" lon="7.650395035743713">
        <ele>2242.5999999999999</ele>
        <time>2021-07-25T07:32:19Z</time>
      </trkpt>
      <trkpt lat="45.897545339539647" lon="7.650354215875268">
        <ele>2243.7600000000002</ele>
        <time>2021-07-25T07:32:25Z</time>
      </trkpt>
      <trkpt lat="45.897654136642814" lon="7.65027467161417">
        <ele>2246.0599999999999</ele>
        <time>2021-07-25T07:32:38Z</time>
      </trkpt>
      <trkpt lat="45.89779662899673" lon="7.650175932794809">
        <ele>2247.8000000000002</ele>
        <time>2021-07-25T07:32:53Z</time>
      </trkpt>
      <trkpt lat="45.897975163534284" lon="7.65015346929431">
        <ele>2250.1100000000001</ele>
        <time>2021-07-25T07:33:09Z</time>
      </trkpt>
      <trkpt lat="45.898141879588366" lon="7.650238294154406">
        <ele>2251.6700000000001</ele>
        <time>2021-07-25T07:33:25Z</time>
      </trkpt>
      <trkpt lat="45.898309182375669" lon="7.650375254452229">
        <ele>2253.4200000000001</ele>
        <time>2021-07-25T07:33:41Z</time>
      </trkpt>
      <trkpt lat="45.898495092988014" lon="7.650522775948048">
        <ele>2254.3200000000002</ele>
        <time>2021-07-25T07:33:59Z</time>
      </trkpt>
      <trkpt lat="45.89866055175662" lon="7.650647666305304">
        <ele>2255.6199999999999</ele>
        <time>2021-07-25T07:34:15Z</time>
      </trkpt>
      <trkpt lat="45.898784268647432" lon="7.650724612176418">
        <ele>2257.1100000000001</ele>
        <time>2021-07-25T07:34:27Z</time>
      </trkpt>
      <trkpt lat="45.898795081302524" lon="7.650732407346368">
        <ele>2257.0500000000002</ele>
        <time>2021-07-25T07:34:28Z</time>
      </trkpt>
      <trkpt lat="45.898865824565291" lon="7.65077599324286">
        <ele>2258.1599999999999</ele>
        <time>2021-07-25T07:34:35Z</time>
      </trkpt>
      <trkpt lat="45.898980656638741" lon="7.65085075981915">
        <ele>2260.3099999999999</ele>
        <time>2021-07-25T07:34:47Z</time>
      </trkpt>
      <trkpt lat="45.898998090997338" lon="7.650862829759717">
        <ele>2260.7600000000002</ele>
        <time>2021-07-25T07:34:49Z</time>
      </trkpt>
      <trkpt lat="45.899018961936235" lon="7.65086492523551">
        <ele>2261.04</ele>
        <time>2021-07-25T07:34:51Z</time>
      </trkpt>
      <trkpt lat="45.899048382416368" lon="7.65088152140379">
        <ele>2261.5</ele>
        <time>2021-07-25T07:34:54Z</time>
      </trkpt>
      <trkpt lat="45.899077467620373" lon="7.650912534445524">
        <ele>2262.1199999999999</ele>
        <time>2021-07-25T07:34:58Z</time>
      </trkpt>
      <trkpt lat="45.899152318015695" lon="7.650961233302951">
        <ele>2263.3800000000001</ele>
        <time>2021-07-25T07:35:06Z</time>
      </trkpt>
      <trkpt lat="45.899213757365942" lon="7.651006914675236">
        <ele>2265.5</ele>
        <time>2021-07-25T07:35:15Z</time>
      </trkpt>
      <trkpt lat="45.899325404316187" lon="7.651063492521644">
        <ele>2268.21</ele>
        <time>2021-07-25T07:35:28Z</time>
      </trkpt>
      <trkpt lat="45.899440152570605" lon="7.651138259097934">
        <ele>2271.29</ele>
        <time>2021-07-25T07:35:42Z</time>
      </trkpt>
      <trkpt lat="45.899580381810665" lon="7.651239428669214">
        <ele>2274.3099999999999</ele>
        <time>2021-07-25T07:35:59Z</time>
      </trkpt>
      <trkpt lat="45.899710552766919" lon="7.651370856910944">
        <ele>2277.52</ele>
        <time>2021-07-25T07:36:16Z</time>
      </trkpt>
      <trkpt lat="45.899840807542205" lon="7.651468589901924">
        <ele>2280.4200000000001</ele>
        <time>2021-07-25T07:36:32Z</time>
      </trkpt>
      <trkpt lat="45.899910377338529" lon="7.651519132778049">
        <ele>2283.6700000000001</ele>
        <time>2021-07-25T07:36:43Z</time>
      </trkpt>
      <trkpt lat="45.900015402585268" lon="7.651560958474875">
        <ele>2286.6700000000001</ele>
        <time>2021-07-25T07:36:57Z</time>
      </trkpt>
      <trkpt lat="45.900102993473411" lon="7.651618625968695">
        <ele>2289.9200000000001</ele>
        <time>2021-07-25T07:37:11Z</time>
      </trkpt>
      <trkpt lat="45.900186728686094" lon="7.651659529656172">
        <ele>2292.0300000000002</ele>
        <time>2021-07-25T07:37:21Z</time>
      </trkpt>
      <trkpt lat="45.900315809994936" lon="7.6517444383353">
        <ele>2295.1900000000001</ele>
        <time>2021-07-25T07:37:38Z</time>
      </trkpt>
      <trkpt lat="45.900360234081745" lon="7.651770254597068">
        <ele>2296.27</ele>
        <time>2021-07-25T07:37:44Z</time>
      </trkpt>
      <trkpt lat="45.90048017911613" lon="7.651851726695895">
        <ele>2299.46</ele>
        <time>2021-07-25T07:37:59Z</time>
      </trkpt>
      <trkpt lat="45.900596184656024" lon="7.651934204623103">
        <ele>2302.6399999999999</ele>
        <time>2021-07-25T07:38:15Z</time>
      </trkpt>
      <trkpt lat="45.900704395025969" lon="7.652030093595386">
        <ele>2305.0799999999999</ele>
        <time>2021-07-25T07:38:29Z</time>
      </trkpt>
      <trkpt lat="45.900826100260019" lon="7.652112571522594">
        <ele>2307.8699999999999</ele>
        <time>2021-07-25T07:38:44Z</time>
      </trkpt>
      <trkpt lat="45.900868009775877" lon="7.652147440239787">
        <ele>2308.8200000000002</ele>
        <time>2021-07-25T07:38:49Z</time>
      </trkpt>
      <trkpt lat="45.900984015315771" lon="7.652260679751635">
        <ele>2311.0700000000002</ele>
        <time>2021-07-25T07:39:02Z</time>
      </trkpt>
      <trkpt lat="45.901027852669358" lon="7.652302086353302">
        <ele>2311.6900000000001</ele>
        <time>2021-07-25T07:39:07Z</time>
      </trkpt>
      <trkpt lat="45.901116784662008" lon="7.652393281459808">
        <ele>2313.5300000000002</ele>
        <time>2021-07-25T07:39:18Z</time>
      </trkpt>
      <trkpt lat="45.901147210970521" lon="7.652461426332593">
        <ele>2314.0500000000002</ele>
        <time>2021-07-25T07:39:24Z</time>
      </trkpt>
      <trkpt lat="45.901269167661667" lon="7.652639457955957">
        <ele>2315.6199999999999</ele>
        <time>2021-07-25T07:39:40Z</time>
      </trkpt>
      <trkpt lat="45.901365643367171" lon="7.6527891587466">
        <ele>2317.8299999999999</ele>
        <time>2021-07-25T07:39:54Z</time>
      </trkpt>
      <trkpt lat="45.901380563154817" lon="7.652807850390673">
        <ele>2318.1399999999999</ele>
        <time>2021-07-25T07:39:56Z</time>
      </trkpt>
      <trkpt lat="45.901444936171174" lon="7.652896447107196">
        <ele>2319.3499999999999</ele>
        <time>2021-07-25T07:40:05Z</time>
      </trkpt>
      <trkpt lat="45.901459269225597" lon="7.652916731312871">
        <ele>2319.6399999999999</ele>
        <time>2021-07-25T07:40:07Z</time>
      </trkpt>
      <trkpt lat="45.901476619765162" lon="7.652932070195675">
        <ele>2319.9400000000001</ele>
        <time>2021-07-25T07:40:09Z</time>
      </trkpt>
      <trkpt lat="45.901487180963159" lon="7.652939110994339">
        <ele>2320.23</ele>
        <time>2021-07-25T07:40:10Z</time>
      </trkpt>
      <trkpt lat="45.90157032944262" lon="7.653070203959942">
        <ele>2322.1999999999998</ele>
        <time>2021-07-25T07:40:23Z</time>
      </trkpt>
      <trkpt lat="45.901577873155475" lon="7.653080597519875">
        <ele>2322.4299999999998</ele>
        <time>2021-07-25T07:40:24Z</time>
      </trkpt>
      <trkpt lat="45.901627242565155" lon="7.653151508420706">
        <ele>2324.02</ele>
        <time>2021-07-25T07:40:32Z</time>
      </trkpt>
      <trkpt lat="45.901659764349461" lon="7.653220575302839">
        <ele>2325.8800000000001</ele>
        <time>2021-07-25T07:40:40Z</time>
      </trkpt>
      <trkpt lat="45.901701925322413" lon="7.653301293030381">
        <ele>2328.0700000000002</ele>
        <time>2021-07-25T07:40:50Z</time>
      </trkpt>
      <trkpt lat="45.901722963899374" lon="7.653346722945571">
        <ele>2329.5500000000002</ele>
        <time>2021-07-25T07:40:56Z</time>
      </trkpt>
      <trkpt lat="45.901744673028588" lon="7.65339651145041">
        <ele>2330.9499999999998</ele>
        <time>2021-07-25T07:41:02Z</time>
      </trkpt>
      <trkpt lat="45.901778703555465" lon="7.653454849496484">
        <ele>2332.5799999999999</ele>
        <time>2021-07-25T07:41:09Z</time>
      </trkpt>
      <trkpt lat="45.901832599192858" lon="7.653572531417012">
        <ele>2335.5300000000002</ele>
        <time>2021-07-25T07:41:23Z</time>
      </trkpt>
      <trkpt lat="45.90186595916748" lon="7.653623493388295">
        <ele>2336.7399999999998</ele>
        <time>2021-07-25T07:41:29Z</time>
      </trkpt>
      <trkpt lat="45.90187911875546" lon="7.653636317700148">
        <ele>2337.3400000000001</ele>
        <time>2021-07-25T07:41:45Z</time>
      </trkpt>
      <trkpt lat="45.901886327192187" lon="7.653630953282118">
        <ele>2338.0799999999999</ele>
        <time>2021-07-25T07:41:52Z</time>
      </trkpt>
      <trkpt lat="45.901892194524407" lon="7.653650902211666">
        <ele>2338.6700000000001</ele>
        <time>2021-07-25T07:42:11Z</time>
      </trkpt>
      <trkpt lat="45.901886159554124" lon="7.653654087334871">
        <ele>2340.1199999999999</ele>
        <time>2021-07-25T07:42:37Z</time>
      </trkpt>
      <trkpt lat="45.901900492608547" lon="7.653639419004321">
        <ele>2340.8000000000002</ele>
        <time>2021-07-25T07:42:53Z</time>
      </trkpt>
      <trkpt lat="45.901920273900032" lon="7.653663977980614">
        <ele>2341.6500000000001</ele>
        <time>2021-07-25T07:43:12Z</time>
      </trkpt>
      <trkpt lat="45.901981629431248" lon="7.653795490041375">
        <ele>2344.6999999999998</ele>
        <time>2021-07-25T07:43:25Z</time>
      </trkpt>
      <trkpt lat="45.902039464563131" lon="7.653931193053722">
        <ele>2347.9699999999998</ele>
        <time>2021-07-25T07:43:38Z</time>
      </trkpt>
      <trkpt lat="45.902091600000858" lon="7.654058765619993">
        <ele>2351</ele>
        <time>2021-07-25T07:43:51Z</time>
      </trkpt>
      <trkpt lat="45.902144825085998" lon="7.654195725917816">
        <ele>2354.1900000000001</ele>
        <time>2021-07-25T07:44:05Z</time>
      </trkpt>
      <trkpt lat="45.902210958302021" lon="7.654315503314138">
        <ele>2357.3299999999999</ele>
        <time>2021-07-25T07:44:20Z</time>
      </trkpt>
      <trkpt lat="45.902295783162117" lon="7.65446855686605">
        <ele>2360.3800000000001</ele>
        <time>2021-07-25T07:44:37Z</time>
      </trkpt>
      <trkpt lat="45.902344733476639" lon="7.654551202431321">
        <ele>2362.1700000000001</ele>
        <time>2021-07-25T07:44:46Z</time>
      </trkpt>
      <trkpt lat="45.902426289394498" lon="7.654671650379896">
        <ele>2364.79</ele>
        <time>2021-07-25T07:45:00Z</time>
      </trkpt>
      <trkpt lat="45.902553023770452" lon="7.654735436663032">
        <ele>2367.6300000000001</ele>
        <time>2021-07-25T07:45:15Z</time>
      </trkpt>
      <trkpt lat="45.902690822258592" lon="7.654792685061693">
        <ele>2370.1100000000001</ele>
        <time>2021-07-25T07:45:30Z</time>
      </trkpt>
      <trkpt lat="45.902834320440888" lon="7.654842305928469">
        <ele>2372.3499999999999</ele>
        <time>2021-07-25T07:45:45Z</time>
      </trkpt>
      <trkpt lat="45.902992067858577" lon="7.654899638146162">
        <ele>2375.3899999999999</ele>
        <time>2021-07-25T07:46:02Z</time>
      </trkpt>
      <trkpt lat="45.903132800012827" lon="7.654967028647661">
        <ele>2377.79</ele>
        <time>2021-07-25T07:46:20Z</time>
      </trkpt>
      <trkpt lat="45.903262132778764" lon="7.655064258724451">
        <ele>2379.7600000000002</ele>
        <time>2021-07-25T07:46:37Z</time>
      </trkpt>
      <trkpt lat="45.903371768072248" lon="7.655169032514095">
        <ele>2381.25</ele>
        <time>2021-07-25T07:46:51Z</time>
      </trkpt>
      <trkpt lat="45.903509566560388" lon="7.655307920649648">
        <ele>2382.4200000000001</ele>
        <time>2021-07-25T07:47:06Z</time>
      </trkpt>
      <trkpt lat="45.903620794415474" lon="7.655429877340794">
        <ele>2383.3600000000001</ele>
        <time>2021-07-25T07:47:20Z</time>
      </trkpt>
      <trkpt lat="45.903729842975736" lon="7.655557366088033">
        <ele>2384.6300000000001</ele>
        <time>2021-07-25T07:47:32Z</time>
      </trkpt>
      <trkpt lat="45.903849704191089" lon="7.65571310184896">
        <ele>2385.4099999999999</ele>
        <time>2021-07-25T07:47:47Z</time>
      </trkpt>
      <trkpt lat="45.90399194508791" lon="7.655848050490022">
        <ele>2385.6599999999999</ele>
        <time>2021-07-25T07:48:02Z</time>
      </trkpt>
      <trkpt lat="45.904149608686566" lon="7.655949974432588">
        <ele>2386.4200000000001</ele>
        <time>2021-07-25T07:48:18Z</time>
      </trkpt>
      <trkpt lat="45.904318336397409" lon="7.656029853969812">
        <ele>2387.9299999999998</ele>
        <time>2021-07-25T07:48:35Z</time>
      </trkpt>
      <trkpt lat="45.904467031359673" lon="7.656146194785833">
        <ele>2390.0799999999999</ele>
        <time>2021-07-25T07:48:52Z</time>
      </trkpt>
      <trkpt lat="45.904558561742306" lon="7.656274689361453">
        <ele>2393.1700000000001</ele>
        <time>2021-07-25T07:49:07Z</time>
      </trkpt>
      <trkpt lat="45.904638189822435" lon="7.656384157016873">
        <ele>2395.98</ele>
        <time>2021-07-25T07:49:21Z</time>
      </trkpt>
      <trkpt lat="45.904711615294218" lon="7.656497145071626">
        <ele>2398.7800000000002</ele>
        <time>2021-07-25T07:49:35Z</time>
      </trkpt>
      <trkpt lat="45.904798367992043" lon="7.656642738729715">
        <ele>2401.9699999999998</ele>
        <time>2021-07-25T07:49:51Z</time>
      </trkpt>
      <trkpt lat="45.904868356883526" lon="7.656795205548406">
        <ele>2405.0700000000002</ele>
        <time>2021-07-25T07:50:07Z</time>
      </trkpt>
      <trkpt lat="45.904899453744292" lon="7.656914060935378">
        <ele>2407.7399999999998</ele>
        <time>2021-07-25T07:50:20Z</time>
      </trkpt>
      <trkpt lat="45.904942033812404" lon="7.657062252983451">
        <ele>2410.6100000000001</ele>
        <time>2021-07-25T07:50:34Z</time>
      </trkpt>
      <trkpt lat="45.904990145936608" lon="7.657200554385781">
        <ele>2413.0700000000002</ele>
        <time>2021-07-25T07:50:47Z</time>
      </trkpt>
      <trkpt lat="45.905043371021748" lon="7.65733097679913">
        <ele>2415.0700000000002</ele>
        <time>2021-07-25T07:50:59Z</time>
      </trkpt>
      <trkpt lat="45.905106486752629" lon="7.657483443617821">
        <ele>2417.5900000000001</ele>
        <time>2021-07-25T07:51:14Z</time>
      </trkpt>
      <trkpt lat="45.90517639182508" lon="7.657624008134008">
        <ele>2420.0500000000002</ele>
        <time>2021-07-25T07:51:28Z</time>
      </trkpt>
      <trkpt lat="45.90524042956531" lon="7.657771864905953">
        <ele>2422.6999999999998</ele>
        <time>2021-07-25T07:51:43Z</time>
      </trkpt>
      <trkpt lat="45.905286110937595" lon="7.657897593453527">
        <ele>2425.27</ele>
        <time>2021-07-25T07:51:55Z</time>
      </trkpt>
      <trkpt lat="45.905332798138261" lon="7.658037068322301">
        <ele>2427.5999999999999</ele>
        <time>2021-07-25T07:52:08Z</time>
      </trkpt>
      <trkpt lat="45.90538895688951" lon="7.658182326704264">
        <ele>2429.46</ele>
        <time>2021-07-25T07:52:21Z</time>
      </trkpt>
      <trkpt lat="45.905430866405368" lon="7.658306043595076">
        <ele>2431.5100000000002</ele>
        <time>2021-07-25T07:52:32Z</time>
      </trkpt>
      <trkpt lat="45.905503118410707" lon="7.65842447988689">
        <ele>2433.6900000000001</ele>
        <time>2021-07-25T07:52:44Z</time>
      </trkpt>
      <trkpt lat="45.905553326010704" lon="7.658522129058838">
        <ele>2435.5799999999999</ele>
        <time>2021-07-25T07:52:54Z</time>
      </trkpt>
      <trkpt lat="45.905610239133239" lon="7.658639894798398">
        <ele>2437.5300000000002</ele>
        <time>2021-07-25T07:53:06Z</time>
      </trkpt>
      <trkpt lat="45.905691459774971" lon="7.658787164837122">
        <ele>2440.6799999999998</ele>
        <time>2021-07-25T07:53:22Z</time>
      </trkpt>
      <trkpt lat="45.905710570514202" lon="7.65882077626884">
        <ele>2441.25</ele>
        <time>2021-07-25T07:53:26Z</time>
      </trkpt>
      <trkpt lat="45.905771506950259" lon="7.658949438482523">
        <ele>2444.2199999999998</ele>
        <time>2021-07-25T07:53:40Z</time>
      </trkpt>
      <trkpt lat="45.905847111716866" lon="7.659077513962984">
        <ele>2446.6700000000001</ele>
        <time>2021-07-25T07:53:54Z</time>
      </trkpt>
      <trkpt lat="45.905863624066114" lon="7.659105509519577">
        <ele>2447.3400000000001</ele>
        <time>2021-07-25T07:53:57Z</time>
      </trkpt>
      <trkpt lat="45.905898744240403" lon="7.659176420420408">
        <ele>2448.8499999999999</ele>
        <time>2021-07-25T07:54:05Z</time>
      </trkpt>
      <trkpt lat="45.905967140570283" lon="7.65928789973259">
        <ele>2451.4200000000001</ele>
        <time>2021-07-25T07:54:20Z</time>
      </trkpt>
      <trkpt lat="45.906044589355588" lon="7.659387560561299">
        <ele>2453.1799999999998</ele>
        <time>2021-07-25T07:54:35Z</time>
      </trkpt>
      <trkpt lat="45.90606034733355" lon="7.659401390701532">
        <ele>2453.3499999999999</ele>
        <time>2021-07-25T07:54:37Z</time>
      </trkpt>
      <trkpt lat="45.906075434759259" lon="7.659420669078827">
        <ele>2453.6900000000001</ele>
        <time>2021-07-25T07:54:39Z</time>
      </trkpt>
      <trkpt lat="45.906082894653082" lon="7.659431397914887">
        <ele>2453.7199999999998</ele>
        <time>2021-07-25T07:54:40Z</time>
      </trkpt>
      <trkpt lat="45.906192110851407" lon="7.659566849470139">
        <ele>2456.9899999999998</ele>
        <time>2021-07-25T07:54:58Z</time>
      </trkpt>
      <trkpt lat="45.906302835792303" lon="7.659701546654105">
        <ele>2460</ele>
        <time>2021-07-25T07:55:16Z</time>
      </trkpt>
      <trkpt lat="45.906401239335537" lon="7.65981906093657">
        <ele>2463.0599999999999</ele>
        <time>2021-07-25T07:55:33Z</time>
      </trkpt>
      <trkpt lat="45.906499139964581" lon="7.659924924373627">
        <ele>2466.1700000000001</ele>
        <time>2021-07-25T07:55:50Z</time>
      </trkpt>
      <trkpt lat="45.906579187139869" lon="7.660002624616027">
        <ele>2468.98</ele>
        <time>2021-07-25T07:56:04Z</time>
      </trkpt>
      <trkpt lat="45.906616067513824" lon="7.660030871629715">
        <ele>2469.6700000000001</ele>
        <time>2021-07-25T07:56:09Z</time>
      </trkpt>
      <trkpt lat="45.906642889603972" lon="7.660047300159931">
        <ele>2469.8400000000001</ele>
        <time>2021-07-25T07:56:12Z</time>
      </trkpt>
      <trkpt lat="45.906696198508143" lon="7.660074541345239">
        <ele>2471.2600000000002</ele>
        <time>2021-07-25T07:56:19Z</time>
      </trkpt>
      <trkpt lat="45.906797535717487" lon="7.660135813057423">
        <ele>2474.25</ele>
        <time>2021-07-25T07:56:35Z</time>
      </trkpt>
      <trkpt lat="45.906893676146865" lon="7.66018602065742">
        <ele>2477.25</ele>
        <time>2021-07-25T07:56:50Z</time>
      </trkpt>
      <trkpt lat="45.90699065476656" lon="7.660258607938886">
        <ele>2480.3400000000001</ele>
        <time>2021-07-25T07:57:06Z</time>
      </trkpt>
      <trkpt lat="45.907066091895103" lon="7.660318957641721">
        <ele>2483.4899999999998</ele>
        <time>2021-07-25T07:57:20Z</time>
      </trkpt>
      <trkpt lat="45.90715829282999" lon="7.660420965403318">
        <ele>2486.54</ele>
        <time>2021-07-25T07:57:37Z</time>
      </trkpt>
      <trkpt lat="45.907177990302444" lon="7.660442842170596">
        <ele>2487.0500000000002</ele>
        <time>2021-07-25T07:57:40Z</time>
      </trkpt>
      <trkpt lat="45.907262060791254" lon="7.660579215735197">
        <ele>2489.4499999999998</ele>
        <time>2021-07-25T07:57:55Z</time>
      </trkpt>
      <trkpt lat="45.907327691093087" lon="7.660706369206309">
        <ele>2491.9099999999999</ele>
        <time>2021-07-25T07:58:11Z</time>
      </trkpt>
      <trkpt lat="45.907365493476391" lon="7.660817848518491">
        <ele>2494.27</ele>
        <time>2021-07-25T07:58:24Z</time>
      </trkpt>
      <trkpt lat="45.907307155430317" lon="7.660981295630336">
        <ele>2496.4400000000001</ele>
        <time>2021-07-25T07:58:41Z</time>
      </trkpt>
      <trkpt lat="45.907190144062042" lon="7.661032006144524">
        <ele>2499.6900000000001</ele>
        <time>2021-07-25T07:58:58Z</time>
      </trkpt>
      <trkpt lat="45.90708645991981" lon="7.661101827397943">
        <ele>2502.79</ele>
        <time>2021-07-25T07:59:14Z</time>
      </trkpt>
      <trkpt lat="45.906981350854039" lon="7.661216743290424">
        <ele>2505.4200000000001</ele>
        <time>2021-07-25T07:59:32Z</time>
      </trkpt>
      <trkpt lat="45.906924270093441" lon="7.661321181803942">
        <ele>2508.6700000000001</ele>
        <time>2021-07-25T07:59:47Z</time>
      </trkpt>
      <trkpt lat="45.906871212646365" lon="7.661449760198593">
        <ele>2511.77</ele>
        <time>2021-07-25T08:00:03Z</time>
      </trkpt>
      <trkpt lat="45.906851850450039" lon="7.661579344421625">
        <ele>2514.8899999999999</ele>
        <time>2021-07-25T08:00:19Z</time>
      </trkpt>
      <trkpt lat="45.906838355585933" lon="7.661713538691402">
        <ele>2518.0999999999999</ele>
        <time>2021-07-25T08:00:34Z</time>
      </trkpt>
      <trkpt lat="45.906834919005632" lon="7.661858964711428">
        <ele>2521.1500000000001</ele>
        <time>2021-07-25T08:00:50Z</time>
      </trkpt>
      <trkpt lat="45.906833494082093" lon="7.662024088203907">
        <ele>2524.0300000000002</ele>
        <time>2021-07-25T08:01:08Z</time>
      </trkpt>
      <trkpt lat="45.906846569851041" lon="7.662147972732782">
        <ele>2527.1700000000001</ele>
        <time>2021-07-25T08:01:24Z</time>
      </trkpt>
      <trkpt lat="45.90686165727675" lon="7.662303205579519">
        <ele>2530.3000000000002</ele>
        <time>2021-07-25T08:01:43Z</time>
      </trkpt>
      <trkpt lat="45.90687389485538" lon="7.662416696548462">
        <ele>2533.4200000000001</ele>
        <time>2021-07-25T08:01:57Z</time>
      </trkpt>
      <trkpt lat="45.906919660046697" lon="7.662564134225249">
        <ele>2536.5</ele>
        <time>2021-07-25T08:02:15Z</time>
      </trkpt>
      <trkpt lat="45.906971292570233" lon="7.662717271596193">
        <ele>2539.5799999999999</ele>
        <time>2021-07-25T08:02:33Z</time>
      </trkpt>
      <trkpt lat="45.907021835446358" lon="7.66290083527565">
        <ele>2542.6199999999999</ele>
        <time>2021-07-25T08:02:52Z</time>
      </trkpt>
      <trkpt lat="45.907059889286757" lon="7.663085153326392">
        <ele>2545.6100000000001</ele>
        <time>2021-07-25T08:03:10Z</time>
      </trkpt>
      <trkpt lat="45.90706299059093" lon="7.6631123945117">
        <ele>2546.1700000000001</ele>
        <time>2021-07-25T08:03:12Z</time>
      </trkpt>
      <trkpt lat="45.907098446041346" lon="7.663281122222543">
        <ele>2547.5900000000001</ele>
        <time>2021-07-25T08:03:27Z</time>
      </trkpt>
      <trkpt lat="45.907143373042345" lon="7.663470804691315">
        <ele>2549.4299999999998</ele>
        <time>2021-07-25T08:03:45Z</time>
      </trkpt>
      <trkpt lat="45.907157622277737" lon="7.663536015897989">
        <ele>2550.52</ele>
        <time>2021-07-25T08:04:00Z</time>
      </trkpt>
      <trkpt lat="45.907143373042345" lon="7.663555964827538">
        <ele>2551.0599999999999</ele>
        <time>2021-07-25T08:04:13Z</time>
      </trkpt>
      <trkpt lat="45.907149156555533" lon="7.6635458227247">
        <ele>2551.4499999999998</ele>
        <time>2021-07-25T08:04:31Z</time>
      </trkpt>
      <trkpt lat="45.907156113535166" lon="7.663542302325368">
        <ele>2551.8600000000001</ele>
        <time>2021-07-25T08:04:47Z</time>
      </trkpt>
      <trkpt lat="45.907160472124815" lon="7.663549510762096">
        <ele>2550.6399999999999</ele>
        <time>2021-07-25T08:04:58Z</time>
      </trkpt>
      <trkpt lat="45.907158125191927" lon="7.663548672571778">
        <ele>2551.9899999999998</ele>
        <time>2021-07-25T08:05:00Z</time>
      </trkpt>
      <trkpt lat="45.907153934240341" lon="7.663516821339726">
        <ele>2551.6700000000001</ele>
        <time>2021-07-25T08:05:20Z</time>
      </trkpt>
      <trkpt lat="45.907153431326151" lon="7.663479018956423">
        <ele>2551.4499999999998</ele>
        <time>2021-07-25T08:05:23Z</time>
      </trkpt>
      <trkpt lat="45.907138343900442" lon="7.663437612354755">
        <ele>2551.1599999999999</ele>
        <time>2021-07-25T08:05:26Z</time>
      </trkpt>
      <trkpt lat="45.907130632549524" lon="7.663426967337728">
        <ele>2551.0300000000002</ele>
        <time>2021-07-25T08:05:27Z</time>
      </trkpt>
      <trkpt lat="45.90709819458425" lon="7.663417663425207">
        <ele>2551.0599999999999</ele>
        <time>2021-07-25T08:05:37Z</time>
      </trkpt>
      <trkpt lat="45.907117808237672" lon="7.663420848548412">
        <ele>2551.3499999999999</ele>
        <time>2021-07-25T08:05:47Z</time>
      </trkpt>
      <trkpt lat="45.907133398577571" lon="7.663537776097655">
        <ele>2552.6599999999999</ele>
        <time>2021-07-25T08:06:02Z</time>
      </trkpt>
      <trkpt lat="45.907127279788256" lon="7.663589576259255">
        <ele>2553.1799999999998</ele>
        <time>2021-07-25T08:06:15Z</time>
      </trkpt>
      <trkpt lat="45.907118311151862" lon="7.663622684776783">
        <ele>2553.54</ele>
        <time>2021-07-25T08:06:25Z</time>
      </trkpt>
      <trkpt lat="45.907110264524817" lon="7.663633078336716">
        <ele>2553.5900000000001</ele>
        <time>2021-07-25T08:06:26Z</time>
      </trkpt>
      <trkpt lat="45.907060392200947" lon="7.663702229037881">
        <ele>2555.3000000000002</ele>
        <time>2021-07-25T08:06:34Z</time>
      </trkpt>
      <trkpt lat="45.90701655484736" lon="7.663739025592804">
        <ele>2556.98</ele>
        <time>2021-07-25T08:06:47Z</time>
      </trkpt>
      <trkpt lat="45.907018482685089" lon="7.663742881268263">
        <ele>2557.6599999999999</ele>
        <time>2021-07-25T08:07:07Z</time>
      </trkpt>
      <trkpt lat="45.907025272026658" lon="7.663738019764423">
        <ele>2557.6100000000001</ele>
        <time>2021-07-25T08:07:25Z</time>
      </trkpt>
      <trkpt lat="45.907079838216305" lon="7.663671215996146">
        <ele>2556.98</ele>
        <time>2021-07-25T08:07:36Z</time>
      </trkpt>
      <trkpt lat="45.907125687226653" lon="7.663624193519354">
        <ele>2556.2800000000002</ele>
        <time>2021-07-25T08:07:51Z</time>
      </trkpt>
      <trkpt lat="45.907109761610627" lon="7.663593767210841">
        <ele>2556.1900000000001</ele>
        <time>2021-07-25T08:08:11Z</time>
      </trkpt>
      <trkpt lat="45.907101966440678" lon="7.663576500490308">
        <ele>2556.7399999999998</ele>
        <time>2021-07-25T08:08:26Z</time>
      </trkpt>
      <trkpt lat="45.907111773267388" lon="7.663578847423196">
        <ele>2557.1199999999999</ele>
        <time>2021-07-25T08:08:44Z</time>
      </trkpt>
      <trkpt lat="45.90711479075253" lon="7.663579266518354">
        <ele>2557.4000000000001</ele>
        <time>2021-07-25T08:09:04Z</time>
      </trkpt>
      <trkpt lat="45.907128285616636" lon="7.663581529632211">
        <ele>2557.8099999999999</ele>
        <time>2021-07-25T08:09:19Z</time>
      </trkpt>
      <trkpt lat="45.907130381092429" lon="7.663620254024863">
        <ele>2557.46</ele>
        <time>2021-07-25T08:09:24Z</time>
      </trkpt>
      <trkpt lat="45.907142115756869" lon="7.663661241531372">
        <ele>2558.1900000000001</ele>
        <time>2021-07-25T08:09:28Z</time>
      </trkpt>
      <trkpt lat="45.907213948667049" lon="7.663656380027533">
        <ele>2558.4499999999998</ele>
        <time>2021-07-25T08:09:36Z</time>
      </trkpt>
      <trkpt lat="45.907286535948515" lon="7.663652189075947">
        <ele>2558.8200000000002</ele>
        <time>2021-07-25T08:09:49Z</time>
      </trkpt>
      <trkpt lat="45.907303635030985" lon="7.663654368370771">
        <ele>2558.9099999999999</ele>
        <time>2021-07-25T08:09:51Z</time>
      </trkpt>
      <trkpt lat="45.907354429364204" lon="7.663664259016514">
        <ele>2558.8200000000002</ele>
        <time>2021-07-25T08:10:04Z</time>
      </trkpt>
      <trkpt lat="45.907413186505437" lon="7.66374564729631">
        <ele>2560.0999999999999</ele>
        <time>2021-07-25T08:10:14Z</time>
      </trkpt>
      <trkpt lat="45.907506896182895" lon="7.663831813260913">
        <ele>2561.7600000000002</ele>
        <time>2021-07-25T08:10:27Z</time>
      </trkpt>
      <trkpt lat="45.907511757686734" lon="7.663841703906655">
        <ele>2561.9400000000001</ele>
        <time>2021-07-25T08:10:28Z</time>
      </trkpt>
      <trkpt lat="45.907591469585896" lon="7.664047982543707">
        <ele>2564.0700000000002</ele>
        <time>2021-07-25T08:10:45Z</time>
      </trkpt>
      <trkpt lat="45.90765617787838" lon="7.664166586473584">
        <ele>2565.79</ele>
        <time>2021-07-25T08:11:00Z</time>
      </trkpt>
      <trkpt lat="45.907703200355172" lon="7.664265912026167">
        <ele>2567.8099999999999</ele>
        <time>2021-07-25T08:11:13Z</time>
      </trkpt>
      <trkpt lat="45.907747875899076" lon="7.664352664723992">
        <ele>2569.96</ele>
        <time>2021-07-25T08:11:27Z</time>
      </trkpt>
      <trkpt lat="45.907773021608591" lon="7.66444830223918">
        <ele>2573.1700000000001</ele>
        <time>2021-07-25T08:11:45Z</time>
      </trkpt>
      <trkpt lat="45.907814763486385" lon="7.664531199261546">
        <ele>2575.5</ele>
        <time>2021-07-25T08:12:00Z</time>
      </trkpt>
      <trkpt lat="45.907863043248653" lon="7.664601355791092">
        <ele>2577.5900000000001</ele>
        <time>2021-07-25T08:12:13Z</time>
      </trkpt>
      <trkpt lat="45.907898917794228" lon="7.664679726585746">
        <ele>2580.77</ele>
        <time>2021-07-25T08:12:30Z</time>
      </trkpt>
      <trkpt lat="45.907989023253322" lon="7.664812495931983">
        <ele>2583.8400000000001</ele>
        <time>2021-07-25T08:12:47Z</time>
      </trkpt>
      <trkpt lat="45.908067226409912" lon="7.664946774020791">
        <ele>2585.8499999999999</ele>
        <time>2021-07-25T08:13:04Z</time>
      </trkpt>
      <trkpt lat="45.908171664923429" lon="7.665092535316944">
        <ele>2587.1500000000001</ele>
        <time>2021-07-25T08:13:21Z</time>
      </trkpt>
      <trkpt lat="45.908261183649302" lon="7.665181132033467">
        <ele>2589.2199999999998</ele>
        <time>2021-07-25T08:13:34Z</time>
      </trkpt>
      <trkpt lat="45.908383307978511" lon="7.665249612182379">
        <ele>2590.1900000000001</ele>
        <time>2021-07-25T08:13:47Z</time>
      </trkpt>
      <trkpt lat="45.908480118960142" lon="7.665301412343979">
        <ele>2591.3200000000002</ele>
        <time>2021-07-25T08:13:58Z</time>
      </trkpt>
      <trkpt lat="45.908497888594866" lon="7.665303675457835">
        <ele>2591.5500000000002</ele>
        <time>2021-07-25T08:14:00Z</time>
      </trkpt>
      <trkpt lat="45.908640213310719" lon="7.66532831825316">
        <ele>2591.79</ele>
        <time>2021-07-25T08:14:15Z</time>
      </trkpt>
      <trkpt lat="45.90872822329402" lon="7.665405934676528">
        <ele>2592.8200000000002</ele>
        <time>2021-07-25T08:14:26Z</time>
      </trkpt>
      <trkpt lat="45.908840876072645" lon="7.665453543886542">
        <ele>2594.6500000000001</ele>
        <time>2021-07-25T08:14:39Z</time>
      </trkpt>
      <trkpt lat="45.908990995958447" lon="7.665487574413419">
        <ele>2596.5799999999999</ele>
        <time>2021-07-25T08:14:56Z</time>
      </trkpt>
      <trkpt lat="45.909117478877306" lon="7.665545325726271">
        <ele>2598.8200000000002</ele>
        <time>2021-07-25T08:15:11Z</time>
      </trkpt>
      <trkpt lat="45.909196771681309" lon="7.665567118674517">
        <ele>2599.77</ele>
        <time>2021-07-25T08:15:20Z</time>
      </trkpt>
      <trkpt lat="45.909265084192157" lon="7.665564101189375">
        <ele>2600.1799999999998</ele>
        <time>2021-07-25T08:15:27Z</time>
      </trkpt>
      <trkpt lat="45.909403134137392" lon="7.665559994056821">
        <ele>2602.5</ele>
        <time>2021-07-25T08:15:44Z</time>
      </trkpt>
      <trkpt lat="45.909414030611515" lon="7.665549516677856">
        <ele>2602.6999999999998</ele>
        <time>2021-07-25T08:15:59Z</time>
      </trkpt>
      <trkpt lat="45.909403217956424" lon="7.665555803105235">
        <ele>2603.1900000000001</ele>
        <time>2021-07-25T08:16:26Z</time>
      </trkpt>
      <trkpt lat="45.909410174936056" lon="7.665560748428106">
        <ele>2603.52</ele>
        <time>2021-07-25T08:16:49Z</time>
      </trkpt>
      <trkpt lat="45.909426184371114" lon="7.665557479485869">
        <ele>2604.2800000000002</ele>
        <time>2021-07-25T08:17:12Z</time>
      </trkpt>
      <trkpt lat="45.909427190199494" lon="7.665569465607405">
        <ele>2604.1100000000001</ele>
        <time>2021-07-25T08:17:30Z</time>
      </trkpt>
      <trkpt lat="45.909417551010847" lon="7.665569884702563">
        <ele>2604.4099999999999</ele>
        <time>2021-07-25T08:17:57Z</time>
      </trkpt>
      <trkpt lat="45.909422915428877" lon="7.665569046512246">
        <ele>2604.52</ele>
        <time>2021-07-25T08:18:12Z</time>
      </trkpt>
      <trkpt lat="45.909428782761097" lon="7.665542559698224">
        <ele>2605.3699999999999</ele>
        <time>2021-07-25T08:18:37Z</time>
      </trkpt>
      <trkpt lat="45.909432638436556" lon="7.665545828640461">
        <ele>2605.75</ele>
        <time>2021-07-25T08:18:54Z</time>
      </trkpt>
      <trkpt lat="45.909446720033884" lon="7.665546834468842">
        <ele>2605.8299999999999</ele>
        <time>2021-07-25T08:19:13Z</time>
      </trkpt>
      <trkpt lat="45.909465914592147" lon="7.665516408160329">
        <ele>2606.3600000000001</ele>
        <time>2021-07-25T08:19:26Z</time>
      </trkpt>
      <trkpt lat="45.909467088058591" lon="7.665513390675187">
        <ele>2606.4400000000001</ele>
        <time>2021-07-25T08:19:39Z</time>
      </trkpt>
      <trkpt lat="45.909464992582798" lon="7.665514647960663">
        <ele>2607.0500000000002</ele>
        <time>2021-07-25T08:20:04Z</time>
      </trkpt>
      <trkpt lat="45.909496676176786" lon="7.665523616597056">
        <ele>2607.5900000000001</ele>
        <time>2021-07-25T08:20:21Z</time>
      </trkpt>
      <trkpt lat="45.909540597349405" lon="7.665469385683537">
        <ele>2608.1900000000001</ele>
        <time>2021-07-25T08:20:30Z</time>
      </trkpt>
      <trkpt lat="45.909575801342726" lon="7.665336867794395">
        <ele>2607.3499999999999</ele>
        <time>2021-07-25T08:20:41Z</time>
      </trkpt>
      <trkpt lat="45.909581920132041" lon="7.665267214179039">
        <ele>2605.6500000000001</ele>
        <time>2021-07-25T08:20:53Z</time>
      </trkpt>
      <trkpt lat="45.909638917073607" lon="7.665162272751331">
        <ele>2603.5100000000002</ele>
        <time>2021-07-25T08:21:05Z</time>
      </trkpt>
      <trkpt lat="45.90965517796576" lon="7.66515925526619">
        <ele>2603.5100000000002</ele>
        <time>2021-07-25T08:21:07Z</time>
      </trkpt>
      <trkpt lat="45.909798759967089" lon="7.665129667147994">
        <ele>2602.21</ele>
        <time>2021-07-25T08:21:23Z</time>
      </trkpt>
      <trkpt lat="45.909881321713328" lon="7.665063785389066">
        <ele>2604.21</ele>
        <time>2021-07-25T08:21:35Z</time>
      </trkpt>
      <trkpt lat="45.909980982542038" lon="7.664974685758352">
        <ele>2606.25</ele>
        <time>2021-07-25T08:21:52Z</time>
      </trkpt>
      <trkpt lat="45.91005683876574" lon="7.664890279993415">
        <ele>2608.8499999999999</ele>
        <time>2021-07-25T08:22:08Z</time>
      </trkpt>
      <trkpt lat="45.910140322521329" lon="7.664845520630479">
        <ele>2611.8899999999999</ele>
        <time>2021-07-25T08:22:23Z</time>
      </trkpt>
      <trkpt lat="45.910247107967734" lon="7.664857003837824">
        <ele>2614.71</ele>
        <time>2021-07-25T08:22:41Z</time>
      </trkpt>
      <trkpt lat="45.910367555916309" lon="7.664860272780061">
        <ele>2617.6100000000001</ele>
        <time>2021-07-25T08:23:01Z</time>
      </trkpt>
      <trkpt lat="45.910449866205454" lon="7.664860524237156">
        <ele>2620.2399999999998</ele>
        <time>2021-07-25T08:23:17Z</time>
      </trkpt>
      <trkpt lat="45.910513987764716" lon="7.664826912805438">
        <ele>2622.8400000000001</ele>
        <time>2021-07-25T08:23:31Z</time>
      </trkpt>
      <trkpt lat="45.910574924200773" lon="7.664906457066536">
        <ele>2625.3899999999999</ele>
        <time>2021-07-25T08:23:46Z</time>
      </trkpt>
      <trkpt lat="45.910613900050521" lon="7.664988599717617">
        <ele>2627.8899999999999</ele>
        <time>2021-07-25T08:24:00Z</time>
      </trkpt>
      <trkpt lat="45.910682631656528" lon="7.665044255554676">
        <ele>2630.9200000000001</ele>
        <time>2021-07-25T08:24:17Z</time>
      </trkpt>
      <trkpt lat="45.910722864791751" lon="7.665103264153004">
        <ele>2634.1700000000001</ele>
        <time>2021-07-25T08:24:31Z</time>
      </trkpt>
      <trkpt lat="45.910790422931314" lon="7.665138300508261">
        <ele>2636.9299999999998</ele>
        <time>2021-07-25T08:24:47Z</time>
      </trkpt>
      <trkpt lat="45.910827722400427" lon="7.665202924981713">
        <ele>2639.5799999999999</ele>
        <time>2021-07-25T08:25:01Z</time>
      </trkpt>
      <trkpt lat="45.910862339660525" lon="7.665281882509589">
        <ele>2641.9000000000001</ele>
        <time>2021-07-25T08:25:16Z</time>
      </trkpt>
      <trkpt lat="45.910897040739655" lon="7.665390511974692">
        <ele>2644.5</ele>
        <time>2021-07-25T08:25:31Z</time>
      </trkpt>
      <trkpt lat="45.910940291360021" lon="7.66552671790123">
        <ele>2647.04</ele>
        <time>2021-07-25T08:25:49Z</time>
      </trkpt>
      <trkpt lat="45.910938614979386" lon="7.665559407323599">
        <ele>2647.6199999999999</ele>
        <time>2021-07-25T08:26:04Z</time>
      </trkpt>
      <trkpt lat="45.910941632464528" lon="7.66558337956667">
        <ele>2649.0900000000001</ele>
        <time>2021-07-25T08:26:20Z</time>
      </trkpt>
      <trkpt lat="45.910979686304927" lon="7.665650518611074">
        <ele>2650.6599999999999</ele>
        <time>2021-07-25T08:26:34Z</time>
      </trkpt>
      <trkpt lat="45.911015477031469" lon="7.665758896619082">
        <ele>2653.29</ele>
        <time>2021-07-25T08:26:49Z</time>
      </trkpt>
      <trkpt lat="45.911053363233805" lon="7.6658702082932">
        <ele>2655.5700000000002</ele>
        <time>2021-07-25T08:27:04Z</time>
      </trkpt>
      <trkpt lat="45.911100385710597" lon="7.665958469733596">
        <ele>2657.9899999999998</ele>
        <time>2021-07-25T08:27:20Z</time>
      </trkpt>
      <trkpt lat="45.911143217235804" lon="7.666045222431421">
        <ele>2661.3400000000001</ele>
        <time>2021-07-25T08:27:35Z</time>
      </trkpt>
      <trkpt lat="45.911181690171361" lon="7.666145889088512">
        <ele>2663.5300000000002</ele>
        <time>2021-07-25T08:27:49Z</time>
      </trkpt>
      <trkpt lat="45.911204991862178" lon="7.666262397542596">
        <ele>2666.5599999999999</ele>
        <time>2021-07-25T08:28:06Z</time>
      </trkpt>
      <trkpt lat="45.911249248310924" lon="7.666346384212375">
        <ele>2669.1199999999999</ele>
        <time>2021-07-25T08:28:21Z</time>
      </trkpt>
      <trkpt lat="45.911302473396063" lon="7.666430119425058">
        <ele>2672.1399999999999</ele>
        <time>2021-07-25T08:28:40Z</time>
      </trkpt>
      <trkpt lat="45.911333402618766" lon="7.66648979857564">
        <ele>2674.5799999999999</ele>
        <time>2021-07-25T08:28:53Z</time>
      </trkpt>
      <trkpt lat="45.911396853625774" lon="7.666512429714203">
        <ele>2677.5900000000001</ele>
        <time>2021-07-25T08:29:08Z</time>
      </trkpt>
      <trkpt lat="45.911432392895222" lon="7.666570683941245">
        <ele>2680.1900000000001</ele>
        <time>2021-07-25T08:29:23Z</time>
      </trkpt>
      <trkpt lat="45.911481427028775" lon="7.666597841307521">
        <ele>2682.46</ele>
        <time>2021-07-25T08:29:36Z</time>
      </trkpt>
      <trkpt lat="45.911501795053482" lon="7.666671685874462">
        <ele>2685.5100000000002</ele>
        <time>2021-07-25T08:29:50Z</time>
      </trkpt>
      <trkpt lat="45.911542950198054" lon="7.666729856282473">
        <ele>2688.0700000000002</ele>
        <time>2021-07-25T08:30:07Z</time>
      </trkpt>
      <trkpt lat="45.911594834178686" lon="7.666749721392989">
        <ele>2690.4899999999998</ele>
        <time>2021-07-25T08:30:20Z</time>
      </trkpt>
      <trkpt lat="45.911619309335947" lon="7.666821135208011">
        <ele>2693.21</ele>
        <time>2021-07-25T08:30:34Z</time>
      </trkpt>
      <trkpt lat="45.911657195538282" lon="7.666882742196322">
        <ele>2696.3200000000002</ele>
        <time>2021-07-25T08:30:50Z</time>
      </trkpt>
      <trkpt lat="45.911718802526593" lon="7.666883999481797">
        <ele>2698.6500000000001</ele>
        <time>2021-07-25T08:31:06Z</time>
      </trkpt>
      <trkpt lat="45.911758784204721" lon="7.666971338912845">
        <ele>2701.52</ele>
        <time>2021-07-25T08:31:22Z</time>
      </trkpt>
      <trkpt lat="45.911804549396038" lon="7.667044932022691">
        <ele>2703.7199999999998</ele>
        <time>2021-07-25T08:31:37Z</time>
      </trkpt>
      <trkpt lat="45.911838077008724" lon="7.667123889550567">
        <ele>2706.5799999999999</ele>
        <time>2021-07-25T08:31:53Z</time>
      </trkpt>
      <trkpt lat="45.911879315972328" lon="7.667215168476105">
        <ele>2708.46</ele>
        <time>2021-07-25T08:32:09Z</time>
      </trkpt>
      <trkpt lat="45.91190823353827" lon="7.667290270328522">
        <ele>2711.5</ele>
        <time>2021-07-25T08:32:24Z</time>
      </trkpt>
      <trkpt lat="45.911901695653796" lon="7.667285073548555">
        <ele>2711.0500000000002</ele>
        <time>2021-07-25T08:32:37Z</time>
      </trkpt>
      <trkpt lat="45.91190479695797" lon="7.667280379682779">
        <ele>2710.5900000000001</ele>
        <time>2021-07-25T08:32:57Z</time>
      </trkpt>
      <trkpt lat="45.911913430318236" lon="7.667286079376936">
        <ele>2711.4299999999998</ele>
        <time>2021-07-25T08:33:13Z</time>
      </trkpt>
      <trkpt lat="45.911918878555298" lon="7.667312733829022">
        <ele>2711.5599999999999</ele>
        <time>2021-07-25T08:33:41Z</time>
      </trkpt>
      <trkpt lat="45.91190529987216" lon="7.667308542877436">
        <ele>2711.1599999999999</ele>
        <time>2021-07-25T08:34:00Z</time>
      </trkpt>
      <trkpt lat="45.91189892962575" lon="7.66728674992919">
        <ele>2712.0999999999999</ele>
        <time>2021-07-25T08:34:18Z</time>
      </trkpt>
      <trkpt lat="45.9118945710361" lon="7.667292952537537">
        <ele>2712.9200000000001</ele>
        <time>2021-07-25T08:34:37Z</time>
      </trkpt>
      <trkpt lat="45.911899348720908" lon="7.667284067720175">
        <ele>2713.4499999999998</ele>
        <time>2021-07-25T08:34:57Z</time>
      </trkpt>
      <trkpt lat="45.911900857463479" lon="7.6672896835953">
        <ele>2713.5999999999999</ele>
        <time>2021-07-25T08:35:10Z</time>
      </trkpt>
      <trkpt lat="45.911901947110891" lon="7.667283480986953">
        <ele>2713.6300000000001</ele>
        <time>2021-07-25T08:35:26Z</time>
      </trkpt>
      <trkpt lat="45.911895828321576" lon="7.667290773242712">
        <ele>2712.1300000000001</ele>
        <time>2021-07-25T08:35:35Z</time>
      </trkpt>
      <trkpt lat="45.911906640976667" lon="7.667294461280108">
        <ele>2713.8200000000002</ele>
        <time>2021-07-25T08:35:38Z</time>
      </trkpt>
      <trkpt lat="45.911925751715899" lon="7.667316338047385">
        <ele>2714.3299999999999</ele>
        <time>2021-07-25T08:35:55Z</time>
      </trkpt>
      <trkpt lat="45.911923991516232" lon="7.667295383289456">
        <ele>2714.4400000000001</ele>
        <time>2021-07-25T08:36:15Z</time>
      </trkpt>
      <trkpt lat="45.911907227709889" lon="7.667289013043046">
        <ele>2714.4899999999998</ele>
        <time>2021-07-25T08:36:34Z</time>
      </trkpt>
      <trkpt lat="45.911907227709889" lon="7.667283145710826">
        <ele>2714.3099999999999</ele>
        <time>2021-07-25T08:36:53Z</time>
      </trkpt>
      <trkpt lat="45.911901444196701" lon="7.66728431917727">
        <ele>2715.3899999999999</ele>
        <time>2021-07-25T08:37:19Z</time>
      </trkpt>
      <trkpt lat="45.911905718967319" lon="7.667298065498471">
        <ele>2715.7399999999998</ele>
        <time>2021-07-25T08:37:40Z</time>
      </trkpt>
      <trkpt lat="45.911959614604712" lon="7.667371742427349">
        <ele>2718.8800000000001</ele>
        <time>2021-07-25T08:37:55Z</time>
      </trkpt>
      <trkpt lat="45.911999763920903" lon="7.667424716055393">
        <ele>2721.9099999999999</ele>
        <time>2021-07-25T08:38:07Z</time>
      </trkpt>
      <trkpt lat="45.912048798054457" lon="7.667420357465744">
        <ele>2724.5900000000001</ele>
        <time>2021-07-25T08:38:20Z</time>
      </trkpt>
      <trkpt lat="45.912099424749613" lon="7.667404850944877">
        <ele>2726.54</ele>
        <time>2021-07-25T08:38:33Z</time>
      </trkpt>
      <trkpt lat="45.912145189940929" lon="7.667343160137534">
        <ele>2729.27</ele>
        <time>2021-07-25T08:38:50Z</time>
      </trkpt>
      <trkpt lat="45.912160277366638" lon="7.667389260604978">
        <ele>2731.5</ele>
        <time>2021-07-25T08:39:05Z</time>
      </trkpt>
      <trkpt lat="45.912184920161963" lon="7.667399067431688">
        <ele>2733.2800000000002</ele>
        <time>2021-07-25T08:39:18Z</time>
      </trkpt>
      <trkpt lat="45.912224482744932" lon="7.667367802932859">
        <ele>2735.2800000000002</ele>
        <time>2021-07-25T08:39:31Z</time>
      </trkpt>
      <trkpt lat="45.912271253764629" lon="7.667433097958565">
        <ele>2737.9699999999998</ele>
        <time>2021-07-25T08:39:48Z</time>
      </trkpt>
      <trkpt lat="45.912306793034077" lon="7.667482802644372">
        <ele>2740.6999999999998</ele>
        <time>2021-07-25T08:40:03Z</time>
      </trkpt>
      <trkpt lat="45.912324227392673" lon="7.667547175660729">
        <ele>2743.1300000000001</ele>
        <time>2021-07-25T08:40:17Z</time>
      </trkpt>
      <trkpt lat="45.912331938743591" lon="7.66765127889812">
        <ele>2746.1599999999999</ele>
        <time>2021-07-25T08:40:35Z</time>
      </trkpt>
      <trkpt lat="45.912383152171969" lon="7.667658990249038">
        <ele>2749.3699999999999</ele>
        <time>2021-07-25T08:40:49Z</time>
      </trkpt>
      <trkpt lat="45.912430845201015" lon="7.667630575597286">
        <ele>2752.46</ele>
        <time>2021-07-25T08:41:05Z</time>
      </trkpt>
      <trkpt lat="45.912468815222383" lon="7.667678687721491">
        <ele>2755.3000000000002</ele>
        <time>2021-07-25T08:41:21Z</time>
      </trkpt>
      <trkpt lat="45.912502929568291" lon="7.667744737118483">
        <ele>2758.3899999999999</ele>
        <time>2021-07-25T08:41:38Z</time>
      </trkpt>
      <trkpt lat="45.912526063621044" lon="7.6676937751472">
        <ele>2761.1700000000001</ele>
        <time>2021-07-25T08:41:51Z</time>
      </trkpt>
      <trkpt lat="45.912561602890491" lon="7.667680531740189">
        <ele>2763.0999999999999</ele>
        <time>2021-07-25T08:42:03Z</time>
      </trkpt>
      <trkpt lat="45.912591861560941" lon="7.667708611115813">
        <ele>2765.73</ele>
        <time>2021-07-25T08:42:19Z</time>
      </trkpt>
      <trkpt lat="45.912619102746248" lon="7.66775144264102">
        <ele>2767.9200000000001</ele>
        <time>2021-07-25T08:42:33Z</time>
      </trkpt>
      <trkpt lat="45.912657240405679" lon="7.667810870334506">
        <ele>2770.3600000000001</ele>
        <time>2021-07-25T08:42:50Z</time>
      </trkpt>
      <trkpt lat="45.912689678370953" lon="7.667861161753535">
        <ele>2772.3000000000002</ele>
        <time>2021-07-25T08:43:03Z</time>
      </trkpt>
      <trkpt lat="45.912724127992988" lon="7.667885385453701">
        <ele>2774.9000000000001</ele>
        <time>2021-07-25T08:43:18Z</time>
      </trkpt>
      <trkpt lat="45.912758996710181" lon="7.667919583618641">
        <ele>2777.1199999999999</ele>
        <time>2021-07-25T08:43:31Z</time>
      </trkpt>
      <trkpt lat="45.912787159904838" lon="7.667935593053699">
        <ele>2778.6599999999999</ele>
        <time>2021-07-25T08:43:46Z</time>
      </trkpt>
      <trkpt lat="45.912820268422365" lon="7.667979178950191">
        <ele>2781.3400000000001</ele>
        <time>2021-07-25T08:44:03Z</time>
      </trkpt>
      <trkpt lat="45.912857567891479" lon="7.668023770675063">
        <ele>2783.79</ele>
        <time>2021-07-25T08:44:18Z</time>
      </trkpt>
      <trkpt lat="45.912904422730207" lon="7.668063333258033">
        <ele>2786.5</ele>
        <time>2021-07-25T08:44:32Z</time>
      </trkpt>
      <trkpt lat="45.912916576489806" lon="7.6680719666183">
        <ele>2787.3499999999999</ele>
        <time>2021-07-25T08:44:47Z</time>
      </trkpt>
      <trkpt lat="45.912954714149237" lon="7.668110774829984">
        <ele>2789.6700000000001</ele>
        <time>2021-07-25T08:45:01Z</time>
      </trkpt>
      <trkpt lat="45.912991594523191" lon="7.668155115097761">
        <ele>2792.6900000000001</ele>
        <time>2021-07-25T08:45:15Z</time>
      </trkpt>
      <trkpt lat="45.913026966154575" lon="7.668178165331483">
        <ele>2794.8400000000001</ele>
        <time>2021-07-25T08:45:28Z</time>
      </trkpt>
      <trkpt lat="45.913056973367929" lon="7.668258715420961">
        <ele>2797.3600000000001</ele>
        <time>2021-07-25T08:45:44Z</time>
      </trkpt>
      <trkpt lat="45.913092093542218" lon="7.668317640200257">
        <ele>2800.0100000000002</ele>
        <time>2021-07-25T08:46:01Z</time>
      </trkpt>
      <trkpt lat="45.913141882047057" lon="7.668363908305764">
        <ele>2803.1399999999999</ele>
        <time>2021-07-25T08:46:19Z</time>
      </trkpt>
      <trkpt lat="45.913168452680111" lon="7.66841059550643">
        <ele>2806.1999999999998</ele>
        <time>2021-07-25T08:46:36Z</time>
      </trkpt>
      <trkpt lat="45.913205919787288" lon="7.668449571356177">
        <ele>2808.5900000000001</ele>
        <time>2021-07-25T08:46:51Z</time>
      </trkpt>
      <trkpt lat="45.913207428529859" lon="7.668454349040985">
        <ele>2809.8499999999999</ele>
        <time>2021-07-25T08:47:07Z</time>
      </trkpt>
      <trkpt lat="45.913234418258071" lon="7.668495923280716">
        <ele>2811.5300000000002</ele>
        <time>2021-07-25T08:47:23Z</time>
      </trkpt>
      <trkpt lat="45.913247745484114" lon="7.668553423136473">
        <ele>2813.8000000000002</ele>
        <time>2021-07-25T08:47:37Z</time>
      </trkpt>
      <trkpt lat="45.913281021639705" lon="7.668603044003248">
        <ele>2816.6100000000001</ele>
        <time>2021-07-25T08:47:53Z</time>
      </trkpt>
      <trkpt lat="45.913326451554894" lon="7.668603211641312">
        <ele>2819.1399999999999</ele>
        <time>2021-07-25T08:48:07Z</time>
      </trkpt>
      <trkpt lat="45.913332737982273" lon="7.668608827516437">
        <ele>2820.1999999999998</ele>
        <time>2021-07-25T08:48:20Z</time>
      </trkpt>
      <trkpt lat="45.91337364166975" lon="7.668602876365185">
        <ele>2822.9499999999998</ele>
        <time>2021-07-25T08:48:35Z</time>
      </trkpt>
      <trkpt lat="45.913415718823671" lon="7.668590052053332">
        <ele>2825.6599999999999</ele>
        <time>2021-07-25T08:48:49Z</time>
      </trkpt>
      <trkpt lat="45.913466764613986" lon="7.668658699840307">
        <ele>2827.8000000000002</ele>
        <time>2021-07-25T08:49:05Z</time>
      </trkpt>
      <trkpt lat="45.913504734635353" lon="7.668751068413258">
        <ele>2829.48</ele>
        <time>2021-07-25T08:49:20Z</time>
      </trkpt>
      <trkpt lat="45.913560222834349" lon="7.668805718421936">
        <ele>2832.0300000000002</ele>
        <time>2021-07-25T08:49:36Z</time>
      </trkpt>
      <trkpt lat="45.913595175370574" lon="7.66887185163796">
        <ele>2834.5</ele>
        <time>2021-07-25T08:49:51Z</time>
      </trkpt>
      <trkpt lat="45.913640689104795" lon="7.668945612385869">
        <ele>2837.3800000000001</ele>
        <time>2021-07-25T08:50:08Z</time>
      </trkpt>
      <trkpt lat="45.913679832592607" lon="7.669028593227267">
        <ele>2839.4000000000001</ele>
        <time>2021-07-25T08:50:23Z</time>
      </trkpt>
      <trkpt lat="45.913737080991268" lon="7.669097660109401">
        <ele>2841.6599999999999</ele>
        <time>2021-07-25T08:50:38Z</time>
      </trkpt>
      <trkpt lat="45.913796927779913" lon="7.669181311503053">
        <ele>2844.5100000000002</ele>
        <time>2021-07-25T08:50:56Z</time>
      </trkpt>
      <trkpt lat="45.913847051560879" lon="7.669212995097041">
        <ele>2846.3800000000001</ele>
        <time>2021-07-25T08:51:09Z</time>
      </trkpt>
      <trkpt lat="45.913911005482078" lon="7.669235374778509">
        <ele>2847.9899999999998</ele>
        <time>2021-07-25T08:51:25Z</time>
      </trkpt>
      <trkpt lat="45.913980659097433" lon="7.669237637892366">
        <ele>2850.1300000000001</ele>
        <time>2021-07-25T08:51:39Z</time>
      </trkpt>
      <trkpt lat="45.914072524756193" lon="7.669208217412233">
        <ele>2852.8200000000002</ele>
        <time>2021-07-25T08:51:56Z</time>
      </trkpt>
      <trkpt lat="45.914147458970547" lon="7.669233363121748">
        <ele>2853.2399999999998</ele>
        <time>2021-07-25T08:52:08Z</time>
      </trkpt>
      <trkpt lat="45.914203701540828" lon="7.669304609298706">
        <ele>2856.46</ele>
        <time>2021-07-25T08:52:21Z</time>
      </trkpt>
      <trkpt lat="45.914242258295417" lon="7.669359259307385">
        <ele>2859.0100000000002</ele>
        <time>2021-07-25T08:52:34Z</time>
      </trkpt>
      <trkpt lat="45.91419548727572" lon="7.669457662850618">
        <ele>2861.48</ele>
        <time>2021-07-25T08:52:49Z</time>
      </trkpt>
      <trkpt lat="45.914203450083733" lon="7.669541146606207">
        <ele>2864.5</ele>
        <time>2021-07-25T08:53:03Z</time>
      </trkpt>
      <trkpt lat="45.91420722194016" lon="7.669638795778155">
        <ele>2866.5300000000002</ele>
        <time>2021-07-25T08:53:18Z</time>
      </trkpt>
      <trkpt lat="45.914212670177221" lon="7.669716328382492">
        <ele>2867.29</ele>
        <time>2021-07-25T08:53:31Z</time>
      </trkpt>
      <trkpt lat="45.914238402619958" lon="7.66974214464426">
        <ele>2869.1100000000001</ele>
        <time>2021-07-25T08:53:42Z</time>
      </trkpt>
      <trkpt lat="45.914314091205597" lon="7.669793358072639">
        <ele>2872.3000000000002</ele>
        <time>2021-07-25T08:53:58Z</time>
      </trkpt>
      <trkpt lat="45.914395814761519" lon="7.669877344742417">
        <ele>2874.5700000000002</ele>
        <time>2021-07-25T08:54:15Z</time>
      </trkpt>
      <trkpt lat="45.914477370679379" lon="7.669923026114702">
        <ele>2876.71</ele>
        <time>2021-07-25T08:54:31Z</time>
      </trkpt>
      <trkpt lat="45.9145522210747" lon="7.669995110481978">
        <ele>2877.8400000000001</ele>
        <time>2021-07-25T08:54:48Z</time>
      </trkpt>
      <trkpt lat="45.914533110335469" lon="7.670008102431893">
        <ele>2878.1199999999999</ele>
        <time>2021-07-25T08:55:06Z</time>
      </trkpt>
      <trkpt lat="45.914532607421279" lon="7.670011706650257">
        <ele>2877.6900000000001</ele>
        <time>2021-07-25T08:55:22Z</time>
      </trkpt>
      <trkpt lat="45.914534870535135" lon="7.670013466849923">
        <ele>2878.1300000000001</ele>
        <time>2021-07-25T08:55:43Z</time>
      </trkpt>
      <trkpt lat="45.914535876363516" lon="7.670018244534731">
        <ele>2878.4000000000001</ele>
        <time>2021-07-25T08:55:59Z</time>
      </trkpt>
      <trkpt lat="45.914529422298074" lon="7.670017657801509">
        <ele>2879.0900000000001</ele>
        <time>2021-07-25T08:56:30Z</time>
      </trkpt>
      <trkpt lat="45.914529506117105" lon="7.670024614781141">
        <ele>2878.8699999999999</ele>
        <time>2021-07-25T08:56:50Z</time>
      </trkpt>
      <trkpt lat="45.914531769230962" lon="7.670018076896668">
        <ele>2879</ele>
        <time>2021-07-25T08:57:13Z</time>
      </trkpt>
      <trkpt lat="45.914533110335469" lon="7.670023525133729">
        <ele>2879.3899999999999</ele>
        <time>2021-07-25T08:58:01Z</time>
      </trkpt>
      <trkpt lat="45.914530595764518" lon="7.670014891773462">
        <ele>2880.21</ele>
        <time>2021-07-25T08:58:46Z</time>
      </trkpt>
      <trkpt lat="45.914531769230962" lon="7.670025452971458">
        <ele>2880.8899999999999</ele>
        <time>2021-07-25T08:59:33Z</time>
      </trkpt>
      <trkpt lat="45.914533864706755" lon="7.670014221221209">
        <ele>2881.1300000000001</ele>
        <time>2021-07-25T09:00:17Z</time>
      </trkpt>
      <trkpt lat="45.914534283801913" lon="7.670016987249255">
        <ele>2881.23</ele>
        <time>2021-07-25T09:00:37Z</time>
      </trkpt>
      <trkpt lat="45.914539648219943" lon="7.670022938400507">
        <ele>2881.9400000000001</ele>
        <time>2021-07-25T09:01:16Z</time>
      </trkpt>
      <trkpt lat="45.914540234953165" lon="7.670017573982477">
        <ele>2882.0700000000002</ele>
        <time>2021-07-25T09:01:43Z</time>
      </trkpt>
      <trkpt lat="45.914547359570861" lon="7.670030817389488">
        <ele>2882.5999999999999</ele>
        <time>2021-07-25T09:02:16Z</time>
      </trkpt>
      <trkpt lat="45.914527159184217" lon="7.670018579810858">
        <ele>2882.6100000000001</ele>
        <time>2021-07-25T09:02:53Z</time>
      </trkpt>
      <trkpt lat="45.914526991546154" lon="7.670020842924714">
        <ele>2882.8699999999999</ele>
        <time>2021-07-25T09:03:36Z</time>
      </trkpt>
      <trkpt lat="45.914522297680378" lon="7.670001229271293">
        <ele>2883.4000000000001</ele>
        <time>2021-07-25T09:04:18Z</time>
      </trkpt>
      <trkpt lat="45.91452531516552" lon="7.670000558719039">
        <ele>2882.9499999999998</ele>
        <time>2021-07-25T09:05:03Z</time>
      </trkpt>
      <trkpt lat="45.91453512199223" lon="7.669991673901677">
        <ele>2883.9400000000001</ele>
        <time>2021-07-25T09:05:24Z</time>
      </trkpt>
      <trkpt lat="45.914538893848658" lon="7.670003995299339">
        <ele>2883.75</ele>
        <time>2021-07-25T09:05:40Z</time>
      </trkpt>
      <trkpt lat="45.914538977667689" lon="7.67001673579216">
        <ele>2884.3200000000002</ele>
        <time>2021-07-25T09:05:59Z</time>
      </trkpt>
      <trkpt lat="45.91455515474081" lon="7.670001816004515">
        <ele>2884.2600000000002</ele>
        <time>2021-07-25T09:06:10Z</time>
      </trkpt>
      <trkpt lat="45.914590526372194" lon="7.669962337240577">
        <ele>2884.52</ele>
        <time>2021-07-25T09:06:21Z</time>
      </trkpt>
      <trkpt lat="45.914545096457005" lon="7.670009024441242">
        <ele>2884.27</ele>
        <time>2021-07-25T09:06:31Z</time>
      </trkpt>
      <trkpt lat="45.91453512199223" lon="7.670021010562778">
        <ele>2885.0100000000002</ele>
        <time>2021-07-25T09:06:33Z</time>
      </trkpt>
      <trkpt lat="45.914551466703415" lon="7.670012461021543">
        <ele>2884.4200000000001</ele>
        <time>2021-07-25T09:06:41Z</time>
      </trkpt>
      <trkpt lat="45.914670908823609" lon="7.669971808791161">
        <ele>2886.1500000000001</ele>
        <time>2021-07-25T09:06:56Z</time>
      </trkpt>
      <trkpt lat="45.914767887443304" lon="7.669961331412196">
        <ele>2888.6900000000001</ele>
        <time>2021-07-25T09:07:11Z</time>
      </trkpt>
      <trkpt lat="45.914839385077357" lon="7.669972982257605">
        <ele>2891.6799999999998</ele>
        <time>2021-07-25T09:07:25Z</time>
      </trkpt>
      <trkpt lat="45.914881126955152" lon="7.669949093833566">
        <ele>2894.2199999999998</ele>
        <time>2021-07-25T09:07:38Z</time>
      </trkpt>
      <trkpt lat="45.914921695366502" lon="7.669950686395168">
        <ele>2897.0999999999999</ele>
        <time>2021-07-25T09:07:52Z</time>
      </trkpt>
      <trkpt lat="45.914978021755815" lon="7.669950351119041">
        <ele>2899.5799999999999</ele>
        <time>2021-07-25T09:08:07Z</time>
      </trkpt>
      <trkpt lat="45.915004592388868" lon="7.669976335018873">
        <ele>2901.8600000000001</ele>
        <time>2021-07-25T09:08:19Z</time>
      </trkpt>
      <trkpt lat="45.91503837145865" lon="7.670026794075966">
        <ele>2904.46</ele>
        <time>2021-07-25T09:08:33Z</time>
      </trkpt>
      <trkpt lat="45.915070809423923" lon="7.670051604509354">
        <ele>2906.73</ele>
        <time>2021-07-25T09:08:47Z</time>
      </trkpt>
      <trkpt lat="45.915089752525091" lon="7.670124107971788">
        <ele>2909.5500000000002</ele>
        <time>2021-07-25T09:09:03Z</time>
      </trkpt>
      <trkpt lat="45.915114898234606" lon="7.67018630169332">
        <ele>2912.5</ele>
        <time>2021-07-25T09:09:21Z</time>
      </trkpt>
      <trkpt lat="45.915155634284019" lon="7.670244388282299">
        <ele>2915.3200000000002</ele>
        <time>2021-07-25T09:09:37Z</time>
      </trkpt>
      <trkpt lat="45.91520207002759" lon="7.670278921723366">
        <ele>2918.3200000000002</ele>
        <time>2021-07-25T09:09:54Z</time>
      </trkpt>
      <trkpt lat="45.915203914046288" lon="7.670356957241893">
        <ele>2921.0300000000002</ele>
        <time>2021-07-25T09:10:10Z</time>
      </trkpt>
      <trkpt lat="45.915214391425252" lon="7.670441949740052">
        <ele>2924.0500000000002</ele>
        <time>2021-07-25T09:10:26Z</time>
      </trkpt>
      <trkpt lat="45.915217492729425" lon="7.67049903050065">
        <ele>2925.6199999999999</ele>
        <time>2021-07-25T09:10:43Z</time>
      </trkpt>
      <trkpt lat="45.915218247100711" lon="7.670511268079281">
        <ele>2925.5500000000002</ele>
        <time>2021-07-25T09:11:00Z</time>
      </trkpt>
      <trkpt lat="45.915210200473666" lon="7.670508585870266">
        <ele>2925.9499999999998</ele>
        <time>2021-07-25T09:11:26Z</time>
      </trkpt>
      <trkpt lat="45.915203327313066" lon="7.670506490394473">
        <ele>2926.0300000000002</ele>
        <time>2021-07-25T09:11:53Z</time>
      </trkpt>
      <trkpt lat="45.91520793735981" lon="7.670503808185458">
        <ele>2925.5700000000002</ele>
        <time>2021-07-25T09:12:16Z</time>
      </trkpt>
      <trkpt lat="45.9152015671134" lon="7.670497940853238">
        <ele>2926.1700000000001</ele>
        <time>2021-07-25T09:12:39Z</time>
      </trkpt>
      <trkpt lat="45.915203997865319" lon="7.670502047985792">
        <ele>2925.6300000000001</ele>
        <time>2021-07-25T09:13:01Z</time>
      </trkpt>
      <trkpt lat="45.915203494951129" lon="7.670503053814173">
        <ele>2926.3899999999999</ele>
        <time>2021-07-25T09:13:33Z</time>
      </trkpt>
      <trkpt lat="45.915202824398875" lon="7.670500203967094">
        <ele>2922.0599999999999</ele>
        <time>2021-07-25T09:13:40Z</time>
      </trkpt>
      <trkpt lat="45.915202908217907" lon="7.670499952509999">
        <ele>2923.5799999999999</ele>
        <time>2021-07-25T09:13:41Z</time>
      </trkpt>
      <trkpt lat="45.91520307585597" lon="7.670500120148063">
        <ele>2926.75</ele>
        <time>2021-07-25T09:13:44Z</time>
      </trkpt>
      <trkpt lat="45.915204668417573" lon="7.670499784871936">
        <ele>2930.4299999999998</ele>
        <time>2021-07-25T09:13:48Z</time>
      </trkpt>
      <trkpt lat="45.915204836055636" lon="7.670499617233872">
        <ele>2928.73</ele>
        <time>2021-07-25T09:13:49Z</time>
      </trkpt>
      <trkpt lat="45.915205255150795" lon="7.670498779043555">
        <ele>2926.77</ele>
        <time>2021-07-25T09:13:52Z</time>
      </trkpt>
      <trkpt lat="45.915215061977506" lon="7.670498695224524">
        <ele>2927.0500000000002</ele>
        <time>2021-07-25T09:14:06Z</time>
      </trkpt>
      <trkpt lat="45.915218414738774" lon="7.670502969995141">
        <ele>2926.71</ele>
        <time>2021-07-25T09:14:29Z</time>
      </trkpt>
      <trkpt lat="45.915231071412563" lon="7.670494755730033">
        <ele>2927.3200000000002</ele>
        <time>2021-07-25T09:15:04Z</time>
      </trkpt>
      <trkpt lat="45.915274992585182" lon="7.670535491779447">
        <ele>2929.6300000000001</ele>
        <time>2021-07-25T09:15:24Z</time>
      </trkpt>
      <trkpt lat="45.915330816060305" lon="7.670573964715004">
        <ele>2931.9099999999999</ele>
        <time>2021-07-25T09:15:39Z</time>
      </trkpt>
      <trkpt lat="45.915373228490353" lon="7.670629704371095">
        <ele>2935.0700000000002</ele>
        <time>2021-07-25T09:15:54Z</time>
      </trkpt>
      <trkpt lat="45.915397703647614" lon="7.670670188963413">
        <ele>2938.0700000000002</ele>
        <time>2021-07-25T09:16:06Z</time>
      </trkpt>
      <trkpt lat="45.915424022823572" lon="7.670730371028185">
        <ele>2941.1799999999998</ele>
        <time>2021-07-25T09:16:21Z</time>
      </trkpt>
      <trkpt lat="45.915442882105708" lon="7.67076482065022">
        <ele>2943.3200000000002</ele>
        <time>2021-07-25T09:16:33Z</time>
      </trkpt>
      <trkpt lat="45.915473140776157" lon="7.670768173411489">
        <ele>2945.0799999999999</ele>
        <time>2021-07-25T09:16:46Z</time>
      </trkpt>
      <trkpt lat="45.915507590398192" lon="7.670758282765746">
        <ele>2947.7199999999998</ele>
        <time>2021-07-25T09:16:59Z</time>
      </trkpt>
      <trkpt lat="45.915522845461965" lon="7.670801281929016">
        <ele>2948.8899999999999</ele>
        <time>2021-07-25T09:17:12Z</time>
      </trkpt>
      <trkpt lat="45.915551595389843" lon="7.670798851177096">
        <ele>2951.3800000000001</ele>
        <time>2021-07-25T09:17:24Z</time>
      </trkpt>
      <trkpt lat="45.915584284812212" lon="7.670855931937695">
        <ele>2953.8800000000001</ele>
        <time>2021-07-25T09:17:37Z</time>
      </trkpt>
      <trkpt lat="45.915603395551443" lon="7.670867750421166">
        <ele>2955.6399999999999</ele>
        <time>2021-07-25T09:17:48Z</time>
      </trkpt>
      <trkpt lat="45.915629044175148" lon="7.670890130102634">
        <ele>2958.29</ele>
        <time>2021-07-25T09:18:02Z</time>
      </trkpt>
      <trkpt lat="45.915655614808202" lon="7.670904295518994">
        <ele>2960.5900000000001</ele>
        <time>2021-07-25T09:18:14Z</time>
      </trkpt>
      <trkpt lat="45.91567606665194" lon="7.67092022113502">
        <ele>2962.7399999999998</ele>
        <time>2021-07-25T09:18:25Z</time>
      </trkpt>
      <trkpt lat="45.915699284523726" lon="7.670936398208141">
        <ele>2964.6999999999998</ele>
        <time>2021-07-25T09:18:37Z</time>
      </trkpt>
      <trkpt lat="45.915739852935076" lon="7.67089675180614">
        <ele>2967.46</ele>
        <time>2021-07-25T09:18:53Z</time>
      </trkpt>
      <trkpt lat="45.915785618126392" lon="7.6708625536412">
        <ele>2970.2199999999998</ele>
        <time>2021-07-25T09:19:07Z</time>
      </trkpt>
      <trkpt lat="45.915818894281983" lon="7.670888705179095">
        <ele>2972.54</ele>
        <time>2021-07-25T09:19:19Z</time>
      </trkpt>
      <trkpt lat="45.91584462672472" lon="7.670920304954052">
        <ele>2974.5100000000002</ele>
        <time>2021-07-25T09:19:31Z</time>
      </trkpt>
      <trkpt lat="45.915869353339076" lon="7.6709627173841">
        <ele>2976.29</ele>
        <time>2021-07-25T09:19:43Z</time>
      </trkpt>
      <trkpt lat="45.915894499048591" lon="7.670983923599124">
        <ele>2978.04</ele>
        <time>2021-07-25T09:19:54Z</time>
      </trkpt>
      <trkpt lat="45.915920650586486" lon="7.671000687405467">
        <ele>2980.0100000000002</ele>
        <time>2021-07-25T09:20:06Z</time>
      </trkpt>
      <trkpt lat="45.915941689163446" lon="7.671030024066567">
        <ele>2981.5</ele>
        <time>2021-07-25T09:20:17Z</time>
      </trkpt>
      <trkpt lat="45.915967840701342" lon="7.671061540022492">
        <ele>2983.8600000000001</ele>
        <time>2021-07-25T09:20:30Z</time>
      </trkpt>
      <trkpt lat="45.915978401899338" lon="7.671102276071906">
        <ele>2984.9200000000001</ele>
        <time>2021-07-25T09:20:41Z</time>
      </trkpt>
      <trkpt lat="45.915965745225549" lon="7.671135636046529">
        <ele>2985.3600000000001</ele>
        <time>2021-07-25T09:20:51Z</time>
      </trkpt>
      <trkpt lat="45.915965912863612" lon="7.671143850311637">
        <ele>2985.8600000000001</ele>
        <time>2021-07-25T09:21:09Z</time>
      </trkpt>
      <trkpt lat="45.915989968925714" lon="7.671200009062886">
        <ele>2988.54</ele>
        <time>2021-07-25T09:21:24Z</time>
      </trkpt>
      <trkpt lat="45.916001703590155" lon="7.671244768425822">
        <ele>2991.6900000000001</ele>
        <time>2021-07-25T09:21:36Z</time>
      </trkpt>
      <trkpt lat="45.916009750217199" lon="7.671242253854871">
        <ele>2992.6999999999998</ele>
        <time>2021-07-25T09:21:49Z</time>
      </trkpt>
      <trkpt lat="45.916009247303009" lon="7.671245355159044">
        <ele>2991.0100000000002</ele>
        <time>2021-07-25T09:21:58Z</time>
      </trkpt>
      <trkpt lat="45.916010839864612" lon="7.671251138672233">
        <ele>2992.5</ele>
        <time>2021-07-25T09:22:01Z</time>
      </trkpt>
      <trkpt lat="45.916014527902007" lon="7.671294640749693">
        <ele>2993.75</ele>
        <time>2021-07-25T09:22:16Z</time>
      </trkpt>
      <trkpt lat="45.916030202060938" lon="7.671324647963047">
        <ele>2995.7600000000002</ele>
        <time>2021-07-25T09:22:26Z</time>
      </trkpt>
      <trkpt lat="45.9160425234586" lon="7.671351721510291">
        <ele>2997.6900000000001</ele>
        <time>2021-07-25T09:22:39Z</time>
      </trkpt>
      <trkpt lat="45.916075548157096" lon="7.67138441093266">
        <ele>2999.46</ele>
        <time>2021-07-25T09:22:55Z</time>
      </trkpt>
      <trkpt lat="45.916089881211519" lon="7.671393128111959">
        <ele>2999.6599999999999</ele>
        <time>2021-07-25T09:23:08Z</time>
      </trkpt>
      <trkpt lat="45.916106896474957" lon="7.671411903575063">
        <ele>3000.8800000000001</ele>
        <time>2021-07-25T09:23:21Z</time>
      </trkpt>
      <trkpt lat="45.916077140718699" lon="7.671411819756031">
        <ele>3000.5</ele>
        <time>2021-07-25T09:23:40Z</time>
      </trkpt>
      <trkpt lat="45.916052497923374" lon="7.671431098133326">
        <ele>3002.1100000000001</ele>
        <time>2021-07-25T09:23:54Z</time>
      </trkpt>
      <trkpt lat="45.916056856513023" lon="7.671423638239503">
        <ele>3002.4099999999999</ele>
        <time>2021-07-25T09:24:13Z</time>
      </trkpt>
      <trkpt lat="45.916078146547079" lon="7.671485664322972">
        <ele>3004.3800000000001</ele>
        <time>2021-07-25T09:24:25Z</time>
      </trkpt>
      <trkpt lat="45.916117122396827" lon="7.671525478363037">
        <ele>3005.8499999999999</ele>
        <time>2021-07-25T09:24:42Z</time>
      </trkpt>
      <trkpt lat="45.916184596717358" lon="7.671551462262869">
        <ele>3008.48</ele>
        <time>2021-07-25T09:24:57Z</time>
      </trkpt>
      <trkpt lat="45.916215190663934" lon="7.671586247161031">
        <ele>3010.54</ele>
        <time>2021-07-25T09:25:08Z</time>
      </trkpt>
      <trkpt lat="45.916275875642896" lon="7.671616924926639">
        <ele>3012.6799999999998</ele>
        <time>2021-07-25T09:25:25Z</time>
      </trkpt>
      <trkpt lat="45.916267912834883" lon="7.671637628227472">
        <ele>3014.0700000000002</ele>
        <time>2021-07-25T09:25:38Z</time>
      </trkpt>
      <trkpt lat="45.916263638064265" lon="7.671637712046504">
        <ele>3014.6100000000001</ele>
        <time>2021-07-25T09:26:02Z</time>
      </trkpt>
      <trkpt lat="45.916261123493314" lon="7.671628911048174">
        <ele>3014.5999999999999</ele>
        <time>2021-07-25T09:26:25Z</time>
      </trkpt>
      <trkpt lat="45.91624042019248" lon="7.671654308214784">
        <ele>3016.5100000000002</ele>
        <time>2021-07-25T09:26:49Z</time>
      </trkpt>
      <trkpt lat="45.916245533153415" lon="7.671666964888573">
        <ele>3016.4099999999999</ele>
        <time>2021-07-25T09:27:12Z</time>
      </trkpt>
      <trkpt lat="45.916246538981795" lon="7.67168146558106">
        <ele>3017.27</ele>
        <time>2021-07-25T09:27:33Z</time>
      </trkpt>
      <trkpt lat="45.9162428509444" lon="7.671676017343998">
        <ele>3016.7199999999998</ele>
        <time>2021-07-25T09:27:46Z</time>
      </trkpt>
      <trkpt lat="45.916233295574784" lon="7.67168540507555">
        <ele>3016.7199999999998</ele>
        <time>2021-07-25T09:28:07Z</time>
      </trkpt>
      <trkpt lat="45.916227763518691" lon="7.671724632382393">
        <ele>3018.0799999999999</ele>
        <time>2021-07-25T09:28:21Z</time>
      </trkpt>
      <trkpt lat="45.916231283918023" lon="7.671766374260187">
        <ele>3020.5999999999999</ele>
        <time>2021-07-25T09:28:33Z</time>
      </trkpt>
      <trkpt lat="45.916256010532379" lon="7.671821443364024">
        <ele>3023.3499999999999</ele>
        <time>2021-07-25T09:28:47Z</time>
      </trkpt>
      <trkpt lat="45.916258692741394" lon="7.671909537166357">
        <ele>3025.8400000000001</ele>
        <time>2021-07-25T09:29:04Z</time>
      </trkpt>
      <trkpt lat="45.916266152635217" lon="7.671984639018774">
        <ele>3028.6500000000001</ele>
        <time>2021-07-25T09:29:20Z</time>
      </trkpt>
      <trkpt lat="45.91627512127161" lon="7.672024955973029">
        <ele>3030.6599999999999</ele>
        <time>2021-07-25T09:29:33Z</time>
      </trkpt>
      <trkpt lat="45.916297417134047" lon="7.672059070318937">
        <ele>3032.1599999999999</ele>
        <time>2021-07-25T09:29:45Z</time>
      </trkpt>
      <trkpt lat="45.916323065757751" lon="7.672099722549319">
        <ele>3034.21</ele>
        <time>2021-07-25T09:29:59Z</time>
      </trkpt>
      <trkpt lat="45.916339075192809" lon="7.67211589962244">
        <ele>3035.6300000000001</ele>
        <time>2021-07-25T09:30:13Z</time>
      </trkpt>
      <trkpt lat="45.916351983323693" lon="7.67214473336935">
        <ele>3036.1399999999999</ele>
        <time>2021-07-25T09:30:25Z</time>
      </trkpt>
      <trkpt lat="45.916337482631207" lon="7.672220254316926">
        <ele>3039.29</ele>
        <time>2021-07-25T09:30:39Z</time>
      </trkpt>
      <trkpt lat="45.916302697733045" lon="7.672281442210078">
        <ele>3040.1700000000001</ele>
        <time>2021-07-25T09:30:50Z</time>
      </trkpt>
      <trkpt lat="45.916310995817184" lon="7.672339109703898">
        <ele>3041.7399999999998</ele>
        <time>2021-07-25T09:31:03Z</time>
      </trkpt>
      <trkpt lat="45.916322479024529" lon="7.672381857410073">
        <ele>3044.7800000000002</ele>
        <time>2021-07-25T09:31:16Z</time>
      </trkpt>
      <trkpt lat="45.916305212303996" lon="7.672460647299886">
        <ele>3046.3299999999999</ele>
        <time>2021-07-25T09:31:28Z</time>
      </trkpt>
      <trkpt lat="45.916269505396485" lon="7.672572378069162">
        <ele>3045.8299999999999</ele>
        <time>2021-07-25T09:31:42Z</time>
      </trkpt>
      <trkpt lat="45.916212592273951" lon="7.672626608982682">
        <ele>3045.4400000000001</ele>
        <time>2021-07-25T09:31:55Z</time>
      </trkpt>
      <trkpt lat="45.916152410209179" lon="7.672681510448456">
        <ele>3043.25</ele>
        <time>2021-07-25T09:32:10Z</time>
      </trkpt>
      <trkpt lat="45.916121564805508" lon="7.672707075253129">
        <ele>3043.46</ele>
        <time>2021-07-25T09:32:23Z</time>
      </trkpt>
      <trkpt lat="45.916117038577795" lon="7.672702465206385">
        <ele>3043.3000000000002</ele>
        <time>2021-07-25T09:32:42Z</time>
      </trkpt>
      <trkpt lat="45.916117541491985" lon="7.672696178779006">
        <ele>3043.5</ele>
        <time>2021-07-25T09:33:06Z</time>
      </trkpt>
      <trkpt lat="45.916113685816526" lon="7.672708835452795">
        <ele>3043.3000000000002</ele>
        <time>2021-07-25T09:33:28Z</time>
      </trkpt>
      <trkpt lat="45.916106728836894" lon="7.67270615324378">
        <ele>3043.5700000000002</ele>
        <time>2021-07-25T09:33:50Z</time>
      </trkpt>
      <trkpt lat="45.916105723008513" lon="7.672714199870825">
        <ele>3043.7600000000002</ele>
        <time>2021-07-25T09:34:11Z</time>
      </trkpt>
      <trkpt lat="45.91611041687429" lon="7.672716965898871">
        <ele>3043.2600000000002</ele>
        <time>2021-07-25T09:34:38Z</time>
      </trkpt>
      <trkpt lat="45.916107818484306" lon="7.672716462984681">
        <ele>3044.5300000000002</ele>
        <time>2021-07-25T09:34:48Z</time>
      </trkpt>
      <trkpt lat="45.916105471551418" lon="7.67272274941206">
        <ele>3044.7199999999998</ele>
        <time>2021-07-25T09:35:02Z</time>
      </trkpt>
      <trkpt lat="45.916099017485976" lon="7.672730544582009">
        <ele>3044.6599999999999</ele>
        <time>2021-07-25T09:35:21Z</time>
      </trkpt>
      <trkpt lat="45.916088540107012" lon="7.672753175720573">
        <ele>3044.8200000000002</ele>
        <time>2021-07-25T09:35:38Z</time>
      </trkpt>
      <trkpt lat="45.916022574529052" lon="7.672842275351286">
        <ele>3044.9299999999998</ele>
        <time>2021-07-25T09:35:52Z</time>
      </trkpt>
      <trkpt lat="45.915998853743076" lon="7.672863397747278">
        <ele>3044.8400000000001</ele>
        <time>2021-07-25T09:35:57Z</time>
      </trkpt>
      <trkpt lat="45.915928529575467" lon="7.672950820997357">
        <ele>3045.3299999999999</ele>
        <time>2021-07-25T09:36:11Z</time>
      </trkpt>
      <trkpt lat="45.915885781869292" lon="7.673058109357953">
        <ele>3046.4299999999998</ele>
        <time>2021-07-25T09:36:25Z</time>
      </trkpt>
      <trkpt lat="45.915840435773134" lon="7.673180736601353">
        <ele>3046.6100000000001</ele>
        <time>2021-07-25T09:36:39Z</time>
      </trkpt>
      <trkpt lat="45.915837502107024" lon="7.673258604481816">
        <ele>3047.9699999999998</ele>
        <time>2021-07-25T09:36:51Z</time>
      </trkpt>
      <trkpt lat="45.915836999192834" lon="7.673323815688491">
        <ele>3049.9299999999998</ele>
        <time>2021-07-25T09:37:01Z</time>
      </trkpt>
      <trkpt lat="45.915823169052601" lon="7.673424649983645">
        <ele>3050.2399999999998</ele>
        <time>2021-07-25T09:37:12Z</time>
      </trkpt>
      <trkpt lat="45.915807746350765" lon="7.673518946394324">
        <ele>3051.5300000000002</ele>
        <time>2021-07-25T09:37:26Z</time>
      </trkpt>
      <trkpt lat="45.915821995586157" lon="7.673594383522868">
        <ele>3053.8299999999999</ele>
        <time>2021-07-25T09:37:39Z</time>
      </trkpt>
      <trkpt lat="45.915827443823218" lon="7.673659846186638">
        <ele>3055.7199999999998</ele>
        <time>2021-07-25T09:37:53Z</time>
      </trkpt>
      <trkpt lat="45.915839094668627" lon="7.673731343820691">
        <ele>3058.3600000000001</ele>
        <time>2021-07-25T09:38:08Z</time>
      </trkpt>
      <trkpt lat="45.915853343904018" lon="7.673770319670439">
        <ele>3060.2199999999998</ele>
        <time>2021-07-25T09:38:21Z</time>
      </trkpt>
      <trkpt lat="45.915880417451262" lon="7.673795884475112">
        <ele>3062.8600000000001</ele>
        <time>2021-07-25T09:38:33Z</time>
      </trkpt>
      <trkpt lat="45.915874131023884" lon="7.673856234177947">
        <ele>3064.23</ele>
        <time>2021-07-25T09:38:44Z</time>
      </trkpt>
      <trkpt lat="45.915857367217541" lon="7.673892611637712">
        <ele>3065.1999999999998</ele>
        <time>2021-07-25T09:38:50Z</time>
      </trkpt>
      <trkpt lat="45.915818642824888" lon="7.673952206969261">
        <ele>3066.4099999999999</ele>
        <time>2021-07-25T09:39:00Z</time>
      </trkpt>
      <trkpt lat="45.915819564834237" lon="7.673994284123182">
        <ele>3066.9299999999998</ele>
        <time>2021-07-25T09:39:08Z</time>
      </trkpt>
      <trkpt lat="45.915788132697344" lon="7.674060668796301">
        <ele>3067.6500000000001</ele>
        <time>2021-07-25T09:39:23Z</time>
      </trkpt>
      <trkpt lat="45.915779666975141" lon="7.6740537956357">
        <ele>3067.6799999999998</ele>
        <time>2021-07-25T09:39:35Z</time>
      </trkpt>
      <trkpt lat="45.915776398032904" lon="7.674050945788622">
        <ele>3067.9499999999998</ele>
        <time>2021-07-25T09:39:48Z</time>
      </trkpt>
      <trkpt lat="45.915773632004857" lon="7.674043653532863">
        <ele>3067.8299999999999</ele>
        <time>2021-07-25T09:40:00Z</time>
      </trkpt>
      <trkpt lat="45.915769189596176" lon="7.674042815342546">
        <ele>3067.5999999999999</ele>
        <time>2021-07-25T09:40:19Z</time>
      </trkpt>
      <trkpt lat="45.915768770501018" lon="7.674041809514165">
        <ele>3060.6799999999998</ele>
        <time>2021-07-25T09:40:20Z</time>
      </trkpt>
      <trkpt lat="45.915768351405859" lon="7.67404155805707">
        <ele>3060.6900000000001</ele>
        <time>2021-07-25T09:40:21Z</time>
      </trkpt>
      <trkpt lat="45.915766675025225" lon="7.67404155805707">
        <ele>3067.9899999999998</ele>
        <time>2021-07-25T09:40:32Z</time>
      </trkpt>
      <trkpt lat="45.915766339749098" lon="7.67404155805707">
        <ele>3065.96</ele>
        <time>2021-07-25T09:40:33Z</time>
      </trkpt>
      <trkpt lat="45.915764747187495" lon="7.674037702381611">
        <ele>3067.7199999999998</ele>
        <time>2021-07-25T09:40:42Z</time>
      </trkpt>
      <trkpt lat="45.915763825178146" lon="7.674034601077437">
        <ele>3067.4200000000001</ele>
        <time>2021-07-25T09:40:57Z</time>
      </trkpt>
      <trkpt lat="45.915761226788163" lon="7.674036109820008">
        <ele>3067.8000000000002</ele>
        <time>2021-07-25T09:41:17Z</time>
      </trkpt>
      <trkpt lat="45.915756365284324" lon="7.674039378762245">
        <ele>3067.52</ele>
        <time>2021-07-25T09:41:53Z</time>
      </trkpt>
      <trkpt lat="45.915758712217212" lon="7.67403569072485">
        <ele>3067.46</ele>
        <time>2021-07-25T09:42:18Z</time>
      </trkpt>
      <trkpt lat="45.915763154625893" lon="7.674043234437704">
        <ele>3067.9499999999998</ele>
        <time>2021-07-25T09:42:37Z</time>
      </trkpt>
      <trkpt lat="45.915724011138082" lon="7.674125712364912">
        <ele>3068.3200000000002</ele>
        <time>2021-07-25T09:42:50Z</time>
      </trkpt>
      <trkpt lat="45.91570146381855" lon="7.67421305179596">
        <ele>3071.3600000000001</ele>
        <time>2021-07-25T09:43:05Z</time>
      </trkpt>
      <trkpt lat="45.915670618414879" lon="7.674292093142867">
        <ele>3073.6300000000001</ele>
        <time>2021-07-25T09:43:18Z</time>
      </trkpt>
      <trkpt lat="45.915652848780155" lon="7.674358896911144">
        <ele>3073.2600000000002</ele>
        <time>2021-07-25T09:43:28Z</time>
      </trkpt>
      <trkpt lat="45.915640275925398" lon="7.67436652444303">
        <ele>3073.9099999999999</ele>
        <time>2021-07-25T09:43:41Z</time>
      </trkpt>
      <trkpt lat="45.915616387501359" lon="7.67442075535655">
        <ele>3074.7800000000002</ele>
        <time>2021-07-25T09:43:55Z</time>
      </trkpt>
      <trkpt lat="45.915582608431578" lon="7.674471884965897">
        <ele>3075.6300000000001</ele>
        <time>2021-07-25T09:44:05Z</time>
      </trkpt>
      <trkpt lat="45.915565090253949" lon="7.67449795268476">
        <ele>3076.5</ele>
        <time>2021-07-25T09:44:13Z</time>
      </trkpt>
      <trkpt lat="45.915519408881664" lon="7.674556123092771">
        <ele>3077.5599999999999</ele>
        <time>2021-07-25T09:44:25Z</time>
      </trkpt>
      <trkpt lat="45.915499459952116" lon="7.674559643492103">
        <ele>3077.4499999999998</ele>
        <time>2021-07-25T09:44:38Z</time>
      </trkpt>
      <trkpt lat="45.915490323677659" lon="7.674591075628996">
        <ele>3078.0799999999999</ele>
        <time>2021-07-25T09:44:53Z</time>
      </trkpt>
      <trkpt lat="45.915451012551785" lon="7.674716049805284">
        <ele>3079.8400000000001</ele>
        <time>2021-07-25T09:45:10Z</time>
      </trkpt>
      <trkpt lat="45.915425112470984" lon="7.674819314852357">
        <ele>3081.6300000000001</ele>
        <time>2021-07-25T09:45:25Z</time>
      </trkpt>
      <trkpt lat="45.915383538231254" lon="7.674890644848347">
        <ele>3083.8800000000001</ele>
        <time>2021-07-25T09:45:38Z</time>
      </trkpt>
      <trkpt lat="45.915305502712727" lon="7.674921322613955">
        <ele>3086.1100000000001</ele>
        <time>2021-07-25T09:45:53Z</time>
      </trkpt>
      <trkpt lat="45.915232580155134" lon="7.674972536042333">
        <ele>3088.4899999999998</ele>
        <time>2021-07-25T09:46:11Z</time>
      </trkpt>
      <trkpt lat="45.915134930983186" lon="7.674997262656689">
        <ele>3089.9200000000001</ele>
        <time>2021-07-25T09:46:28Z</time>
      </trkpt>
      <trkpt lat="45.915101151913404" lon="7.675058953464031">
        <ele>3092.0900000000001</ele>
        <time>2021-07-25T09:46:41Z</time>
      </trkpt>
      <trkpt lat="45.915032168850303" lon="7.675120225176215">
        <ele>3093.8899999999999</ele>
        <time>2021-07-25T09:46:56Z</time>
      </trkpt>
      <trkpt lat="45.914981793612242" lon="7.675163056701422">
        <ele>3095.2600000000002</ele>
        <time>2021-07-25T09:47:09Z</time>
      </trkpt>
      <trkpt lat="45.914916917681694" lon="7.675186945125461">
        <ele>3097.25</ele>
        <time>2021-07-25T09:47:24Z</time>
      </trkpt>
      <trkpt lat="45.914884228259325" lon="7.675224663689733">
        <ele>3099.1999999999998</ele>
        <time>2021-07-25T09:47:37Z</time>
      </trkpt>
      <trkpt lat="45.914837205782533" lon="7.675267159938812">
        <ele>3100.5999999999999</ele>
        <time>2021-07-25T09:47:49Z</time>
      </trkpt>
      <trkpt lat="45.914795463904738" lon="7.67530026845634">
        <ele>3103.1999999999998</ele>
        <time>2021-07-25T09:48:01Z</time>
      </trkpt>
      <trkpt lat="45.914777526631951" lon="7.675335388630629">
        <ele>3104.5500000000002</ele>
        <time>2021-07-25T09:48:11Z</time>
      </trkpt>
      <trkpt lat="45.914777107536793" lon="7.675371514633298">
        <ele>3105.73</ele>
        <time>2021-07-25T09:48:19Z</time>
      </trkpt>
      <trkpt lat="45.914766043424606" lon="7.675396157428622">
        <ele>3106.52</ele>
        <time>2021-07-25T09:48:26Z</time>
      </trkpt>
      <trkpt lat="45.914783729240298" lon="7.675428092479706">
        <ele>3107.8200000000002</ele>
        <time>2021-07-25T09:48:38Z</time>
      </trkpt>
      <trkpt lat="45.914773922413588" lon="7.675429349765182">
        <ele>3107.9899999999998</ele>
        <time>2021-07-25T09:48:50Z</time>
      </trkpt>
      <trkpt lat="45.914779035374522" lon="7.67542876303196">
        <ele>3107.9499999999998</ele>
        <time>2021-07-25T09:49:01Z</time>
      </trkpt>
      <trkpt lat="45.914778532460332" lon="7.675425577908754">
        <ele>3107.5300000000002</ele>
        <time>2021-07-25T09:49:11Z</time>
      </trkpt>
      <trkpt lat="45.914778113365173" lon="7.675426164641976">
        <ele>3108.1599999999999</ele>
        <time>2021-07-25T09:49:25Z</time>
      </trkpt>
      <trkpt lat="45.914774006232619" lon="7.675478467717767">
        <ele>3109.4699999999998</ele>
        <time>2021-07-25T09:49:35Z</time>
      </trkpt>
      <trkpt lat="45.914802253246307" lon="7.675509816035628">
        <ele>3111.0599999999999</ele>
        <time>2021-07-25T09:49:42Z</time>
      </trkpt>
      <trkpt lat="45.914826476946473" lon="7.675561364740133">
        <ele>3113.23</ele>
        <time>2021-07-25T09:49:51Z</time>
      </trkpt>
      <trkpt lat="45.914793787524104" lon="7.675613835453987">
        <ele>3114.27</ele>
        <time>2021-07-25T09:49:58Z</time>
      </trkpt>
      <trkpt lat="45.91475548222661" lon="7.67563546076417">
        <ele>3115.8000000000002</ele>
        <time>2021-07-25T09:50:07Z</time>
      </trkpt>
      <trkpt lat="45.914697898551822" lon="7.675656247884035">
        <ele>3117.96</ele>
        <time>2021-07-25T09:50:19Z</time>
      </trkpt>
      <trkpt lat="45.914638973772526" lon="7.675711736083031">
        <ele>3120.6700000000001</ele>
        <time>2021-07-25T09:50:37Z</time>
      </trkpt>
      <trkpt lat="45.914592789486051" lon="7.675743922591209">
        <ele>3122.8600000000001</ele>
        <time>2021-07-25T09:50:53Z</time>
      </trkpt>
      <trkpt lat="45.914562866091728" lon="7.675786921754479">
        <ele>3124.8699999999999</ele>
        <time>2021-07-25T09:51:06Z</time>
      </trkpt>
      <trkpt lat="45.914531517773867" lon="7.675837213173509">
        <ele>3126.5900000000001</ele>
        <time>2021-07-25T09:51:20Z</time>
      </trkpt>
      <trkpt lat="45.914507796987891" lon="7.675879206508398">
        <ele>3128.7199999999998</ele>
        <time>2021-07-25T09:51:37Z</time>
      </trkpt>
      <trkpt lat="45.914515424519777" lon="7.675960762426257">
        <ele>3130.73</ele>
        <time>2021-07-25T09:51:55Z</time>
      </trkpt>
      <trkpt lat="45.914470162242651" lon="7.675984147936106">
        <ele>3132.3299999999999</ele>
        <time>2021-07-25T09:52:09Z</time>
      </trkpt>
      <trkpt lat="45.914409225806594" lon="7.67603226006031">
        <ele>3134.3299999999999</ele>
        <time>2021-07-25T09:52:26Z</time>
      </trkpt>
      <trkpt lat="45.914367400109768" lon="7.676077857613564">
        <ele>3136.54</ele>
        <time>2021-07-25T09:52:40Z</time>
      </trkpt>
      <trkpt lat="45.914351139217615" lon="7.676104260608554">
        <ele>3137.8200000000002</ele>
        <time>2021-07-25T09:52:54Z</time>
      </trkpt>
      <trkpt lat="45.914351223036647" lon="7.676124796271324">
        <ele>3137.77</ele>
        <time>2021-07-25T09:53:13Z</time>
      </trkpt>
      <trkpt lat="45.914355916902423" lon="7.676163101568818">
        <ele>3139.5900000000001</ele>
        <time>2021-07-25T09:53:25Z</time>
      </trkpt>
      <trkpt lat="45.914341667667031" lon="7.676172656938434">
        <ele>3139.77</ele>
        <time>2021-07-25T09:53:39Z</time>
      </trkpt>
      <trkpt lat="45.914335465058684" lon="7.676178859546781">
        <ele>3139.3600000000001</ele>
        <time>2021-07-25T09:53:56Z</time>
      </trkpt>
      <trkpt lat="45.914329513907433" lon="7.676193946972489">
        <ele>3139.71</ele>
        <time>2021-07-25T09:54:40Z</time>
      </trkpt>
      <trkpt lat="45.914327669888735" lon="7.676195288076997">
        <ele>3139.7800000000002</ele>
        <time>2021-07-25T09:54:54Z</time>
      </trkpt>
      <trkpt lat="45.914318282157183" lon="7.676193024963141">
        <ele>3139.77</ele>
        <time>2021-07-25T09:55:22Z</time>
      </trkpt>
      <trkpt lat="45.914316102862358" lon="7.676193779334426">
        <ele>3139.7800000000002</ele>
        <time>2021-07-25T09:55:33Z</time>
      </trkpt>
      <trkpt lat="45.914309564977884" lon="7.67619151622057">
        <ele>3140.0700000000002</ele>
        <time>2021-07-25T09:56:13Z</time>
      </trkpt>
      <trkpt lat="45.914305625483394" lon="7.676196126267314">
        <ele>3139.8899999999999</ele>
        <time>2021-07-25T09:56:25Z</time>
      </trkpt>
      <trkpt lat="45.914303781464696" lon="7.676197802647948">
        <ele>3140.5500000000002</ele>
        <time>2021-07-25T09:56:40Z</time>
      </trkpt>
      <trkpt lat="45.914306296035647" lon="7.676192438229919">
        <ele>3139.73</ele>
        <time>2021-07-25T09:57:28Z</time>
      </trkpt>
      <trkpt lat="45.914302105084062" lon="7.676190007477999">
        <ele>3139.8499999999999</ele>
        <time>2021-07-25T09:58:01Z</time>
      </trkpt>
      <trkpt lat="45.914300009608269" lon="7.67619151622057">
        <ele>3139.6599999999999</ele>
        <time>2021-07-25T09:58:12Z</time>
      </trkpt>
      <trkpt lat="45.914298752322793" lon="7.676188498735428">
        <ele>3139.8800000000001</ele>
        <time>2021-07-25T09:58:48Z</time>
      </trkpt>
      <trkpt lat="45.914296489208937" lon="7.67619201913476">
        <ele>3139.9200000000001</ele>
        <time>2021-07-25T09:59:03Z</time>
      </trkpt>
      <trkpt lat="45.914295734837651" lon="7.676187828183174">
        <ele>3139.0999999999999</ele>
        <time>2021-07-25T10:00:01Z</time>
      </trkpt>
      <trkpt lat="45.914290873333812" lon="7.676188247278333">
        <ele>3139.3699999999999</ele>
        <time>2021-07-25T10:00:46Z</time>
      </trkpt>
      <trkpt lat="45.914305960759521" lon="7.676179027184844">
        <ele>3139.6900000000001</ele>
        <time>2021-07-25T10:01:06Z</time>
      </trkpt>
      <trkpt lat="45.914319036528468" lon="7.676166286692023">
        <ele>3139.9499999999998</ele>
        <time>2021-07-25T10:01:19Z</time>
      </trkpt>
      <trkpt lat="45.914344014599919" lon="7.676160586997867">
        <ele>3140.0900000000001</ele>
        <time>2021-07-25T10:01:35Z</time>
      </trkpt>
      <trkpt lat="45.914309062063694" lon="7.676139045506716">
        <ele>3140.0900000000001</ele>
        <time>2021-07-25T10:01:47Z</time>
      </trkpt>
      <trkpt lat="45.914249802008271" lon="7.676184056326747">
        <ele>3142.1999999999998</ele>
        <time>2021-07-25T10:02:00Z</time>
      </trkpt>
      <trkpt lat="45.914199510589242" lon="7.676244070753455">
        <ele>3144.7800000000002</ele>
        <time>2021-07-25T10:02:15Z</time>
      </trkpt>
      <trkpt lat="45.914129605516791" lon="7.676325878128409">
        <ele>3145.9299999999998</ele>
        <time>2021-07-25T10:02:28Z</time>
      </trkpt>
      <trkpt lat="45.914107644930482" lon="7.67643878236413">
        <ele>3148.6300000000001</ele>
        <time>2021-07-25T10:02:44Z</time>
      </trkpt>
      <trkpt lat="45.914146201685071" lon="7.67650181427598">
        <ele>3150.7399999999998</ele>
        <time>2021-07-25T10:02:58Z</time>
      </trkpt>
      <trkpt lat="45.914145447313786" lon="7.676538191735745">
        <ele>3152.3299999999999</ele>
        <time>2021-07-25T10:03:17Z</time>
      </trkpt>
      <trkpt lat="45.914134299382567" lon="7.676567696034908">
        <ele>3153.6700000000001</ele>
        <time>2021-07-25T10:03:37Z</time>
      </trkpt>
      <trkpt lat="45.914163049310446" lon="7.676604492589831">
        <ele>3155.1399999999999</ele>
        <time>2021-07-25T10:03:49Z</time>
      </trkpt>
      <trkpt lat="45.914177214726806" lon="7.676666770130396">
        <ele>3157.6700000000001</ele>
        <time>2021-07-25T10:04:03Z</time>
      </trkpt>
      <trkpt lat="45.914207557216287" lon="7.676658472046256">
        <ele>3159.52</ele>
        <time>2021-07-25T10:04:17Z</time>
      </trkpt>
      <trkpt lat="45.914221554994583" lon="7.676672637462616">
        <ele>3161.25</ele>
        <time>2021-07-25T10:04:29Z</time>
      </trkpt>
      <trkpt lat="45.914241755381227" lon="7.676710607483983">
        <ele>3163.3200000000002</ele>
        <time>2021-07-25T10:04:44Z</time>
      </trkpt>
      <trkpt lat="45.914257261902094" lon="7.676727203652263">
        <ele>3164.4200000000001</ele>
        <time>2021-07-25T10:04:56Z</time>
      </trkpt>
      <trkpt lat="45.914260111749172" lon="7.676757127046585">
        <ele>3165.3299999999999</ele>
        <time>2021-07-25T10:05:11Z</time>
      </trkpt>
      <trkpt lat="45.914277546107769" lon="7.676743380725384">
        <ele>3166.27</ele>
        <time>2021-07-25T10:05:22Z</time>
      </trkpt>
      <trkpt lat="45.914277043193579" lon="7.676746062934399">
        <ele>3166.3200000000002</ele>
        <time>2021-07-25T10:05:37Z</time>
      </trkpt>
      <trkpt lat="45.914281066507101" lon="7.676750337705016">
        <ele>3166.9400000000001</ele>
        <time>2021-07-25T10:05:53Z</time>
      </trkpt>
      <trkpt lat="45.914273774251342" lon="7.676739189773798">
        <ele>3166.8400000000001</ele>
        <time>2021-07-25T10:06:03Z</time>
      </trkpt>
      <trkpt lat="45.914283748716116" lon="7.676739441230893">
        <ele>3165.2800000000002</ele>
        <time>2021-07-25T10:06:13Z</time>
      </trkpt>
      <trkpt lat="45.91429129242897" lon="7.676735585555434">
        <ele>3166.0900000000001</ele>
        <time>2021-07-25T10:06:37Z</time>
      </trkpt>
      <trkpt lat="45.914293639361858" lon="7.676709266379476">
        <ele>3165.9099999999999</ele>
        <time>2021-07-25T10:07:17Z</time>
      </trkpt>
      <trkpt lat="45.91430545784533" lon="7.676705410704017">
        <ele>3166.21</ele>
        <time>2021-07-25T10:07:56Z</time>
      </trkpt>
      <trkpt lat="45.914311828091741" lon="7.676697615534067">
        <ele>3166.04</ele>
        <time>2021-07-25T10:08:41Z</time>
      </trkpt>
      <trkpt lat="45.914300009608269" lon="7.676713122054935">
        <ele>3165.98</ele>
        <time>2021-07-25T10:09:13Z</time>
      </trkpt>
      <trkpt lat="45.914303446188569" lon="7.676705494523048">
        <ele>3166.2399999999998</ele>
        <time>2021-07-25T10:09:44Z</time>
      </trkpt>
      <trkpt lat="45.914311911910772" lon="7.676706500351429">
        <ele>3166.02</ele>
        <time>2021-07-25T10:10:16Z</time>
      </trkpt>
      <trkpt lat="45.914324568584561" lon="7.676703399047256">
        <ele>3165.7600000000002</ele>
        <time>2021-07-25T10:11:04Z</time>
      </trkpt>
      <trkpt lat="45.914325742051005" lon="7.676711780950427">
        <ele>3166.1300000000001</ele>
        <time>2021-07-25T10:11:33Z</time>
      </trkpt>
      <trkpt lat="45.91431719250977" lon="7.676714546978474">
        <ele>3165.8800000000001</ele>
        <time>2021-07-25T10:11:56Z</time>
      </trkpt>
      <trkpt lat="45.914311492815614" lon="7.676709517836571">
        <ele>3165.8200000000002</ele>
        <time>2021-07-25T10:12:19Z</time>
      </trkpt>
      <trkpt lat="45.914313588291407" lon="7.676709266379476">
        <ele>3166.5999999999999</ele>
        <time>2021-07-25T10:12:46Z</time>
      </trkpt>
      <trkpt lat="45.914309648796916" lon="7.676716642454267">
        <ele>3166.3899999999999</ele>
        <time>2021-07-25T10:13:04Z</time>
      </trkpt>
      <trkpt lat="45.91430788859725" lon="7.676710104569793">
        <ele>3166.5300000000002</ele>
        <time>2021-07-25T10:13:25Z</time>
      </trkpt>
      <trkpt lat="45.914303446188569" lon="7.676703985780478">
        <ele>3166.9200000000001</ele>
        <time>2021-07-25T10:13:48Z</time>
      </trkpt>
      <trkpt lat="45.914312498643994" lon="7.676719324663281">
        <ele>3166.7600000000002</ele>
        <time>2021-07-25T10:14:11Z</time>
      </trkpt>
      <trkpt lat="45.914322892203927" lon="7.676691999658942">
        <ele>3166.6700000000001</ele>
        <time>2021-07-25T10:14:33Z</time>
      </trkpt>
      <trkpt lat="45.914331190288067" lon="7.676661992445588">
        <ele>3166.9299999999998</ele>
        <time>2021-07-25T10:15:02Z</time>
      </trkpt>
      <trkpt lat="45.914329094812274" lon="7.676647659391165">
        <ele>3166.75</ele>
        <time>2021-07-25T10:15:25Z</time>
      </trkpt>
      <trkpt lat="45.914305374026299" lon="7.676678169518709">
        <ele>3167.0599999999999</ele>
        <time>2021-07-25T10:15:47Z</time>
      </trkpt>
      <trkpt lat="45.91431668959558" lon="7.676679510623217">
        <ele>3166.6300000000001</ele>
        <time>2021-07-25T10:16:11Z</time>
      </trkpt>
      <trkpt lat="45.914317443966866" lon="7.676676828414202">
        <ele>3166.4499999999998</ele>
        <time>2021-07-25T10:16:31Z</time>
      </trkpt>
      <trkpt lat="45.914312666282058" lon="7.676702812314034">
        <ele>3166.3400000000001</ele>
        <time>2021-07-25T10:16:53Z</time>
      </trkpt>
      <trkpt lat="45.914310654625297" lon="7.67670851200819">
        <ele>3166.75</ele>
        <time>2021-07-25T10:17:14Z</time>
      </trkpt>
      <trkpt lat="45.914305374026299" lon="7.676733825355768">
        <ele>3166.1900000000001</ele>
        <time>2021-07-25T10:17:34Z</time>
      </trkpt>
      <trkpt lat="45.914297327399254" lon="7.676751930266619">
        <ele>3166.46</ele>
        <time>2021-07-25T10:17:57Z</time>
      </trkpt>
      <trkpt lat="45.91428785584867" lon="7.676761820912361">
        <ele>3167.3000000000002</ele>
        <time>2021-07-25T10:18:16Z</time>
      </trkpt>
      <trkpt lat="45.914292633533478" lon="7.676741536706686">
        <ele>3168.1599999999999</ele>
        <time>2021-07-25T10:18:30Z</time>
      </trkpt>
      <trkpt lat="45.914287185296416" lon="7.67675343900919">
        <ele>3166.8499999999999</ele>
        <time>2021-07-25T10:18:44Z</time>
      </trkpt>
      <trkpt lat="45.914294477552176" lon="7.676740698516369">
        <ele>3168.7600000000002</ele>
        <time>2021-07-25T10:19:11Z</time>
      </trkpt>
      <trkpt lat="45.914290118962526" lon="7.676737513393164">
        <ele>3168.7800000000002</ele>
        <time>2021-07-25T10:19:12Z</time>
      </trkpt>
      <trkpt lat="45.914308810606599" lon="7.676740447059274">
        <ele>3168.5599999999999</ele>
        <time>2021-07-25T10:19:25Z</time>
      </trkpt>
      <trkpt lat="45.914305709302425" lon="7.676736004650593">
        <ele>3169.5900000000001</ele>
        <time>2021-07-25T10:19:41Z</time>
      </trkpt>
      <trkpt lat="45.914302188903093" lon="7.676738603040576">
        <ele>3169.4699999999998</ele>
        <time>2021-07-25T10:19:59Z</time>
      </trkpt>
      <trkpt lat="45.914302188903093" lon="7.676744470372796">
        <ele>3169.0900000000001</ele>
        <time>2021-07-25T10:20:13Z</time>
      </trkpt>
      <trkpt lat="45.914256256073713" lon="7.676763329654932">
        <ele>3167.3800000000001</ele>
        <time>2021-07-25T10:20:25Z</time>
      </trkpt>
      <trkpt lat="45.914250640198588" lon="7.676719157025218">
        <ele>3165.4899999999998</ele>
        <time>2021-07-25T10:20:39Z</time>
      </trkpt>
      <trkpt lat="45.914228847250342" lon="7.676717061549425">
        <ele>3165</ele>
        <time>2021-07-25T10:20:51Z</time>
      </trkpt>
      <trkpt lat="45.914194146171212" lon="7.67671924084425">
        <ele>3162.77</ele>
        <time>2021-07-25T10:21:04Z</time>
      </trkpt>
      <trkpt lat="45.914195906370878" lon="7.676675403490663">
        <ele>3161.6599999999999</ele>
        <time>2021-07-25T10:21:18Z</time>
      </trkpt>
      <trkpt lat="45.914187273010612" lon="7.676649838685989">
        <ele>3161.0500000000002</ele>
        <time>2021-07-25T10:21:32Z</time>
      </trkpt>
      <trkpt lat="45.91418425552547" lon="7.676657550036907">
        <ele>3161.4099999999999</ele>
        <time>2021-07-25T10:21:48Z</time>
      </trkpt>
      <trkpt lat="45.914177550002933" lon="7.676667608320713">
        <ele>3160.6999999999998</ele>
        <time>2021-07-25T10:22:05Z</time>
      </trkpt>
      <trkpt lat="45.914197582751513" lon="7.676703566685319">
        <ele>3162.5</ele>
        <time>2021-07-25T10:22:21Z</time>
      </trkpt>
      <trkpt lat="45.91421945951879" lon="7.67672024667263">
        <ele>3164.48</ele>
        <time>2021-07-25T10:22:31Z</time>
      </trkpt>
      <trkpt lat="45.914249215275049" lon="7.676768777891994">
        <ele>3167.1399999999999</ele>
        <time>2021-07-25T10:22:44Z</time>
      </trkpt>
      <trkpt lat="45.914281653240323" lon="7.67675201408565">
        <ele>3168.1999999999998</ele>
        <time>2021-07-25T10:22:56Z</time>
      </trkpt>
      <trkpt lat="45.914288274943829" lon="7.676750086247921">
        <ele>3167.9400000000001</ele>
        <time>2021-07-25T10:23:14Z</time>
      </trkpt>
      <trkpt lat="45.91430302709341" lon="7.676811190322042">
        <ele>3169.4400000000001</ele>
        <time>2021-07-25T10:23:26Z</time>
      </trkpt>
      <trkpt lat="45.914296489208937" lon="7.676808340474963">
        <ele>3169.6599999999999</ele>
        <time>2021-07-25T10:23:48Z</time>
      </trkpt>
      <trkpt lat="45.914283497259021" lon="7.676779758185148">
        <ele>3169.2600000000002</ele>
        <time>2021-07-25T10:24:10Z</time>
      </trkpt>
      <trkpt lat="45.914283664897084" lon="7.676741201430559">
        <ele>3168.1900000000001</ele>
        <time>2021-07-25T10:24:20Z</time>
      </trkpt>
      <trkpt lat="45.914289699867368" lon="7.676744470372796">
        <ele>3167.3200000000002</ele>
        <time>2021-07-25T10:24:44Z</time>
      </trkpt>
      <trkpt lat="45.91429565101862" lon="7.67674170434475">
        <ele>3167.3800000000001</ele>
        <time>2021-07-25T10:25:06Z</time>
      </trkpt>
      <trkpt lat="45.914289364591241" lon="7.676741369068623">
        <ele>3167.27</ele>
        <time>2021-07-25T10:25:25Z</time>
      </trkpt>
      <trkpt lat="45.914291711524129" lon="7.676739441230893">
        <ele>3167.1799999999998</ele>
        <time>2021-07-25T10:25:44Z</time>
      </trkpt>
      <trkpt lat="45.914293471723795" lon="7.676748242229223">
        <ele>3167.0300000000002</ele>
        <time>2021-07-25T10:25:57Z</time>
      </trkpt>
      <trkpt lat="45.914247455075383" lon="7.676753606647253">
        <ele>3165.5100000000002</ele>
        <time>2021-07-25T10:26:10Z</time>
      </trkpt>
      <trkpt lat="45.914235804229975" lon="7.676712954416871">
        <ele>3163.6799999999998</ele>
        <time>2021-07-25T10:26:17Z</time>
      </trkpt>
      <trkpt lat="45.914224572479725" lon="7.676715385168791">
        <ele>3162.6199999999999</ele>
        <time>2021-07-25T10:26:19Z</time>
      </trkpt>
      <trkpt lat="45.91419255360961" lon="7.676681941375136">
        <ele>3160.48</ele>
        <time>2021-07-25T10:26:30Z</time>
      </trkpt>
      <trkpt lat="45.914175035431981" lon="7.676653861999512">
        <ele>3159.23</ele>
        <time>2021-07-25T10:26:42Z</time>
      </trkpt>
      <trkpt lat="45.914140921086073" lon="7.676642965525389">
        <ele>3157.5999999999999</ele>
        <time>2021-07-25T10:26:55Z</time>
      </trkpt>
      <trkpt lat="45.914121055975556" lon="7.676597703248262">
        <ele>3154.4899999999998</ele>
        <time>2021-07-25T10:27:04Z</time>
      </trkpt>
      <trkpt lat="45.914052240550518" lon="7.67664447426796">
        <ele>3152.5900000000001</ele>
        <time>2021-07-25T10:27:15Z</time>
      </trkpt>
      <trkpt lat="45.914011923596263" lon="7.67667138017714">
        <ele>3150.5100000000002</ele>
        <time>2021-07-25T10:27:20Z</time>
      </trkpt>
      <trkpt lat="45.913962973281741" lon="7.676656460389495">
        <ele>3147.7600000000002</ele>
        <time>2021-07-25T10:27:27Z</time>
      </trkpt>
      <trkpt lat="45.913946460932493" lon="7.676671463996172">
        <ele>3147.9499999999998</ele>
        <time>2021-07-25T10:27:29Z</time>
      </trkpt>
      <trkpt lat="45.913929864764214" lon="7.676690239459276">
        <ele>3147.77</ele>
        <time>2021-07-25T10:27:31Z</time>
      </trkpt>
      <trkpt lat="45.913873035460711" lon="7.676710020750761">
        <ele>3145.77</ele>
        <time>2021-07-25T10:27:38Z</time>
      </trkpt>
      <trkpt lat="45.91386272571981" lon="7.676706667989492">
        <ele>3145.4499999999998</ele>
        <time>2021-07-25T10:27:39Z</time>
      </trkpt>
      <trkpt lat="45.913828779011965" lon="7.676701303571463">
        <ele>3144.2399999999998</ele>
        <time>2021-07-25T10:27:42Z</time>
      </trkpt>
      <trkpt lat="45.913818553090096" lon="7.676695771515369">
        <ele>3143.9299999999998</ele>
        <time>2021-07-25T10:27:43Z</time>
      </trkpt>
      <trkpt lat="45.913750156760216" lon="7.676645899191499">
        <ele>3141.25</ele>
        <time>2021-07-25T10:27:54Z</time>
      </trkpt>
      <trkpt lat="45.913722077384591" lon="7.676641121506691">
        <ele>3138.54</ele>
        <time>2021-07-25T10:28:00Z</time>
      </trkpt>
      <trkpt lat="45.913683520630002" lon="7.676633158698678">
        <ele>3136.7600000000002</ele>
        <time>2021-07-25T10:28:14Z</time>
      </trkpt>
      <trkpt lat="45.913673210889101" lon="7.67658244818449">
        <ele>3133.4699999999998</ele>
        <time>2021-07-25T10:28:19Z</time>
      </trkpt>
      <trkpt lat="45.913636079058051" lon="7.676560571417213">
        <ele>3131.6500000000001</ele>
        <time>2021-07-25T10:28:32Z</time>
      </trkpt>
      <trkpt lat="45.913635408505797" lon="7.676460575312376">
        <ele>3129.1799999999998</ele>
        <time>2021-07-25T10:28:45Z</time>
      </trkpt>
      <trkpt lat="45.9136404376477" lon="7.676394274458289">
        <ele>3127.3600000000001</ele>
        <time>2021-07-25T10:28:52Z</time>
      </trkpt>
      <trkpt lat="45.913652591407299" lon="7.67625018954277">
        <ele>3125.9200000000001</ele>
        <time>2021-07-25T10:29:05Z</time>
      </trkpt>
      <trkpt lat="45.913656363263726" lon="7.676131501793861">
        <ele>3124.3899999999999</ele>
        <time>2021-07-25T10:29:16Z</time>
      </trkpt>
      <trkpt lat="45.913641359657049" lon="7.676034439355135">
        <ele>3121.1799999999998</ele>
        <time>2021-07-25T10:29:26Z</time>
      </trkpt>
      <trkpt lat="45.913647981360555" lon="7.675974257290363">
        <ele>3118</ele>
        <time>2021-07-25T10:29:33Z</time>
      </trkpt>
      <trkpt lat="45.913640353828669" lon="7.675974173471332">
        <ele>3116.7800000000002</ele>
        <time>2021-07-25T10:29:36Z</time>
      </trkpt>
      <trkpt lat="45.913645885884762" lon="7.675929497927427">
        <ele>3116.4299999999998</ele>
        <time>2021-07-25T10:29:46Z</time>
      </trkpt>
      <trkpt lat="45.913614956662059" lon="7.675903681665659">
        <ele>3113.77</ele>
        <time>2021-07-25T10:29:56Z</time>
      </trkpt>
      <trkpt lat="45.913621913641691" lon="7.675859592854977">
        <ele>3112.8800000000001</ele>
        <time>2021-07-25T10:30:02Z</time>
      </trkpt>
      <trkpt lat="45.913617722690105" lon="7.675790693610907">
        <ele>3109.8000000000002</ele>
        <time>2021-07-25T10:30:13Z</time>
      </trkpt>
      <trkpt lat="45.913592828437686" lon="7.675722045823932">
        <ele>3106.6799999999998</ele>
        <time>2021-07-25T10:30:25Z</time>
      </trkpt>
      <trkpt lat="45.91361646540463" lon="7.67568139359355">
        <ele>3104.8000000000002</ele>
        <time>2021-07-25T10:30:34Z</time>
      </trkpt>
      <trkpt lat="45.913638342171907" lon="7.675665467977524">
        <ele>3103.7800000000002</ele>
        <time>2021-07-25T10:30:47Z</time>
      </trkpt>
      <trkpt lat="45.913644377142191" lon="7.675637723878026">
        <ele>3103.1100000000001</ele>
        <time>2021-07-25T10:30:59Z</time>
      </trkpt>
      <trkpt lat="45.913637839257717" lon="7.675589444115758">
        <ele>3101.1500000000001</ele>
        <time>2021-07-25T10:31:13Z</time>
      </trkpt>
      <trkpt lat="45.913623087108135" lon="7.675570752471685">
        <ele>3100.6700000000001</ele>
        <time>2021-07-25T10:31:27Z</time>
      </trkpt>
      <trkpt lat="45.913614705204964" lon="7.675550216808915">
        <ele>3098.79</ele>
        <time>2021-07-25T10:31:32Z</time>
      </trkpt>
      <trkpt lat="45.913597689941525" lon="7.675510738044977">
        <ele>3095.4099999999999</ele>
        <time>2021-07-25T10:31:42Z</time>
      </trkpt>
      <trkpt lat="45.913560474291444" lon="7.675484921783209">
        <ele>3093.25</ele>
        <time>2021-07-25T10:31:55Z</time>
      </trkpt>
      <trkpt lat="45.913509009405971" lon="7.675460278987885">
        <ele>3090.25</ele>
        <time>2021-07-25T10:32:08Z</time>
      </trkpt>
      <trkpt lat="45.91345134191215" lon="7.675443599000573">
        <ele>3088.52</ele>
        <time>2021-07-25T10:32:24Z</time>
      </trkpt>
      <trkpt lat="45.913453688845038" lon="7.675371095538139">
        <ele>3086.4099999999999</ele>
        <time>2021-07-25T10:32:34Z</time>
      </trkpt>
      <trkpt lat="45.913443127647042" lon="7.675324073061347">
        <ele>3083.3000000000002</ele>
        <time>2021-07-25T10:32:43Z</time>
      </trkpt>
      <trkpt lat="45.91344740241766" lon="7.675302280113101">
        <ele>3082.5799999999999</ele>
        <time>2021-07-25T10:32:45Z</time>
      </trkpt>
      <trkpt lat="45.913474475964904" lon="7.675222735852003">
        <ele>3080.8099999999999</ele>
        <time>2021-07-25T10:32:59Z</time>
      </trkpt>
      <trkpt lat="45.913449749350548" lon="7.675192393362522">
        <ele>3078.4699999999998</ele>
        <time>2021-07-25T10:33:13Z</time>
      </trkpt>
      <trkpt lat="45.91346014291048" lon="7.675156099721789">
        <ele>3075.4200000000001</ele>
        <time>2021-07-25T10:33:22Z</time>
      </trkpt>
      <trkpt lat="45.913434745743871" lon="7.675140174105763">
        <ele>3073.71</ele>
        <time>2021-07-25T10:33:32Z</time>
      </trkpt>
      <trkpt lat="45.913370037451386" lon="7.675139587372541">
        <ele>3070.4400000000001</ele>
        <time>2021-07-25T10:33:46Z</time>
      </trkpt>
      <trkpt lat="45.913362326100469" lon="7.675141682848334">
        <ele>3070.9499999999998</ele>
        <time>2021-07-25T10:33:47Z</time>
      </trkpt>
      <trkpt lat="45.91335360892117" lon="7.675145957618952">
        <ele>3071.4200000000001</ele>
        <time>2021-07-25T10:33:48Z</time>
      </trkpt>
      <trkpt lat="45.913346400484443" lon="7.67515467479825">
        <ele>3071.6999999999998</ele>
        <time>2021-07-25T10:33:49Z</time>
      </trkpt>
      <trkpt lat="45.91328764334321" lon="7.67525726929307">
        <ele>3071.1399999999999</ele>
        <time>2021-07-25T10:34:01Z</time>
      </trkpt>
      <trkpt lat="45.91326367110014" lon="7.675325497984886">
        <ele>3070.25</ele>
        <time>2021-07-25T10:34:15Z</time>
      </trkpt>
      <trkpt lat="45.913235424086452" lon="7.675333628430963">
        <ele>3068.5100000000002</ele>
        <time>2021-07-25T10:34:29Z</time>
      </trkpt>
      <trkpt lat="45.913215223699808" lon="7.67531150020659">
        <ele>3066.9499999999998</ele>
        <time>2021-07-25T10:34:41Z</time>
      </trkpt>
      <trkpt lat="45.913202315568924" lon="7.675301441922784">
        <ele>3066.9899999999998</ele>
        <time>2021-07-25T10:35:02Z</time>
      </trkpt>
      <trkpt lat="45.913179349154234" lon="7.675277637317777">
        <ele>3064.7199999999998</ele>
        <time>2021-07-25T10:35:15Z</time>
      </trkpt>
      <trkpt lat="45.913153197616339" lon="7.675291802734137">
        <ele>3063.3600000000001</ele>
        <time>2021-07-25T10:35:31Z</time>
      </trkpt>
      <trkpt lat="45.913151018321514" lon="7.675356678664684">
        <ele>3063.0799999999999</ele>
        <time>2021-07-25T10:35:43Z</time>
      </trkpt>
      <trkpt lat="45.913117490708828" lon="7.675410406664014">
        <ele>3060.3099999999999</ele>
        <time>2021-07-25T10:35:53Z</time>
      </trkpt>
      <trkpt lat="45.913064014166594" lon="7.675495566800237">
        <ele>3058.1999999999998</ele>
        <time>2021-07-25T10:36:06Z</time>
      </trkpt>
      <trkpt lat="45.91300274245441" lon="7.675577038899064">
        <ele>3056.8600000000001</ele>
        <time>2021-07-25T10:36:19Z</time>
      </trkpt>
      <trkpt lat="45.912926718592644" lon="7.675662450492382">
        <ele>3055.3000000000002</ele>
        <time>2021-07-25T10:36:34Z</time>
      </trkpt>
      <trkpt lat="45.912880953401327" lon="7.675735205411911">
        <ele>3054.5500000000002</ele>
        <time>2021-07-25T10:36:48Z</time>
      </trkpt>
      <trkpt lat="45.912825465202332" lon="7.675803350284696">
        <ele>3052.8899999999999</ele>
        <time>2021-07-25T10:36:57Z</time>
      </trkpt>
      <trkpt lat="45.912746423855424" lon="7.675876105204225">
        <ele>3050.1999999999998</ele>
        <time>2021-07-25T10:37:10Z</time>
      </trkpt>
      <trkpt lat="45.912679368630052" lon="7.675939807668328">
        <ele>3047.0799999999999</ele>
        <time>2021-07-25T10:37:23Z</time>
      </trkpt>
      <trkpt lat="45.912622455507517" lon="7.67595355398953">
        <ele>3044.0300000000002</ele>
        <time>2021-07-25T10:37:34Z</time>
      </trkpt>
      <trkpt lat="45.912602506577969" lon="7.675976604223251">
        <ele>3044.25</ele>
        <time>2021-07-25T10:37:50Z</time>
      </trkpt>
      <trkpt lat="45.912586245685816" lon="7.676005102694035">
        <ele>3043.3699999999999</ele>
        <time>2021-07-25T10:37:53Z</time>
      </trkpt>
      <trkpt lat="45.912569565698504" lon="7.676026560366154">
        <ele>3042.25</ele>
        <time>2021-07-25T10:37:55Z</time>
      </trkpt>
      <trkpt lat="45.912560345605016" lon="7.676033768802881">
        <ele>3041.8299999999999</ele>
        <time>2021-07-25T10:37:56Z</time>
      </trkpt>
      <trkpt lat="45.912484405562282" lon="7.676072912290692">
        <ele>3038.9099999999999</ele>
        <time>2021-07-25T10:38:08Z</time>
      </trkpt>
      <trkpt lat="45.912412153556943" lon="7.676149355247617">
        <ele>3035.8600000000001</ele>
        <time>2021-07-25T10:38:22Z</time>
      </trkpt>
      <trkpt lat="45.912355659529567" lon="7.676238706335425">
        <ele>3032.5500000000002</ele>
        <time>2021-07-25T10:38:33Z</time>
      </trkpt>
      <trkpt lat="45.912307379767299" lon="7.676300564780831">
        <ele>3029.5300000000002</ele>
        <time>2021-07-25T10:38:42Z</time>
      </trkpt>
      <trkpt lat="45.912290532141924" lon="7.67633568495512">
        <ele>3028.5700000000002</ele>
        <time>2021-07-25T10:38:46Z</time>
      </trkpt>
      <trkpt lat="45.912250382825732" lon="7.676359154284">
        <ele>3027.1199999999999</ele>
        <time>2021-07-25T10:38:56Z</time>
      </trkpt>
      <trkpt lat="45.912186345085502" lon="7.676411708816886">
        <ele>3025.1900000000001</ele>
        <time>2021-07-25T10:39:08Z</time>
      </trkpt>
      <trkpt lat="45.912142507731915" lon="7.676440291106701">
        <ele>3023.2600000000002</ele>
        <time>2021-07-25T10:39:23Z</time>
      </trkpt>
      <trkpt lat="45.912078302353621" lon="7.676545232534409">
        <ele>3020.3099999999999</ele>
        <time>2021-07-25T10:39:37Z</time>
      </trkpt>
      <trkpt lat="45.912055503576994" lon="7.676589908078313">
        <ele>3018.7399999999998</ele>
        <time>2021-07-25T10:39:44Z</time>
      </trkpt>
      <trkpt lat="45.912060616537929" lon="7.67663617618382">
        <ele>3018.7800000000002</ele>
        <time>2021-07-25T10:39:47Z</time>
      </trkpt>
      <trkpt lat="45.912054497748613" lon="7.676772549748421">
        <ele>3018.6500000000001</ele>
        <time>2021-07-25T10:39:58Z</time>
      </trkpt>
      <trkpt lat="45.911999680101871" lon="7.676909258589149">
        <ele>3016.9400000000001</ele>
        <time>2021-07-25T10:40:09Z</time>
      </trkpt>
      <trkpt lat="45.911996830254793" lon="7.676931722089648">
        <ele>3016.3200000000002</ele>
        <time>2021-07-25T10:40:20Z</time>
      </trkpt>
      <trkpt lat="45.911995321512222" lon="7.676938092336059">
        <ele>3015.6100000000001</ele>
        <time>2021-07-25T10:40:34Z</time>
      </trkpt>
      <trkpt lat="45.911985682323575" lon="7.676875982433558">
        <ele>3015.7800000000002</ele>
        <time>2021-07-25T10:40:43Z</time>
      </trkpt>
      <trkpt lat="45.911991465836763" lon="7.67683801241219">
        <ele>3014.9200000000001</ele>
        <time>2021-07-25T10:40:54Z</time>
      </trkpt>
      <trkpt lat="45.911984341219068" lon="7.676842119544745">
        <ele>3014.9400000000001</ele>
        <time>2021-07-25T10:41:04Z</time>
      </trkpt>
      <trkpt lat="45.911992304027081" lon="7.676845891401172">
        <ele>3015.3800000000001</ele>
        <time>2021-07-25T10:41:33Z</time>
      </trkpt>
      <trkpt lat="45.911994483321905" lon="7.676848489791155">
        <ele>3015.4499999999998</ele>
        <time>2021-07-25T10:42:10Z</time>
      </trkpt>
      <trkpt lat="45.911982916295528" lon="7.676827367395163">
        <ele>3016.9099999999999</ele>
        <time>2021-07-25T10:42:23Z</time>
      </trkpt>
      <trkpt lat="45.911989957094193" lon="7.676834156736732">
        <ele>3015.21</ele>
        <time>2021-07-25T10:42:37Z</time>
      </trkpt>
      <trkpt lat="45.911990962922573" lon="7.676841616630554">
        <ele>3016.8299999999999</ele>
        <time>2021-07-25T10:42:53Z</time>
      </trkpt>
      <trkpt lat="45.911991549655795" lon="7.676854357123375">
        <ele>3016.1900000000001</ele>
        <time>2021-07-25T10:43:11Z</time>
      </trkpt>
      <trkpt lat="45.911993645131588" lon="7.676860727369785">
        <ele>3015.3699999999999</ele>
        <time>2021-07-25T10:43:26Z</time>
      </trkpt>
      <trkpt lat="45.911963302642107" lon="7.676901631057262">
        <ele>3016.1799999999998</ele>
        <time>2021-07-25T10:43:42Z</time>
      </trkpt>
      <trkpt lat="45.911932457238436" lon="7.677025767043233">
        <ele>3014.8299999999999</ele>
        <time>2021-07-25T10:43:56Z</time>
      </trkpt>
      <trkpt lat="45.911889625713229" lon="7.67712090164423">
        <ele>3011.5500000000002</ele>
        <time>2021-07-25T10:44:11Z</time>
      </trkpt>
      <trkpt lat="45.911893732845783" lon="7.67715903930366">
        <ele>3011.04</ele>
        <time>2021-07-25T10:44:13Z</time>
      </trkpt>
      <trkpt lat="45.91189406812191" lon="7.677320307120681">
        <ele>3009.6900000000001</ele>
        <time>2021-07-25T10:44:25Z</time>
      </trkpt>
      <trkpt lat="45.911913262680173" lon="7.677419297397137">
        <ele>3009.77</ele>
        <time>2021-07-25T10:44:40Z</time>
      </trkpt>
      <trkpt lat="45.911916615441442" lon="7.677411837503314">
        <ele>3009.6500000000001</ele>
        <time>2021-07-25T10:44:59Z</time>
      </trkpt>
      <trkpt lat="45.911918627098203" lon="7.677410412579775">
        <ele>3008.9899999999998</ele>
        <time>2021-07-25T10:45:25Z</time>
      </trkpt>
      <trkpt lat="45.911917705088854" lon="7.677412843331695">
        <ele>3008.5799999999999</ele>
        <time>2021-07-25T10:45:48Z</time>
      </trkpt>
      <trkpt lat="45.911915274336934" lon="7.677415022626519">
        <ele>3008.4899999999998</ele>
        <time>2021-07-25T10:46:06Z</time>
      </trkpt>
      <trkpt lat="45.911905970424414" lon="7.677418626844883">
        <ele>3008.5700000000002</ele>
        <time>2021-07-25T10:46:25Z</time>
      </trkpt>
      <trkpt lat="45.911902533844113" lon="7.677417788654566">
        <ele>3007.4000000000001</ele>
        <time>2021-07-25T10:46:45Z</time>
      </trkpt>
      <trkpt lat="45.911887865513563" lon="7.677400438115001">
        <ele>3007.0799999999999</ele>
        <time>2021-07-25T10:47:05Z</time>
      </trkpt>
      <trkpt lat="45.91188526712358" lon="7.677388535812497">
        <ele>3007.9899999999998</ele>
        <time>2021-07-25T10:47:24Z</time>
      </trkpt>
      <trkpt lat="45.911805890500546" lon="7.67733246088028">
        <ele>3006.1300000000001</ele>
        <time>2021-07-25T10:47:36Z</time>
      </trkpt>
      <trkpt lat="45.911717712879181" lon="7.677264148369432">
        <ele>3003.7199999999998</ele>
        <time>2021-07-25T10:47:49Z</time>
      </trkpt>
      <trkpt lat="45.911634229123592" lon="7.677209498360753">
        <ele>3000.6500000000001</ele>
        <time>2021-07-25T10:47:59Z</time>
      </trkpt>
      <trkpt lat="45.911585194990039" lon="7.677163816988468">
        <ele>2999.46</ele>
        <time>2021-07-25T10:48:06Z</time>
      </trkpt>
      <trkpt lat="45.911502800881863" lon="7.677119728177786">
        <ele>2996</ele>
        <time>2021-07-25T10:48:16Z</time>
      </trkpt>
      <trkpt lat="45.911466088145971" lon="7.677098354324698">
        <ele>2994.48</ele>
        <time>2021-07-25T10:48:21Z</time>
      </trkpt>
      <trkpt lat="45.911404984071851" lon="7.677100198343396">
        <ele>2991.1799999999998</ele>
        <time>2021-07-25T10:48:31Z</time>
      </trkpt>
      <trkpt lat="45.911332312971354" lon="7.677149400115013">
        <ele>2987.96</ele>
        <time>2021-07-25T10:48:43Z</time>
      </trkpt>
      <trkpt lat="45.911283949390054" lon="7.67714629881084">
        <ele>2985.8800000000001</ele>
        <time>2021-07-25T10:48:55Z</time>
      </trkpt>
      <trkpt lat="45.911287972703576" lon="7.677146466448903">
        <ele>2984.9200000000001</ele>
        <time>2021-07-25T10:49:04Z</time>
      </trkpt>
      <trkpt lat="45.911287972703576" lon="7.677146634086967">
        <ele>2985.1599999999999</ele>
        <time>2021-07-25T10:49:06Z</time>
      </trkpt>
      <trkpt lat="45.911289397627115" lon="7.677140766754746">
        <ele>2985.3600000000001</ele>
        <time>2021-07-25T10:49:13Z</time>
      </trkpt>
      <trkpt lat="45.911258636042476" lon="7.677141521126032">
        <ele>2985.2399999999998</ele>
        <time>2021-07-25T10:49:24Z</time>
      </trkpt>
      <trkpt lat="45.911167860031128" lon="7.677108077332377">
        <ele>2983.8899999999999</ele>
        <time>2021-07-25T10:49:37Z</time>
      </trkpt>
      <trkpt lat="45.911133494228125" lon="7.677105311304331">
        <ele>2982.98</ele>
        <time>2021-07-25T10:49:41Z</time>
      </trkpt>
      <trkpt lat="45.911061493679881" lon="7.677124254405499">
        <ele>2982.0900000000001</ele>
        <time>2021-07-25T10:49:49Z</time>
      </trkpt>
      <trkpt lat="45.910975495353341" lon="7.677218047901988">
        <ele>2978.8800000000001</ele>
        <time>2021-07-25T10:50:04Z</time>
      </trkpt>
      <trkpt lat="45.91093584895134" lon="7.677319049835205">
        <ele>2975.5300000000002</ele>
        <time>2021-07-25T10:50:18Z</time>
      </trkpt>
      <trkpt lat="45.910919420421124" lon="7.677337154746056">
        <ele>2974.7800000000002</ele>
        <time>2021-07-25T10:50:20Z</time>
      </trkpt>
      <trkpt lat="45.910836942493916" lon="7.677341345697641">
        <ele>2971.6300000000001</ele>
        <time>2021-07-25T10:50:29Z</time>
      </trkpt>
      <trkpt lat="45.910828392952681" lon="7.677337322384119">
        <ele>2971.3600000000001</ele>
        <time>2021-07-25T10:50:30Z</time>
      </trkpt>
      <trkpt lat="45.910719679668546" lon="7.677335226908326">
        <ele>2969.5700000000002</ele>
        <time>2021-07-25T10:50:43Z</time>
      </trkpt>
      <trkpt lat="45.910627394914627" lon="7.677341513335705">
        <ele>2967.8800000000001</ele>
        <time>2021-07-25T10:50:55Z</time>
      </trkpt>
      <trkpt lat="45.910571236163378" lon="7.677333550527692">
        <ele>2965.5</ele>
        <time>2021-07-25T10:51:07Z</time>
      </trkpt>
      <trkpt lat="45.910562686622143" lon="7.677334053441882">
        <ele>2965.4899999999998</ele>
        <time>2021-07-25T10:51:08Z</time>
      </trkpt>
      <trkpt lat="45.910517172887921" lon="7.67730413004756">
        <ele>2962.9499999999998</ele>
        <time>2021-07-25T10:51:14Z</time>
      </trkpt>
      <trkpt lat="45.910471742972732" lon="7.677293317392469">
        <ele>2961.0599999999999</ele>
        <time>2021-07-25T10:51:21Z</time>
      </trkpt>
      <trkpt lat="45.910433018580079" lon="7.677301364019513">
        <ele>2959.0799999999999</ele>
        <time>2021-07-25T10:51:27Z</time>
      </trkpt>
      <trkpt lat="45.91038323007524" lon="7.677237577736378">
        <ele>2957.3400000000001</ele>
        <time>2021-07-25T10:51:39Z</time>
      </trkpt>
      <trkpt lat="45.910343416035175" lon="7.677214527502656">
        <ele>2955.0599999999999</ele>
        <time>2021-07-25T10:51:50Z</time>
      </trkpt>
      <trkpt lat="45.910308631137013" lon="7.677159793674946">
        <ele>2952.0999999999999</ele>
        <time>2021-07-25T10:52:01Z</time>
      </trkpt>
      <trkpt lat="45.910268230363727" lon="7.677230285480619">
        <ele>2950.3600000000001</ele>
        <time>2021-07-25T10:52:14Z</time>
      </trkpt>
      <trkpt lat="45.910228751599789" lon="7.677275212481618">
        <ele>2948.8200000000002</ele>
        <time>2021-07-25T10:52:27Z</time>
      </trkpt>
      <trkpt lat="45.910216011106968" lon="7.677303878590465">
        <ele>2947.9400000000001</ele>
        <time>2021-07-25T10:52:39Z</time>
      </trkpt>
      <trkpt lat="45.910200839862227" lon="7.677345536649227">
        <ele>2945.2600000000002</ele>
        <time>2021-07-25T10:52:54Z</time>
      </trkpt>
      <trkpt lat="45.910205701366067" lon="7.677369760349393">
        <ele>2944.6399999999999</ele>
        <time>2021-07-25T10:53:12Z</time>
      </trkpt>
      <trkpt lat="45.910181812942028" lon="7.677360791712999">
        <ele>2942.9899999999998</ele>
        <time>2021-07-25T10:53:26Z</time>
      </trkpt>
      <trkpt lat="45.910157756879926" lon="7.677356768399477">
        <ele>2941.5300000000002</ele>
        <time>2021-07-25T10:53:35Z</time>
      </trkpt>
      <trkpt lat="45.910126492381096" lon="7.677330784499645">
        <ele>2938.9000000000001</ele>
        <time>2021-07-25T10:53:47Z</time>
      </trkpt>
      <trkpt lat="45.910106375813484" lon="7.677385350689292">
        <ele>2936.8200000000002</ele>
        <time>2021-07-25T10:53:58Z</time>
      </trkpt>
      <trkpt lat="45.910087348893285" lon="7.677457267418504">
        <ele>2933.8600000000001</ele>
        <time>2021-07-25T10:54:09Z</time>
      </trkpt>
      <trkpt lat="45.910065388306975" lon="7.677509151399136">
        <ele>2930.2800000000002</ele>
        <time>2021-07-25T10:54:22Z</time>
      </trkpt>
      <trkpt lat="45.910060442984104" lon="7.677504122257233">
        <ele>2930.1300000000001</ele>
        <time>2021-07-25T10:54:23Z</time>
      </trkpt>
      <trkpt lat="45.910038901492953" lon="7.6775230653584">
        <ele>2927.79</ele>
        <time>2021-07-25T10:54:32Z</time>
      </trkpt>
      <trkpt lat="45.9100157674402" lon="7.677600597962737">
        <ele>2924.9000000000001</ele>
        <time>2021-07-25T10:54:44Z</time>
      </trkpt>
      <trkpt lat="45.909973103553057" lon="7.677621887996793">
        <ele>2921.9400000000001</ele>
        <time>2021-07-25T10:54:52Z</time>
      </trkpt>
      <trkpt lat="45.909939492121339" lon="7.677637143060565">
        <ele>2920.1300000000001</ele>
        <time>2021-07-25T10:54:59Z</time>
      </trkpt>
      <trkpt lat="45.909886099398136" lon="7.677665306255221">
        <ele>2917.2199999999998</ele>
        <time>2021-07-25T10:55:08Z</time>
      </trkpt>
      <trkpt lat="45.909811835736036" lon="7.6775938924402">
        <ele>2915.02</ele>
        <time>2021-07-25T10:55:20Z</time>
      </trkpt>
      <trkpt lat="45.909795239567757" lon="7.677509402856231">
        <ele>2913.3299999999999</ele>
        <time>2021-07-25T10:55:37Z</time>
      </trkpt>
      <trkpt lat="45.909789288416505" lon="7.677474953234196">
        <ele>2912.5300000000002</ele>
        <time>2021-07-25T10:55:40Z</time>
      </trkpt>
      <trkpt lat="45.909747211262584" lon="7.67734763212502">
        <ele>2909.6100000000001</ele>
        <time>2021-07-25T10:55:54Z</time>
      </trkpt>
      <trkpt lat="45.909752240404487" lon="7.677310332655907">
        <ele>2908.5700000000002</ele>
        <time>2021-07-25T10:56:07Z</time>
      </trkpt>
      <trkpt lat="45.909742601215839" lon="7.677237242460251">
        <ele>2906.8400000000001</ele>
        <time>2021-07-25T10:56:22Z</time>
      </trkpt>
      <trkpt lat="45.909719215705991" lon="7.677128529176116">
        <ele>2903.7600000000002</ele>
        <time>2021-07-25T10:56:35Z</time>
      </trkpt>
      <trkpt lat="45.909705553203821" lon="7.677112687379122">
        <ele>2902.3000000000002</ele>
        <time>2021-07-25T10:56:47Z</time>
      </trkpt>
      <trkpt lat="45.909674456343055" lon="7.677131127566099">
        <ele>2901.04</ele>
        <time>2021-07-25T10:57:04Z</time>
      </trkpt>
      <trkpt lat="45.909643694758415" lon="7.677189130336046">
        <ele>2899.77</ele>
        <time>2021-07-25T10:57:10Z</time>
      </trkpt>
      <trkpt lat="45.909610921517015" lon="7.677233051508665">
        <ele>2899.1100000000001</ele>
        <time>2021-07-25T10:57:14Z</time>
      </trkpt>
      <trkpt lat="45.909497430548072" lon="7.677351823076606">
        <ele>2899.3800000000001</ele>
        <time>2021-07-25T10:57:28Z</time>
      </trkpt>
      <trkpt lat="45.909469351172447" lon="7.677430780604482">
        <ele>2901.5900000000001</ele>
        <time>2021-07-25T10:57:41Z</time>
      </trkpt>
      <trkpt lat="45.909512434154749" lon="7.677483251318336">
        <ele>2901.3200000000002</ele>
        <time>2021-07-25T10:57:55Z</time>
      </trkpt>
      <trkpt lat="45.909556522965431" lon="7.677533710375428">
        <ele>2901.6900000000001</ele>
        <time>2021-07-25T10:58:06Z</time>
      </trkpt>
      <trkpt lat="45.909558534622192" lon="7.677534800022841">
        <ele>2901.5999999999999</ele>
        <time>2021-07-25T10:58:18Z</time>
      </trkpt>
      <trkpt lat="45.909596420824528" lon="7.677546534687281">
        <ele>2902.2199999999998</ele>
        <time>2021-07-25T10:58:30Z</time>
      </trkpt>
      <trkpt lat="45.909602288156748" lon="7.677512085065246">
        <ele>2903.1799999999998</ele>
        <time>2021-07-25T10:58:37Z</time>
      </trkpt>
      <trkpt lat="45.909567922353745" lon="7.677454501390457">
        <ele>2903.6599999999999</ele>
        <time>2021-07-25T10:58:49Z</time>
      </trkpt>
      <trkpt lat="45.909561635926366" lon="7.677441509440541">
        <ele>2903.4299999999998</ele>
        <time>2021-07-25T10:59:01Z</time>
      </trkpt>
      <trkpt lat="45.90956381522119" lon="7.677421811968088">
        <ele>2903.7199999999998</ele>
        <time>2021-07-25T10:59:23Z</time>
      </trkpt>
      <trkpt lat="45.909543950110674" lon="7.677422817796469">
        <ele>2903.1999999999998</ele>
        <time>2021-07-25T10:59:45Z</time>
      </trkpt>
      <trkpt lat="45.909534562379122" lon="7.677434971556068">
        <ele>2902.7199999999998</ele>
        <time>2021-07-25T11:00:07Z</time>
      </trkpt>
      <trkpt lat="45.909522157162428" lon="7.677440838888288">
        <ele>2902.0500000000002</ele>
        <time>2021-07-25T11:00:29Z</time>
      </trkpt>
      <trkpt lat="45.909500699490309" lon="7.677448382601142">
        <ele>2902.4299999999998</ele>
        <time>2021-07-25T11:00:57Z</time>
      </trkpt>
      <trkpt lat="45.909518469125032" lon="7.677451567724347">
        <ele>2902.1900000000001</ele>
        <time>2021-07-25T11:01:17Z</time>
      </trkpt>
      <trkpt lat="45.909544117748737" lon="7.677461709827185">
        <ele>2902.4499999999998</ele>
        <time>2021-07-25T11:01:41Z</time>
      </trkpt>
      <trkpt lat="45.909535149112344" lon="7.677466822788119">
        <ele>2902.23</ele>
        <time>2021-07-25T11:02:10Z</time>
      </trkpt>
      <trkpt lat="45.909564401954412" lon="7.67746732570231">
        <ele>2902.1399999999999</ele>
        <time>2021-07-25T11:02:32Z</time>
      </trkpt>
      <trkpt lat="45.909573370590806" lon="7.677458440884948">
        <ele>2902.1399999999999</ele>
        <time>2021-07-25T11:03:01Z</time>
      </trkpt>
      <trkpt lat="45.909573622047901" lon="7.67744779586792">
        <ele>2902.0700000000002</ele>
        <time>2021-07-25T11:03:21Z</time>
      </trkpt>
      <trkpt lat="45.909565910696983" lon="7.677450561895967">
        <ele>2902.54</ele>
        <time>2021-07-25T11:03:49Z</time>
      </trkpt>
      <trkpt lat="45.909560127183795" lon="7.677440755069256">
        <ele>2902.9200000000001</ele>
        <time>2021-07-25T11:04:27Z</time>
      </trkpt>
      <trkpt lat="45.909569012001157" lon="7.677450478076935">
        <ele>2902.0700000000002</ele>
        <time>2021-07-25T11:04:55Z</time>
      </trkpt>
      <trkpt lat="45.909564569592476" lon="7.677412005141377">
        <ele>2902.1300000000001</ele>
        <time>2021-07-25T11:05:16Z</time>
      </trkpt>
      <trkpt lat="45.90955501422286" lon="7.677423236891627">
        <ele>2902.1700000000001</ele>
        <time>2021-07-25T11:05:40Z</time>
      </trkpt>
      <trkpt lat="45.909550320357084" lon="7.677430864423513">
        <ele>2902.6300000000001</ele>
        <time>2021-07-25T11:06:03Z</time>
      </trkpt>
      <trkpt lat="45.909541938453913" lon="7.677459949627519">
        <ele>2901.9699999999998</ele>
        <time>2021-07-25T11:06:28Z</time>
      </trkpt>
      <trkpt lat="45.90956280939281" lon="7.677443018183112">
        <ele>2902.6300000000001</ele>
        <time>2021-07-25T11:06:51Z</time>
      </trkpt>
      <trkpt lat="45.90955937281251" lon="7.677448047325015">
        <ele>2901.6500000000001</ele>
        <time>2021-07-25T11:07:20Z</time>
      </trkpt>
      <trkpt lat="45.909561552107334" lon="7.677446203306317">
        <ele>2902.54</ele>
        <time>2021-07-25T11:07:55Z</time>
      </trkpt>
      <trkpt lat="45.909563228487968" lon="7.677440168336034">
        <ele>2902.0700000000002</ele>
        <time>2021-07-25T11:08:17Z</time>
      </trkpt>
      <trkpt lat="45.909554595127702" lon="7.677451735362411">
        <ele>2901.71</ele>
        <time>2021-07-25T11:08:49Z</time>
      </trkpt>
      <trkpt lat="45.909543195739388" lon="7.677457183599472">
        <ele>2901.3899999999999</ele>
        <time>2021-07-25T11:09:11Z</time>
      </trkpt>
      <trkpt lat="45.909573538228869" lon="7.677440084517002">
        <ele>2901.48</ele>
        <time>2021-07-25T11:09:33Z</time>
      </trkpt>
      <trkpt lat="45.909556187689304" lon="7.677420470863581">
        <ele>2901.5500000000002</ele>
        <time>2021-07-25T11:09:54Z</time>
      </trkpt>
      <trkpt lat="45.90953498147428" lon="7.677431870251894">
        <ele>2901.54</ele>
        <time>2021-07-25T11:10:19Z</time>
      </trkpt>
      <trkpt lat="45.909557277336717" lon="7.677433714270592">
        <ele>2900.9699999999998</ele>
        <time>2021-07-25T11:10:42Z</time>
      </trkpt>
      <trkpt lat="45.909553337842226" lon="7.677445448935032">
        <ele>2901.0599999999999</ele>
        <time>2021-07-25T11:11:05Z</time>
      </trkpt>
      <trkpt lat="45.909547302871943" lon="7.677442515268922">
        <ele>2901.3000000000002</ele>
        <time>2021-07-25T11:11:38Z</time>
      </trkpt>
      <trkpt lat="45.909558283165097" lon="7.677429774776101">
        <ele>2901.21</ele>
        <time>2021-07-25T11:11:59Z</time>
      </trkpt>
      <trkpt lat="45.909551493823528" lon="7.67742776311934">
        <ele>2901.25</ele>
        <time>2021-07-25T11:12:22Z</time>
      </trkpt>
      <trkpt lat="45.909560965374112" lon="7.677419129759073">
        <ele>2901.2399999999998</ele>
        <time>2021-07-25T11:12:45Z</time>
      </trkpt>
      <trkpt lat="45.90956381522119" lon="7.677423907443881">
        <ele>2901.27</ele>
        <time>2021-07-25T11:13:14Z</time>
      </trkpt>
      <trkpt lat="45.909561468288302" lon="7.677423236891627">
        <ele>2901.4099999999999</ele>
        <time>2021-07-25T11:13:36Z</time>
      </trkpt>
      <trkpt lat="45.909549817442894" lon="7.677432624623179">
        <ele>2901.9200000000001</ele>
        <time>2021-07-25T11:14:00Z</time>
      </trkpt>
      <trkpt lat="45.909513356164098" lon="7.677471684291959">
        <ele>2901.48</ele>
        <time>2021-07-25T11:14:23Z</time>
      </trkpt>
      <trkpt lat="45.909522827714682" lon="7.67747419886291">
        <ele>2901.1399999999999</ele>
        <time>2021-07-25T11:14:46Z</time>
      </trkpt>
      <trkpt lat="45.909531125798821" lon="7.677462715655565">
        <ele>2901.9000000000001</ele>
        <time>2021-07-25T11:15:08Z</time>
      </trkpt>
      <trkpt lat="45.909547554329038" lon="7.677460284903646">
        <ele>2901.48</ele>
        <time>2021-07-25T11:15:28Z</time>
      </trkpt>
      <trkpt lat="45.90954520739615" lon="7.677458021789789">
        <ele>2901.7600000000002</ele>
        <time>2021-07-25T11:15:51Z</time>
      </trkpt>
      <trkpt lat="45.909527270123363" lon="7.677480652928352">
        <ele>2901.7199999999998</ele>
        <time>2021-07-25T11:16:12Z</time>
      </trkpt>
      <trkpt lat="45.909545794129372" lon="7.677451148629189">
        <ele>2902.0500000000002</ele>
        <time>2021-07-25T11:16:36Z</time>
      </trkpt>
      <trkpt lat="45.909556858241558" lon="7.677451316267252">
        <ele>2901.5500000000002</ele>
        <time>2021-07-25T11:17:00Z</time>
      </trkpt>
      <trkpt lat="45.90957940556109" lon="7.677442263811827">
        <ele>2901.6199999999999</ele>
        <time>2021-07-25T11:17:22Z</time>
      </trkpt>
      <trkpt lat="45.909570772200823" lon="7.677452489733696">
        <ele>2901.4899999999998</ele>
        <time>2021-07-25T11:17:49Z</time>
      </trkpt>
      <trkpt lat="45.909566665068269" lon="7.677446035668254">
        <ele>2900.79</ele>
        <time>2021-07-25T11:18:28Z</time>
      </trkpt>
      <trkpt lat="45.909554595127702" lon="7.677441257983446">
        <ele>2900.6199999999999</ele>
        <time>2021-07-25T11:18:58Z</time>
      </trkpt>
      <trkpt lat="45.909544620662928" lon="7.677437653765082">
        <ele>2900.5500000000002</ele>
        <time>2021-07-25T11:19:20Z</time>
      </trkpt>
      <trkpt lat="45.909561300650239" lon="7.67742826603353">
        <ele>2900.3899999999999</ele>
        <time>2021-07-25T11:19:42Z</time>
      </trkpt>
      <trkpt lat="45.909576471894979" lon="7.677422817796469">
        <ele>2900.29</ele>
        <time>2021-07-25T11:20:04Z</time>
      </trkpt>
      <trkpt lat="45.909561300650239" lon="7.677439330145717">
        <ele>2900</ele>
        <time>2021-07-25T11:20:31Z</time>
      </trkpt>
      <trkpt lat="45.909521821886301" lon="7.6774643920362">
        <ele>2899.9899999999998</ele>
        <time>2021-07-25T11:20:53Z</time>
      </trkpt>
      <trkpt lat="45.909547638148069" lon="7.677449220791459">
        <ele>2899.8600000000001</ele>
        <time>2021-07-25T11:21:16Z</time>
      </trkpt>
      <trkpt lat="45.909531125798821" lon="7.677464140579104">
        <ele>2900.1599999999999</ele>
        <time>2021-07-25T11:21:39Z</time>
      </trkpt>
      <trkpt lat="45.90953447856009" lon="7.677460452541709">
        <ele>2899.8299999999999</ele>
        <time>2021-07-25T11:21:59Z</time>
      </trkpt>
      <trkpt lat="45.9095408488065" lon="7.677448801696301">
        <ele>2899.9899999999998</ele>
        <time>2021-07-25T11:22:19Z</time>
      </trkpt>
      <trkpt lat="45.909524755552411" lon="7.677475791424513">
        <ele>2900.1999999999998</ele>
        <time>2021-07-25T11:22:42Z</time>
      </trkpt>
      <trkpt lat="45.909526348114014" lon="7.677452154457569">
        <ele>2900.71</ele>
        <time>2021-07-25T11:23:03Z</time>
      </trkpt>
      <trkpt lat="45.909524085000157" lon="7.67744243144989">
        <ele>2900.9099999999999</ele>
        <time>2021-07-25T11:23:25Z</time>
      </trkpt>
      <trkpt lat="45.909524671733379" lon="7.677479144185782">
        <ele>2901.5599999999999</ele>
        <time>2021-07-25T11:23:49Z</time>
      </trkpt>
      <trkpt lat="45.909506063908339" lon="7.677439749240875">
        <ele>2900.1900000000001</ele>
        <time>2021-07-25T11:24:12Z</time>
      </trkpt>
      <trkpt lat="45.909526096656919" lon="7.677429355680943">
        <ele>2899.48</ele>
        <time>2021-07-25T11:24:32Z</time>
      </trkpt>
      <trkpt lat="45.909513691440225" lon="7.677441090345383">
        <ele>2899.0599999999999</ele>
        <time>2021-07-25T11:24:57Z</time>
      </trkpt>
      <trkpt lat="45.90949734672904" lon="7.677434049546719">
        <ele>2899.0999999999999</ele>
        <time>2021-07-25T11:25:17Z</time>
      </trkpt>
      <trkpt lat="45.909514110535383" lon="7.67742432653904">
        <ele>2899.27</ele>
        <time>2021-07-25T11:25:36Z</time>
      </trkpt>
      <trkpt lat="45.909520564600825" lon="7.67743413336575">
        <ele>2899.6300000000001</ele>
        <time>2021-07-25T11:25:57Z</time>
      </trkpt>
      <trkpt lat="45.909493826329708" lon="7.677436983212829">
        <ele>2899.8899999999999</ele>
        <time>2021-07-25T11:26:19Z</time>
      </trkpt>
      <trkpt lat="45.909470357000828" lon="7.67742533236742">
        <ele>2899.3000000000002</ele>
        <time>2021-07-25T11:26:41Z</time>
      </trkpt>
      <trkpt lat="45.909509751945734" lon="7.677440838888288">
        <ele>2899.5700000000002</ele>
        <time>2021-07-25T11:27:02Z</time>
      </trkpt>
      <trkpt lat="45.909524671733379" lon="7.677474450320005">
        <ele>2899.6100000000001</ele>
        <time>2021-07-25T11:27:25Z</time>
      </trkpt>
      <trkpt lat="45.909523079171777" lon="7.677465984597802">
        <ele>2899.6700000000001</ele>
        <time>2021-07-25T11:27:46Z</time>
      </trkpt>
      <trkpt lat="45.909539675340056" lon="7.677453830838203">
        <ele>2899.96</ele>
        <time>2021-07-25T11:28:16Z</time>
      </trkpt>
      <trkpt lat="45.90953104197979" lon="7.677447376772761">
        <ele>2899.7199999999998</ele>
        <time>2021-07-25T11:28:39Z</time>
      </trkpt>
      <trkpt lat="45.909545039758086" lon="7.677464308217168">
        <ele>2899.0900000000001</ele>
        <time>2021-07-25T11:29:06Z</time>
      </trkpt>
      <trkpt lat="45.909547386690974" lon="7.677483083680272">
        <ele>2898.6999999999998</ele>
        <time>2021-07-25T11:29:30Z</time>
      </trkpt>
      <trkpt lat="45.90954034589231" lon="7.677472941577435">
        <ele>2898.8800000000001</ele>
        <time>2021-07-25T11:29:50Z</time>
      </trkpt>
      <trkpt lat="45.909506734460592" lon="7.677469002082944">
        <ele>2898.75</ele>
        <time>2021-07-25T11:30:10Z</time>
      </trkpt>
      <trkpt lat="45.909505812451243" lon="7.677451148629189">
        <ele>2900.1799999999998</ele>
        <time>2021-07-25T11:30:31Z</time>
      </trkpt>
      <trkpt lat="45.909514026716352" lon="7.677480904385448">
        <ele>2900.1300000000001</ele>
        <time>2021-07-25T11:30:50Z</time>
      </trkpt>
      <trkpt lat="45.909509668126702" lon="7.677476042881608">
        <ele>2899.9099999999999</ele>
        <time>2021-07-25T11:31:09Z</time>
      </trkpt>
      <trkpt lat="45.909519977867603" lon="7.677477383986116">
        <ele>2899.8299999999999</ele>
        <time>2021-07-25T11:31:28Z</time>
      </trkpt>
      <trkpt lat="45.909530790522695" lon="7.677462380379438">
        <ele>2899.7800000000002</ele>
        <time>2021-07-25T11:31:48Z</time>
      </trkpt>
      <trkpt lat="45.909528443589807" lon="7.677457518875599">
        <ele>2900.3600000000001</ele>
        <time>2021-07-25T11:32:10Z</time>
      </trkpt>
      <trkpt lat="45.909524839371443" lon="7.677481239661574">
        <ele>2899.5599999999999</ele>
        <time>2021-07-25T11:32:30Z</time>
      </trkpt>
      <trkpt lat="45.909545961767435" lon="7.67746489495039">
        <ele>2899.5</ele>
        <time>2021-07-25T11:33:06Z</time>
      </trkpt>
      <trkpt lat="45.909525090828538" lon="7.677457267418504">
        <ele>2899.0100000000002</ele>
        <time>2021-07-25T11:33:40Z</time>
      </trkpt>
      <trkpt lat="45.909527018666267" lon="7.677450142800808">
        <ele>2899.3600000000001</ele>
        <time>2021-07-25T11:34:02Z</time>
      </trkpt>
      <trkpt lat="45.909502627328038" lon="7.677476294338703">
        <ele>2899.7399999999998</ele>
        <time>2021-07-25T11:34:24Z</time>
      </trkpt>
      <trkpt lat="45.909494496881962" lon="7.677483502775431">
        <ele>2900.6900000000001</ele>
        <time>2021-07-25T11:34:36Z</time>
      </trkpt>
      <trkpt lat="45.909492149949074" lon="7.677492387592793">
        <ele>2900.6300000000001</ele>
        <time>2021-07-25T11:34:48Z</time>
      </trkpt>
      <trkpt lat="45.909477230161428" lon="7.677498422563076">
        <ele>2900.2199999999998</ele>
        <time>2021-07-25T11:35:03Z</time>
      </trkpt>
      <trkpt lat="45.909472201019526" lon="7.677527591586113">
        <ele>2900.3699999999999</ele>
        <time>2021-07-25T11:35:25Z</time>
      </trkpt>
      <trkpt lat="45.909477481618524" lon="7.677574446424842">
        <ele>2900.0999999999999</ele>
        <time>2021-07-25T11:35:31Z</time>
      </trkpt>
      <trkpt lat="45.909409839659929" lon="7.677498003467917">
        <ele>2898.7600000000002</ele>
        <time>2021-07-25T11:35:43Z</time>
      </trkpt>
      <trkpt lat="45.909377653151751" lon="7.677364479750395">
        <ele>2896.02</ele>
        <time>2021-07-25T11:35:57Z</time>
      </trkpt>
      <trkpt lat="45.909337336197495" lon="7.677261298522353">
        <ele>2892.8099999999999</ele>
        <time>2021-07-25T11:36:08Z</time>
      </trkpt>
      <trkpt lat="45.909275561571121" lon="7.677167672663927">
        <ele>2889.7199999999998</ele>
        <time>2021-07-25T11:36:22Z</time>
      </trkpt>
      <trkpt lat="45.909272795543075" lon="7.677168594673276">
        <ele>2890.1700000000001</ele>
        <time>2021-07-25T11:36:40Z</time>
      </trkpt>
      <trkpt lat="45.909235160797834" lon="7.677106903865933">
        <ele>2888.3200000000002</ele>
        <time>2021-07-25T11:36:51Z</time>
      </trkpt>
      <trkpt lat="45.909152934327722" lon="7.677055941894651">
        <ele>2885.3000000000002</ele>
        <time>2021-07-25T11:37:02Z</time>
      </trkpt>
      <trkpt lat="45.909131560474634" lon="7.677075807005167">
        <ele>2884.6900000000001</ele>
        <time>2021-07-25T11:37:15Z</time>
      </trkpt>
      <trkpt lat="45.909152682870626" lon="7.67708033323288">
        <ele>2884.5100000000002</ele>
        <time>2021-07-25T11:37:56Z</time>
      </trkpt>
      <trkpt lat="45.909163746982813" lon="7.677051331847906">
        <ele>2884.1199999999999</ele>
        <time>2021-07-25T11:38:08Z</time>
      </trkpt>
      <trkpt lat="45.909167770296335" lon="7.676921747624874">
        <ele>2882.75</ele>
        <time>2021-07-25T11:38:17Z</time>
      </trkpt>
      <trkpt lat="45.909131895750761" lon="7.676794342696667">
        <ele>2879.3899999999999</ele>
        <time>2021-07-25T11:38:26Z</time>
      </trkpt>
      <trkpt lat="45.90910448692739" lon="7.6766855455935">
        <ele>2876.3200000000002</ele>
        <time>2021-07-25T11:38:34Z</time>
      </trkpt>
      <trkpt lat="45.909110773354769" lon="7.676614802330732">
        <ele>2873.6300000000001</ele>
        <time>2021-07-25T11:38:40Z</time>
      </trkpt>
      <trkpt lat="45.909098703414202" lon="7.676531486213207">
        <ele>2873.6799999999998</ele>
        <time>2021-07-25T11:38:47Z</time>
      </trkpt>
      <trkpt lat="45.909072803333402" lon="7.676408858969808">
        <ele>2869.5999999999999</ele>
        <time>2021-07-25T11:38:56Z</time>
      </trkpt>
      <trkpt lat="45.909070204943419" lon="7.676391927525401">
        <ele>2870.5700000000002</ele>
        <time>2021-07-25T11:38:57Z</time>
      </trkpt>
      <trkpt lat="45.90906634926796" lon="7.676349012181163">
        <ele>2868.9000000000001</ele>
        <time>2021-07-25T11:39:00Z</time>
      </trkpt>
      <trkpt lat="45.909008514136076" lon="7.67602639272809">
        <ele>2866.0999999999999</ele>
        <time>2021-07-25T11:39:19Z</time>
      </trkpt>
      <trkpt lat="45.908934501931071" lon="7.675675023347139">
        <ele>2863.1900000000001</ele>
        <time>2021-07-25T11:39:38Z</time>
      </trkpt>
      <trkpt lat="45.908855628222227" lon="7.675443682819605">
        <ele>2861.3499999999999</ele>
        <time>2021-07-25T11:39:53Z</time>
      </trkpt>
      <trkpt lat="45.908797793090343" lon="7.675275625661016">
        <ele>2858.29</ele>
        <time>2021-07-25T11:40:05Z</time>
      </trkpt>
      <trkpt lat="45.90875806286931" lon="7.675101533532143">
        <ele>2854.98</ele>
        <time>2021-07-25T11:40:17Z</time>
      </trkpt>
      <trkpt lat="45.908759739249945" lon="7.675054762512445">
        <ele>2853.5999999999999</ele>
        <time>2021-07-25T11:40:20Z</time>
      </trkpt>
      <trkpt lat="45.908722607418895" lon="7.67493573948741">
        <ele>2851.6900000000001</ele>
        <time>2021-07-25T11:40:29Z</time>
      </trkpt>
      <trkpt lat="45.908670723438263" lon="7.674761982634664">
        <ele>2848.1300000000001</ele>
        <time>2021-07-25T11:40:42Z</time>
      </trkpt>
      <trkpt lat="45.908622024580836" lon="7.674527876079083">
        <ele>2845.3000000000002</ele>
        <time>2021-07-25T11:40:57Z</time>
      </trkpt>
      <trkpt lat="45.908564776182175" lon="7.674349173903465">
        <ele>2841.6300000000001</ele>
        <time>2021-07-25T11:41:10Z</time>
      </trkpt>
      <trkpt lat="45.908538037911057" lon="7.674303324893117">
        <ele>2841.1199999999999</ele>
        <time>2021-07-25T11:41:14Z</time>
      </trkpt>
      <trkpt lat="45.908470815047622" lon="7.67416862770915">
        <ele>2837.5700000000002</ele>
        <time>2021-07-25T11:41:25Z</time>
      </trkpt>
      <trkpt lat="45.908424630761147" lon="7.674080030992627">
        <ele>2835.6799999999998</ele>
        <time>2021-07-25T11:41:32Z</time>
      </trkpt>
      <trkpt lat="45.908386157825589" lon="7.674080785363913">
        <ele>2835.1100000000001</ele>
        <time>2021-07-25T11:41:36Z</time>
      </trkpt>
      <trkpt lat="45.908324467018247" lon="7.674131244421005">
        <ele>2835.6799999999998</ele>
        <time>2021-07-25T11:41:42Z</time>
      </trkpt>
      <trkpt lat="45.908263949677348" lon="7.6742057595402">
        <ele>2834.8699999999999</ele>
        <time>2021-07-25T11:41:56Z</time>
      </trkpt>
      <trkpt lat="45.908254897221923" lon="7.674209950491786">
        <ele>2833.52</ele>
        <time>2021-07-25T11:42:02Z</time>
      </trkpt>
      <trkpt lat="45.908248694613576" lon="7.674218080937862">
        <ele>2834.5500000000002</ele>
        <time>2021-07-25T11:42:14Z</time>
      </trkpt>
      <trkpt lat="45.908233774825931" lon="7.674237275496125">
        <ele>2834.7399999999998</ele>
        <time>2021-07-25T11:42:20Z</time>
      </trkpt>
      <trkpt lat="45.908192954957485" lon="7.67430005595088">
        <ele>2835.2199999999998</ele>
        <time>2021-07-25T11:42:26Z</time>
      </trkpt>
      <trkpt lat="45.908106118440628" lon="7.674386473372579">
        <ele>2835.8099999999999</ele>
        <time>2021-07-25T11:42:38Z</time>
      </trkpt>
      <trkpt lat="45.908029759302735" lon="7.674450678750873">
        <ele>2836.5</ele>
        <time>2021-07-25T11:42:49Z</time>
      </trkpt>
      <trkpt lat="45.907909981906414" lon="7.674519326537848">
        <ele>2836.3200000000002</ele>
        <time>2021-07-25T11:43:05Z</time>
      </trkpt>
      <trkpt lat="45.907810069620609" lon="7.674512537196279">
        <ele>2835.3899999999999</ele>
        <time>2021-07-25T11:43:19Z</time>
      </trkpt>
      <trkpt lat="45.907746031880379" lon="7.674447912722826">
        <ele>2832.3699999999999</ele>
        <time>2021-07-25T11:43:32Z</time>
      </trkpt>
      <trkpt lat="45.90770605020225" lon="7.674415810033679">
        <ele>2831.1900000000001</ele>
        <time>2021-07-25T11:43:37Z</time>
      </trkpt>
      <trkpt lat="45.907629858702421" lon="7.67431179061532">
        <ele>2828.6199999999999</ele>
        <time>2021-07-25T11:43:50Z</time>
      </trkpt>
      <trkpt lat="45.907538160681725" lon="7.674203747883439">
        <ele>2826.52</ele>
        <time>2021-07-25T11:44:03Z</time>
      </trkpt>
      <trkpt lat="45.907415617257357" lon="7.674092520028353">
        <ele>2825.6300000000001</ele>
        <time>2021-07-25T11:44:18Z</time>
      </trkpt>
      <trkpt lat="45.907265245914459" lon="7.674030577763915">
        <ele>2824.6399999999999</ele>
        <time>2021-07-25T11:44:33Z</time>
      </trkpt>
      <trkpt lat="45.907092578709126" lon="7.674019932746887">
        <ele>2821.9099999999999</ele>
        <time>2021-07-25T11:44:50Z</time>
      </trkpt>
      <trkpt lat="45.907072210684419" lon="7.674014819785953">
        <ele>2820.96</ele>
        <time>2021-07-25T11:44:52Z</time>
      </trkpt>
      <trkpt lat="45.906951176002622" lon="7.673971233889461">
        <ele>2817.9400000000001</ele>
        <time>2021-07-25T11:45:05Z</time>
      </trkpt>
      <trkpt lat="45.906788147985935" lon="7.673892946913838">
        <ele>2814.9299999999998</ele>
        <time>2021-07-25T11:45:21Z</time>
      </trkpt>
      <trkpt lat="45.90661589987576" lon="7.673801500350237">
        <ele>2813.1399999999999</ele>
        <time>2021-07-25T11:45:38Z</time>
      </trkpt>
      <trkpt lat="45.906474078074098" lon="7.673672335222364">
        <ele>2811.5900000000001</ele>
        <time>2021-07-25T11:45:53Z</time>
      </trkpt>
      <trkpt lat="45.906333597376943" lon="7.673521293327212">
        <ele>2810.8600000000001</ele>
        <time>2021-07-25T11:46:09Z</time>
      </trkpt>
      <trkpt lat="45.906199319288135" lon="7.673371005803347">
        <ele>2810.3899999999999</ele>
        <time>2021-07-25T11:46:26Z</time>
      </trkpt>
      <trkpt lat="45.906037213280797" lon="7.673221305012703">
        <ele>2808.7800000000002</ele>
        <time>2021-07-25T11:46:44Z</time>
      </trkpt>
      <trkpt lat="45.905883237719536" lon="7.673105634748936">
        <ele>2807.6700000000001</ele>
        <time>2021-07-25T11:47:01Z</time>
      </trkpt>
      <trkpt lat="45.905727250501513" lon="7.67302324064076">
        <ele>2806.3299999999999</ele>
        <time>2021-07-25T11:47:17Z</time>
      </trkpt>
      <trkpt lat="45.90558148920536" lon="7.672914108261466">
        <ele>2804.7800000000002</ele>
        <time>2021-07-25T11:47:33Z</time>
      </trkpt>
      <trkpt lat="45.905481912195683" lon="7.672703387215734">
        <ele>2803.6799999999998</ele>
        <time>2021-07-25T11:47:50Z</time>
      </trkpt>
      <trkpt lat="45.905420556664467" lon="7.672493504360318">
        <ele>2802.8499999999999</ele>
        <time>2021-07-25T11:48:06Z</time>
      </trkpt>
      <trkpt lat="45.90537135489285" lon="7.67232159152627">
        <ele>2800.25</ele>
        <time>2021-07-25T11:48:23Z</time>
      </trkpt>
      <trkpt lat="45.905344029888511" lon="7.67222092486918">
        <ele>2796.96</ele>
        <time>2021-07-25T11:48:35Z</time>
      </trkpt>
      <trkpt lat="45.905318632721901" lon="7.672135261818767">
        <ele>2794.46</ele>
        <time>2021-07-25T11:48:47Z</time>
      </trkpt>
      <trkpt lat="45.905292984098196" lon="7.672062171623111">
        <ele>2791.3800000000001</ele>
        <time>2021-07-25T11:48:57Z</time>
      </trkpt>
      <trkpt lat="45.90525409206748" lon="7.672001905739307">
        <ele>2788.2399999999998</ele>
        <time>2021-07-25T11:49:09Z</time>
      </trkpt>
      <trkpt lat="45.905235819518566" lon="7.671928899362683">
        <ele>2785.1900000000001</ele>
        <time>2021-07-25T11:49:21Z</time>
      </trkpt>
      <trkpt lat="45.905201369896531" lon="7.671840973198414">
        <ele>2782.1700000000001</ele>
        <time>2021-07-25T11:49:34Z</time>
      </trkpt>
      <trkpt lat="45.905132219195366" lon="7.671729242429137">
        <ele>2778.8699999999999</ele>
        <time>2021-07-25T11:49:49Z</time>
      </trkpt>
      <trkpt lat="45.905045550316572" lon="7.671675682067871">
        <ele>2776.54</ele>
        <time>2021-07-25T11:50:02Z</time>
      </trkpt>
      <trkpt lat="45.905021913349628" lon="7.671669814735651">
        <ele>2775.9000000000001</ele>
        <time>2021-07-25T11:50:05Z</time>
      </trkpt>
      <trkpt lat="45.90489786118269" lon="7.671597143635154">
        <ele>2773.4499999999998</ele>
        <time>2021-07-25T11:50:21Z</time>
      </trkpt>
      <trkpt lat="45.904790069907904" lon="7.671488933265209">
        <ele>2770.8699999999999</ele>
        <time>2021-07-25T11:50:37Z</time>
      </trkpt>
      <trkpt lat="45.904761236160994" lon="7.671456914395094">
        <ele>2769.9699999999998</ele>
        <time>2021-07-25T11:50:41Z</time>
      </trkpt>
      <trkpt lat="45.904654618352652" lon="7.671276703476906">
        <ele>2767.4699999999998</ele>
        <time>2021-07-25T11:50:59Z</time>
      </trkpt>
      <trkpt lat="45.904610613361001" lon="7.67115717753768">
        <ele>2765.7800000000002</ele>
        <time>2021-07-25T11:51:10Z</time>
      </trkpt>
      <trkpt lat="45.904527045786381" lon="7.670964309945703">
        <ele>2763.4400000000001</ele>
        <time>2021-07-25T11:51:26Z</time>
      </trkpt>
      <trkpt lat="45.904445825144649" lon="7.670762054622173">
        <ele>2761.96</ele>
        <time>2021-07-25T11:51:42Z</time>
      </trkpt>
      <trkpt lat="45.904388409107924" lon="7.670589219778776">
        <ele>2760.0599999999999</ele>
        <time>2021-07-25T11:51:57Z</time>
      </trkpt>
      <trkpt lat="45.904327472671866" lon="7.670415043830872">
        <ele>2756.9400000000001</ele>
        <time>2021-07-25T11:52:15Z</time>
      </trkpt>
      <trkpt lat="45.904279192909598" lon="7.670330638065934">
        <ele>2753.9099999999999</ele>
        <time>2021-07-25T11:52:26Z</time>
      </trkpt>
      <trkpt lat="45.904269218444824" lon="7.670314125716686">
        <ele>2753.2600000000002</ele>
        <time>2021-07-25T11:52:28Z</time>
      </trkpt>
      <trkpt lat="45.904255053028464" lon="7.670291578397155">
        <ele>2752.3299999999999</ele>
        <time>2021-07-25T11:52:31Z</time>
      </trkpt>
      <trkpt lat="45.904199229553342" lon="7.670210190117359">
        <ele>2748.8899999999999</ele>
        <time>2021-07-25T11:52:37Z</time>
      </trkpt>
      <trkpt lat="45.904172826558352" lon="7.670150510966778">
        <ele>2745.8499999999999</ele>
        <time>2021-07-25T11:52:41Z</time>
      </trkpt>
      <trkpt lat="45.904163857921958" lon="7.670119162648916">
        <ele>2744.5300000000002</ele>
        <time>2021-07-25T11:52:43Z</time>
      </trkpt>
      <trkpt lat="45.904119517654181" lon="7.670068787410855">
        <ele>2741.8800000000001</ele>
        <time>2021-07-25T11:52:47Z</time>
      </trkpt>
      <trkpt lat="45.904068723320961" lon="7.670001899823546">
        <ele>2737.8299999999999</ele>
        <time>2021-07-25T11:52:52Z</time>
      </trkpt>
      <trkpt lat="45.90405061841011" lon="7.669964600354433">
        <ele>2736.5700000000002</ele>
        <time>2021-07-25T11:52:54Z</time>
      </trkpt>
      <trkpt lat="45.904015246778727" lon="7.669911459088326">
        <ele>2734.5999999999999</ele>
        <time>2021-07-25T11:52:57Z</time>
      </trkpt>
      <trkpt lat="45.903984401375055" lon="7.669868711382151">
        <ele>2732.1199999999999</ele>
        <time>2021-07-25T11:53:02Z</time>
      </trkpt>
      <trkpt lat="45.90395187959075" lon="7.669827304780483">
        <ele>2730.5799999999999</ele>
        <time>2021-07-25T11:53:11Z</time>
      </trkpt>
      <trkpt lat="45.903874514624476" lon="7.669638879597187">
        <ele>2727.96</ele>
        <time>2021-07-25T11:53:24Z</time>
      </trkpt>
      <trkpt lat="45.903783487156034" lon="7.669409969821572">
        <ele>2726.8200000000002</ele>
        <time>2021-07-25T11:53:40Z</time>
      </trkpt>
      <trkpt lat="45.903713833540678" lon="7.669195476919413">
        <ele>2723.79</ele>
        <time>2021-07-25T11:53:55Z</time>
      </trkpt>
      <trkpt lat="45.903658261522651" lon="7.669006465002894">
        <ele>2720.3899999999999</ele>
        <time>2021-07-25T11:54:09Z</time>
      </trkpt>
      <trkpt lat="45.903625320643187" lon="7.668854584917426">
        <ele>2717.1399999999999</ele>
        <time>2021-07-25T11:54:21Z</time>
      </trkpt>
      <trkpt lat="45.903607718646526" lon="7.668709410354495">
        <ele>2713.98</ele>
        <time>2021-07-25T11:54:34Z</time>
      </trkpt>
      <trkpt lat="45.903603192418814" lon="7.668592063710094">
        <ele>2710.79</ele>
        <time>2021-07-25T11:54:44Z</time>
      </trkpt>
      <trkpt lat="45.903614843264222" lon="7.668556189164519">
        <ele>2710.1799999999998</ele>
        <time>2021-07-25T11:54:47Z</time>
      </trkpt>
      <trkpt lat="45.903654238209128" lon="7.668387209996581">
        <ele>2707.0500000000002</ele>
        <time>2021-07-25T11:55:03Z</time>
      </trkpt>
      <trkpt lat="45.903682736679912" lon="7.668234743177891">
        <ele>2704.77</ele>
        <time>2021-07-25T11:55:15Z</time>
      </trkpt>
      <trkpt lat="45.903633199632168" lon="7.66811060719192">
        <ele>2702.77</ele>
        <time>2021-07-25T11:55:28Z</time>
      </trkpt>
      <trkpt lat="45.90364258736372" lon="7.668114127591252">
        <ele>2701.8699999999999</ele>
        <time>2021-07-25T11:55:38Z</time>
      </trkpt>
      <trkpt lat="45.903635127469897" lon="7.668123599141836">
        <ele>2701.7800000000002</ele>
        <time>2021-07-25T11:56:01Z</time>
      </trkpt>
      <trkpt lat="45.903638061136007" lon="7.668135585263372">
        <ele>2701.7399999999998</ele>
        <time>2021-07-25T11:56:20Z</time>
      </trkpt>
      <trkpt lat="45.903620710596442" lon="7.668118989095092">
        <ele>2702.5900000000001</ele>
        <time>2021-07-25T11:56:26Z</time>
      </trkpt>
      <trkpt lat="45.903633115813136" lon="7.668119072914124">
        <ele>2702.7199999999998</ele>
        <time>2021-07-25T11:56:40Z</time>
      </trkpt>
      <trkpt lat="45.903573017567396" lon="7.668112786486745">
        <ele>2702.1700000000001</ele>
        <time>2021-07-25T11:56:52Z</time>
      </trkpt>
      <trkpt lat="45.903540663421154" lon="7.668109685182571">
        <ele>2700.9699999999998</ele>
        <time>2021-07-25T11:56:59Z</time>
      </trkpt>
      <trkpt lat="45.903533371165395" lon="7.668111193925142">
        <ele>2700.98</ele>
        <time>2021-07-25T11:57:17Z</time>
      </trkpt>
      <trkpt lat="45.903526414185762" lon="7.668099543079734">
        <ele>2700.71</ele>
        <time>2021-07-25T11:57:30Z</time>
      </trkpt>
      <trkpt lat="45.903529264032841" lon="7.66809350810945">
        <ele>2700.1500000000001</ele>
        <time>2021-07-25T11:57:51Z</time>
      </trkpt>
      <trkpt lat="45.903533371165395" lon="7.668088562786579">
        <ele>2700.27</ele>
        <time>2021-07-25T11:58:10Z</time>
      </trkpt>
      <trkpt lat="45.903533371165395" lon="7.66809543594718">
        <ele>2700.25</ele>
        <time>2021-07-25T11:58:35Z</time>
      </trkpt>
      <trkpt lat="45.903529264032841" lon="7.668092250823975">
        <ele>2699.9000000000001</ele>
        <time>2021-07-25T11:58:52Z</time>
      </trkpt>
      <trkpt lat="45.903511075302958" lon="7.668140614405274">
        <ele>2699.54</ele>
        <time>2021-07-25T11:59:05Z</time>
      </trkpt>
      <trkpt lat="45.903499508276582" lon="7.668152181431651">
        <ele>2699.27</ele>
        <time>2021-07-25T11:59:15Z</time>
      </trkpt>
      <trkpt lat="45.903450893238187" lon="7.668223259970546">
        <ele>2684.98046875</ele>
      </trkpt>
      <trkpt lat="45.903289206326008" lon="7.668289057910442">
        <ele>2682.30859375</ele>
      </trkpt>
      <trkpt lat="45.903167920187116" lon="7.668381175026298">
        <ele>2680.53125</ele>
      </trkpt>
      <trkpt lat="45.903024170547724" lon="7.668506233021617">
        <ele>2676.90234375</ele>
      </trkpt>
      <trkpt lat="45.90296583250165" lon="7.668591728433967">
        <ele>2674.96875</ele>
      </trkpt>
      <trkpt lat="45.902871452271938" lon="7.668677307665348">
        <ele>2671.375</ele>
      </trkpt>
      <trkpt lat="45.902759218588471" lon="7.66874972730875">
        <ele>2667.84375</ele>
      </trkpt>
      <trkpt lat="45.902651427313685" lon="7.668848382309079">
        <ele>2663.86328125</ele>
      </trkpt>
      <trkpt lat="45.902543636038899" lon="7.668940499424934">
        <ele>2660.22265625</ele>
      </trkpt>
      <trkpt lat="45.902480687946081" lon="7.668993137776852">
        <ele>2659.39453125</ele>
      </trkpt>
      <trkpt lat="45.902426792308688" lon="7.668887861073017">
        <ele>2657.8671875</ele>
      </trkpt>
      <trkpt lat="45.902354959398508" lon="7.668841844424605">
        <ele>2655.9921875</ele>
      </trkpt>
      <trkpt lat="45.902314558625221" lon="7.668782584369183">
        <ele>2654.4375</ele>
      </trkpt>
      <trkpt lat="45.902277175337076" lon="7.668674290180206">
        <ele>2629.48</ele>
        <time>2021-07-25T12:05:15Z</time>
      </trkpt>
      <trkpt lat="45.902252113446593" lon="7.668618718162179">
        <ele>2632.6300000000001</ele>
        <time>2021-07-25T12:05:19Z</time>
      </trkpt>
      <trkpt lat="45.902216155081987" lon="7.668558284640312">
        <ele>2635.7399999999998</ele>
        <time>2021-07-25T12:05:24Z</time>
      </trkpt>
      <trkpt lat="45.902177598327398" lon="7.668496258556843">
        <ele>2637.8899999999999</ele>
        <time>2021-07-25T12:05:29Z</time>
      </trkpt>
      <trkpt lat="45.902124876156449" lon="7.668390143662691">
        <ele>2641.1199999999999</ele>
        <time>2021-07-25T12:05:38Z</time>
      </trkpt>
      <trkpt lat="45.902111632749438" lon="7.668193336576223">
        <ele>2642.4899999999998</ele>
        <time>2021-07-25T12:05:52Z</time>
      </trkpt>
      <trkpt lat="45.902061508968472" lon="7.668075570836663">
        <ele>2640.6599999999999</ele>
        <time>2021-07-25T12:06:05Z</time>
      </trkpt>
      <trkpt lat="45.902047259733081" lon="7.668053694069386">
        <ele>2640.1199999999999</ele>
        <time>2021-07-25T12:06:08Z</time>
      </trkpt>
      <trkpt lat="45.901984730735421" lon="7.66796937212348">
        <ele>2638.3699999999999</ele>
        <time>2021-07-25T12:06:19Z</time>
      </trkpt>
      <trkpt lat="45.901921279728413" lon="7.66788387671113">
        <ele>2636.04</ele>
        <time>2021-07-25T12:06:32Z</time>
      </trkpt>
      <trkpt lat="45.901883980259299" lon="7.667830651625991">
        <ele>2634.1799999999998</ele>
        <time>2021-07-25T12:06:38Z</time>
      </trkpt>
      <trkpt lat="45.901877693831921" lon="7.667820006608963">
        <ele>2633.7600000000002</ele>
        <time>2021-07-25T12:06:39Z</time>
      </trkpt>
      <trkpt lat="45.901766298338771" lon="7.667637029662728">
        <ele>2631.5999999999999</ele>
        <time>2021-07-25T12:06:54Z</time>
      </trkpt>
      <trkpt lat="45.901689017191529" lon="7.667511636391282">
        <ele>2630.4200000000001</ele>
        <time>2021-07-25T12:07:09Z</time>
      </trkpt>
      <trkpt lat="45.901644257828593" lon="7.667536530643702">
        <ele>2629.4200000000001</ele>
        <time>2021-07-25T12:07:20Z</time>
      </trkpt>
      <trkpt lat="45.901602935045958" lon="7.667520605027676">
        <ele>2627.1399999999999</ele>
        <time>2021-07-25T12:07:30Z</time>
      </trkpt>
      <trkpt lat="45.901596732437611" lon="7.667505601420999">
        <ele>2627.0100000000002</ele>
        <time>2021-07-25T12:07:37Z</time>
      </trkpt>
      <trkpt lat="45.901553062722087" lon="7.667460758239031">
        <ele>2623.9499999999998</ele>
        <time>2021-07-25T12:07:44Z</time>
      </trkpt>
      <trkpt lat="45.901519870385528" lon="7.667407281696796">
        <ele>2620.6700000000001</ele>
        <time>2021-07-25T12:07:54Z</time>
      </trkpt>
      <trkpt lat="45.901502184569836" lon="7.667400659993291">
        <ele>2620</ele>
        <time>2021-07-25T12:07:56Z</time>
      </trkpt>
      <trkpt lat="45.901451390236616" lon="7.66736545599997">
        <ele>2618.3200000000002</ele>
        <time>2021-07-25T12:08:03Z</time>
      </trkpt>
      <trkpt lat="45.901363799348474" lon="7.667302927002311">
        <ele>2615.23</ele>
        <time>2021-07-25T12:08:15Z</time>
      </trkpt>
      <trkpt lat="45.901326835155487" lon="7.667161272838712">
        <ele>2612.2399999999998</ele>
        <time>2021-07-25T12:08:27Z</time>
      </trkpt>
      <trkpt lat="45.901308814063668" lon="7.667133528739214">
        <ele>2611.3600000000001</ele>
        <time>2021-07-25T12:08:30Z</time>
      </trkpt>
      <trkpt lat="45.901205046102405" lon="7.667032526805997">
        <ele>2608.29</ele>
        <time>2021-07-25T12:08:43Z</time>
      </trkpt>
      <trkpt lat="45.901119215413928" lon="7.666929680854082">
        <ele>2604.5700000000002</ele>
        <time>2021-07-25T12:08:55Z</time>
      </trkpt>
      <trkpt lat="45.901105552911758" lon="7.666914509609342">
        <ele>2604.52</ele>
        <time>2021-07-25T12:08:57Z</time>
      </trkpt>
      <trkpt lat="45.901042520999908" lon="7.666892549023032">
        <ele>2603.04</ele>
        <time>2021-07-25T12:09:04Z</time>
      </trkpt>
      <trkpt lat="45.901023913174868" lon="7.666902104392648">
        <ele>2602.1599999999999</ele>
        <time>2021-07-25T12:09:06Z</time>
      </trkpt>
      <trkpt lat="45.900915954262018" lon="7.66694619320333">
        <ele>2600.4299999999998</ele>
        <time>2021-07-25T12:09:18Z</time>
      </trkpt>
      <trkpt lat="45.900794919580221" lon="7.666986929252744">
        <ele>2597.3899999999999</ele>
        <time>2021-07-25T12:09:31Z</time>
      </trkpt>
      <trkpt lat="45.900670532137156" lon="7.666956502944231">
        <ele>2594.4099999999999</ele>
        <time>2021-07-25T12:09:46Z</time>
      </trkpt>
      <trkpt lat="45.900576654821634" lon="7.666821470484138">
        <ele>2591.0799999999999</ele>
        <time>2021-07-25T12:10:01Z</time>
      </trkpt>
      <trkpt lat="45.900495937094092" lon="7.666751397773624">
        <ele>2588.1300000000001</ele>
        <time>2021-07-25T12:10:15Z</time>
      </trkpt>
      <trkpt lat="45.900390911847353" lon="7.666669758036733">
        <ele>2585.1700000000001</ele>
        <time>2021-07-25T12:10:28Z</time>
      </trkpt>
      <trkpt lat="45.900351349264383" lon="7.66664712689817">
        <ele>2584.54</ele>
        <time>2021-07-25T12:10:34Z</time>
      </trkpt>
      <trkpt lat="45.900221094489098" lon="7.666608737781644">
        <ele>2581.2399999999998</ele>
        <time>2021-07-25T12:10:47Z</time>
      </trkpt>
      <trkpt lat="45.90008681640029" lon="7.666484182700515">
        <ele>2578.3200000000002</ele>
        <time>2021-07-25T12:11:02Z</time>
      </trkpt>
      <trkpt lat="45.900008697062731" lon="7.66640623100102">
        <ele>2575.54</ele>
        <time>2021-07-25T12:11:13Z</time>
      </trkpt>
      <trkpt lat="45.899958740919828" lon="7.666363148018718">
        <ele>2573.9899999999998</ele>
        <time>2021-07-25T12:11:20Z</time>
      </trkpt>
      <trkpt lat="45.899939127266407" lon="7.666365411132574">
        <ele>2573.3899999999999</ele>
        <time>2021-07-25T12:11:22Z</time>
      </trkpt>
      <trkpt lat="45.899860253557563" lon="7.666267594322562">
        <ele>2570.3299999999999</ele>
        <time>2021-07-25T12:11:33Z</time>
      </trkpt>
      <trkpt lat="45.899797892197967" lon="7.666212441399694">
        <ele>2568.0500000000002</ele>
        <time>2021-07-25T12:11:41Z</time>
      </trkpt>
      <trkpt lat="45.899773584678769" lon="7.666192827746272">
        <ele>2567.3899999999999</ele>
        <time>2021-07-25T12:11:44Z</time>
      </trkpt>
      <trkpt lat="45.899692783132195" lon="7.66605930402875">
        <ele>2564.8499999999999</ele>
        <time>2021-07-25T12:11:57Z</time>
      </trkpt>
      <trkpt lat="45.899615585803986" lon="7.665869286283851">
        <ele>2562.3899999999999</ele>
        <time>2021-07-25T12:12:13Z</time>
      </trkpt>
      <trkpt lat="45.899510644376278" lon="7.665690248832107">
        <ele>2560.3200000000002</ele>
        <time>2021-07-25T12:12:28Z</time>
      </trkpt>
      <trkpt lat="45.899430681020021" lon="7.665523029863834">
        <ele>2557.8000000000002</ele>
        <time>2021-07-25T12:12:42Z</time>
      </trkpt>
      <trkpt lat="45.899355076253414" lon="7.665330749005079">
        <ele>2555.23</ele>
        <time>2021-07-25T12:12:57Z</time>
      </trkpt>
      <trkpt lat="45.899292714893818" lon="7.665207786485553">
        <ele>2552.9899999999998</ele>
        <time>2021-07-25T12:13:08Z</time>
      </trkpt>
      <trkpt lat="45.899188527837396" lon="7.665045596659184">
        <ele>2550.1199999999999</ele>
        <time>2021-07-25T12:13:22Z</time>
      </trkpt>
      <trkpt lat="45.899038910865784" lon="7.664855159819126">
        <ele>2547.79</ele>
        <time>2021-07-25T12:13:39Z</time>
      </trkpt>
      <trkpt lat="45.898909661918879" lon="7.66465499997139">
        <ele>2545.77</ele>
        <time>2021-07-25T12:13:55Z</time>
      </trkpt>
      <trkpt lat="45.898881247267127" lon="7.664619293063879">
        <ele>2545.3299999999999</ele>
        <time>2021-07-25T12:13:58Z</time>
      </trkpt>
      <trkpt lat="45.898867249488831" lon="7.664555255323649">
        <ele>2544.8800000000001</ele>
        <time>2021-07-25T12:14:02Z</time>
      </trkpt>
      <trkpt lat="45.898800864815712" lon="7.664309162646532">
        <ele>2541.98</ele>
        <time>2021-07-25T12:14:18Z</time>
      </trkpt>
      <trkpt lat="45.898745795711875" lon="7.664070865139365">
        <ele>2541.29</ele>
        <time>2021-07-25T12:14:34Z</time>
      </trkpt>
      <trkpt lat="45.898729534819722" lon="7.664027027785778">
        <ele>2540.5500000000002</ele>
        <time>2021-07-25T12:14:38Z</time>
      </trkpt>
      <trkpt lat="45.898696342483163" lon="7.66394941136241">
        <ele>2539.8000000000002</ele>
        <time>2021-07-25T12:14:44Z</time>
      </trkpt>
      <trkpt lat="45.898618726059794" lon="7.663733912631869">
        <ele>2537.7399999999998</ele>
        <time>2021-07-25T12:14:59Z</time>
      </trkpt>
      <trkpt lat="45.898529207333922" lon="7.663537189364433">
        <ele>2535.4000000000001</ele>
        <time>2021-07-25T12:15:13Z</time>
      </trkpt>
      <trkpt lat="45.898510431870818" lon="7.663374664261937">
        <ele>2533.8400000000001</ele>
        <time>2021-07-25T12:15:23Z</time>
      </trkpt>
      <trkpt lat="45.89850707910955" lon="7.663304759189487">
        <ele>2533.8299999999999</ele>
        <time>2021-07-25T12:15:34Z</time>
      </trkpt>
      <trkpt lat="45.898499870672822" lon="7.663277769461274">
        <ele>2533.75</ele>
        <time>2021-07-25T12:15:36Z</time>
      </trkpt>
      <trkpt lat="45.898440442979336" lon="7.66309630125761">
        <ele>2532.7600000000002</ele>
        <time>2021-07-25T12:15:49Z</time>
      </trkpt>
      <trkpt lat="45.898369029164314" lon="7.662875354290009">
        <ele>2531.4000000000001</ele>
        <time>2021-07-25T12:16:04Z</time>
      </trkpt>
      <trkpt lat="45.898357629776001" lon="7.662753565236926">
        <ele>2530.6599999999999</ele>
        <time>2021-07-25T12:16:12Z</time>
      </trkpt>
      <trkpt lat="45.898323263972998" lon="7.662642588838935">
        <ele>2529.5300000000002</ele>
        <time>2021-07-25T12:16:21Z</time>
      </trkpt>
      <trkpt lat="45.898244054988027" lon="7.662492133677006">
        <ele>2527.9200000000001</ele>
        <time>2021-07-25T12:16:32Z</time>
      </trkpt>
      <trkpt lat="45.898186303675175" lon="7.662375373765826">
        <ele>2525.8000000000002</ele>
        <time>2021-07-25T12:16:42Z</time>
      </trkpt>
      <trkpt lat="45.898188482969999" lon="7.662340505048633">
        <ele>2525.2199999999998</ele>
        <time>2021-07-25T12:16:45Z</time>
      </trkpt>
      <trkpt lat="45.898124361410737" lon="7.662203460931778">
        <ele>2522.2800000000002</ele>
        <time>2021-07-25T12:16:59Z</time>
      </trkpt>
      <trkpt lat="45.898036351427436" lon="7.662083767354488">
        <ele>2519.1700000000001</ele>
        <time>2021-07-25T12:17:12Z</time>
      </trkpt>
      <trkpt lat="45.897928392514586" lon="7.662041019648314">
        <ele>2515.9099999999999</ele>
        <time>2021-07-25T12:17:26Z</time>
      </trkpt>
      <trkpt lat="45.897898972034454" lon="7.662009336054325">
        <ele>2513.8899999999999</ele>
        <time>2021-07-25T12:17:31Z</time>
      </trkpt>
      <trkpt lat="45.897864606231451" lon="7.661929959431291">
        <ele>2511.1799999999998</ele>
        <time>2021-07-25T12:17:41Z</time>
      </trkpt>
      <trkpt lat="45.897839963436127" lon="7.661914704367518">
        <ele>2509.9099999999999</ele>
        <time>2021-07-25T12:17:45Z</time>
      </trkpt>
      <trkpt lat="45.897829318419099" lon="7.661870028823614">
        <ele>2507.1500000000001</ele>
        <time>2021-07-25T12:17:55Z</time>
      </trkpt>
      <trkpt lat="45.89785966090858" lon="7.66174522228539">
        <ele>2504.1500000000001</ele>
        <time>2021-07-25T12:18:06Z</time>
      </trkpt>
      <trkpt lat="45.897858906537294" lon="7.661735666915774">
        <ele>2504.1399999999999</ele>
        <time>2021-07-25T12:18:07Z</time>
      </trkpt>
      <trkpt lat="45.897866701707244" lon="7.661583619192243">
        <ele>2500.9299999999998</ele>
        <time>2021-07-25T12:18:20Z</time>
      </trkpt>
      <trkpt lat="45.897873071953654" lon="7.661453112959862">
        <ele>2497.6700000000001</ele>
        <time>2021-07-25T12:18:33Z</time>
      </trkpt>
      <trkpt lat="45.897875251248479" lon="7.661442132666707">
        <ele>2497.52</ele>
        <time>2021-07-25T12:18:34Z</time>
      </trkpt>
      <trkpt lat="45.897890757769346" lon="7.661303328350186">
        <ele>2494.25</ele>
        <time>2021-07-25T12:18:45Z</time>
      </trkpt>
      <trkpt lat="45.897892853245139" lon="7.661251276731491">
        <ele>2492.6599999999999</ele>
        <time>2021-07-25T12:18:49Z</time>
      </trkpt>
      <trkpt lat="45.897911628708243" lon="7.661082381382585">
        <ele>2490.3600000000001</ele>
        <time>2021-07-25T12:19:03Z</time>
      </trkpt>
      <trkpt lat="45.897908695042133" lon="7.660962855443358">
        <ele>2486.9699999999998</ele>
        <time>2021-07-25T12:19:16Z</time>
      </trkpt>
      <trkpt lat="45.89791682548821" lon="7.660877779126167">
        <ele>2483.8899999999999</ele>
        <time>2021-07-25T12:19:26Z</time>
      </trkpt>
      <trkpt lat="45.897887572646141" lon="7.660853639245033">
        <ele>2481.4099999999999</ele>
        <time>2021-07-25T12:19:37Z</time>
      </trkpt>
      <trkpt lat="45.897820936515927" lon="7.660897392779589">
        <ele>2478.27</ele>
        <time>2021-07-25T12:19:48Z</time>
      </trkpt>
      <trkpt lat="45.897770142182708" lon="7.660946259275079">
        <ele>2475.7399999999998</ele>
        <time>2021-07-25T12:20:01Z</time>
      </trkpt>
      <trkpt lat="45.897721359506249" lon="7.660961262881756">
        <ele>2474.5599999999999</ele>
        <time>2021-07-25T12:20:15Z</time>
      </trkpt>
      <trkpt lat="45.897710463032126" lon="7.660989677533507">
        <ele>2473.9499999999998</ele>
        <time>2021-07-25T12:20:17Z</time>
      </trkpt>
      <trkpt lat="45.897620525211096" lon="7.661060336977243">
        <ele>2470.4400000000001</ele>
        <time>2021-07-25T12:20:29Z</time>
      </trkpt>
      <trkpt lat="45.897590601816773" lon="7.661083051934838">
        <ele>2468.8600000000001</ele>
        <time>2021-07-25T12:20:33Z</time>
      </trkpt>
      <trkpt lat="45.897505776956677" lon="7.661123955622315">
        <ele>2465.8099999999999</ele>
        <time>2021-07-25T12:20:44Z</time>
      </trkpt>
      <trkpt lat="45.897482894361019" lon="7.66113200224936">
        <ele>2464.9200000000001</ele>
        <time>2021-07-25T12:20:47Z</time>
      </trkpt>
      <trkpt lat="45.897447522729635" lon="7.661139881238341">
        <ele>2463.4400000000001</ele>
        <time>2021-07-25T12:20:51Z</time>
      </trkpt>
      <trkpt lat="45.897374600172043" lon="7.661122446879745">
        <ele>2460.7199999999998</ele>
        <time>2021-07-25T12:21:02Z</time>
      </trkpt>
      <trkpt lat="45.897275442257524" lon="7.661113981157541">
        <ele>2457.5100000000002</ele>
        <time>2021-07-25T12:21:14Z</time>
      </trkpt>
      <trkpt lat="45.897225067019463" lon="7.661039130762219">
        <ele>2454.8899999999999</ele>
        <time>2021-07-25T12:21:25Z</time>
      </trkpt>
      <trkpt lat="45.897169662639499" lon="7.66095413826406">
        <ele>2452.2199999999998</ele>
        <time>2021-07-25T12:21:35Z</time>
      </trkpt>
      <trkpt lat="45.897154742851853" lon="7.660941649228334">
        <ele>2452.0799999999999</ele>
        <time>2021-07-25T12:21:37Z</time>
      </trkpt>
      <trkpt lat="45.897019291296601" lon="7.660818686708808">
        <ele>2449.2800000000002</ele>
        <time>2021-07-25T12:21:55Z</time>
      </trkpt>
      <trkpt lat="45.896897586062551" lon="7.660768730565906">
        <ele>2446.1399999999999</ele>
        <time>2021-07-25T12:22:11Z</time>
      </trkpt>
      <trkpt lat="45.896820556372404" lon="7.660740483552218">
        <ele>2442.9299999999998</ele>
        <time>2021-07-25T12:22:21Z</time>
      </trkpt>
      <trkpt lat="45.896740006282926" lon="7.660744590684772">
        <ele>2439.77</ele>
        <time>2021-07-25T12:22:32Z</time>
      </trkpt>
      <trkpt lat="45.896659037098289" lon="7.660767221823335">
        <ele>2436.6999999999998</ele>
        <time>2021-07-25T12:22:44Z</time>
      </trkpt>
      <trkpt lat="45.896576559171081" lon="7.660790020599961">
        <ele>2434.52</ele>
        <time>2021-07-25T12:22:55Z</time>
      </trkpt>
      <trkpt lat="45.896518053486943" lon="7.660703351721168">
        <ele>2432.8299999999999</ele>
        <time>2021-07-25T12:23:04Z</time>
      </trkpt>
      <trkpt lat="45.896376483142376" lon="7.660831930115819">
        <ele>2430.5700000000002</ele>
        <time>2021-07-25T12:23:21Z</time>
      </trkpt>
      <trkpt lat="45.896249078214169" lon="7.660929327830672">
        <ele>2427.6100000000001</ele>
        <time>2021-07-25T12:23:36Z</time>
      </trkpt>
      <trkpt lat="45.896174646914005" lon="7.660948690026999">
        <ele>2426.3200000000002</ele>
        <time>2021-07-25T12:23:47Z</time>
      </trkpt>
      <trkpt lat="45.896122176200151" lon="7.660967130213976">
        <ele>2425.6599999999999</ele>
        <time>2021-07-25T12:23:52Z</time>
      </trkpt>
      <trkpt lat="45.896094515919685" lon="7.660992359742522">
        <ele>2425.54</ele>
        <time>2021-07-25T12:23:55Z</time>
      </trkpt>
      <trkpt lat="45.895946407690644" lon="7.660957742482424">
        <ele>2422.6500000000001</ele>
        <time>2021-07-25T12:24:11Z</time>
      </trkpt>
      <trkpt lat="45.895929560065269" lon="7.660948522388935">
        <ele>2422.0700000000002</ele>
        <time>2021-07-25T12:24:13Z</time>
      </trkpt>
      <trkpt lat="45.895774662494659" lon="7.660905942320824">
        <ele>2419.5</ele>
        <time>2021-07-25T12:24:28Z</time>
      </trkpt>
      <trkpt lat="45.895622279495001" lon="7.660870905965567">
        <ele>2417.0900000000001</ele>
        <time>2021-07-25T12:24:43Z</time>
      </trkpt>
      <trkpt lat="45.895568383857608" lon="7.660865290090442">
        <ele>2416.8499999999999</ele>
        <time>2021-07-25T12:24:49Z</time>
      </trkpt>
      <trkpt lat="45.895524295046926" lon="7.660871408879757">
        <ele>2415.9499999999998</ele>
        <time>2021-07-25T12:24:53Z</time>
      </trkpt>
      <trkpt lat="45.895479870960116" lon="7.660917425528169">
        <ele>2415.3800000000001</ele>
        <time>2021-07-25T12:24:58Z</time>
      </trkpt>
      <trkpt lat="45.895362105220556" lon="7.661016248166561">
        <ele>2415.3400000000001</ele>
        <time>2021-07-25T12:25:12Z</time>
      </trkpt>
      <trkpt lat="45.895226402208209" lon="7.661162931472063">
        <ele>2414.9299999999998</ele>
        <time>2021-07-25T12:25:29Z</time>
      </trkpt>
      <trkpt lat="45.895130429416895" lon="7.66127860173583">
        <ele>2415.9000000000001</ele>
        <time>2021-07-25T12:25:42Z</time>
      </trkpt>
      <trkpt lat="45.895003024488688" lon="7.661400055512786">
        <ele>2418.0999999999999</ele>
        <time>2021-07-25T12:25:59Z</time>
      </trkpt>
      <trkpt lat="45.894888862967491" lon="7.661392511799932">
        <ele>2419.4400000000001</ele>
        <time>2021-07-25T12:26:13Z</time>
      </trkpt>
      <trkpt lat="45.894861957058311" lon="7.661408102139831">
        <ele>2419.4000000000001</ele>
        <time>2021-07-25T12:26:23Z</time>
      </trkpt>
      <trkpt lat="45.894795404747128" lon="7.661430398002267">
        <ele>2419.6399999999999</ele>
        <time>2021-07-25T12:26:34Z</time>
      </trkpt>
      <trkpt lat="45.894795823842287" lon="7.661429308354855">
        <ele>2418.0900000000001</ele>
        <time>2021-07-25T12:26:50Z</time>
      </trkpt>
      <trkpt lat="45.89480672031641" lon="7.661440456286073">
        <ele>2418.9499999999998</ele>
        <time>2021-07-25T12:27:13Z</time>
      </trkpt>
      <trkpt lat="45.894808229058981" lon="7.661439115181565">
        <ele>2418.6199999999999</ele>
        <time>2021-07-25T12:27:30Z</time>
      </trkpt>
      <trkpt lat="45.894806804135442" lon="7.661429475992918">
        <ele>2418.9200000000001</ele>
        <time>2021-07-25T12:27:50Z</time>
      </trkpt>
      <trkpt lat="45.894803535193205" lon="7.661407683044672">
        <ele>2419.6700000000001</ele>
        <time>2021-07-25T12:28:18Z</time>
      </trkpt>
      <trkpt lat="45.894814766943455" lon="7.661443222314119">
        <ele>2420.1100000000001</ele>
        <time>2021-07-25T12:28:58Z</time>
      </trkpt>
      <trkpt lat="45.894813174381852" lon="7.661429727450013">
        <ele>2419.6399999999999</ele>
        <time>2021-07-25T12:29:27Z</time>
      </trkpt>
      <trkpt lat="45.894817365333438" lon="7.661432325839996">
        <ele>2419.4299999999998</ele>
        <time>2021-07-25T12:29:53Z</time>
      </trkpt>
      <trkpt lat="45.894820215180516" lon="7.661452190950513">
        <ele>2418.8400000000001</ele>
        <time>2021-07-25T12:30:36Z</time>
      </trkpt>
      <trkpt lat="45.894824909046292" lon="7.661450263112783">
        <ele>2418.8899999999999</ele>
        <time>2021-07-25T12:31:16Z</time>
      </trkpt>
      <trkpt lat="45.894829016178846" lon="7.661452610045672">
        <ele>2419.04</ele>
        <time>2021-07-25T12:31:49Z</time>
      </trkpt>
      <trkpt lat="45.894817532971501" lon="7.661440372467041">
        <ele>2419.0599999999999</ele>
        <time>2021-07-25T12:32:19Z</time>
      </trkpt>
      <trkpt lat="45.894813677296042" lon="7.661416064947844">
        <ele>2419.0500000000002</ele>
        <time>2021-07-25T12:32:43Z</time>
      </trkpt>
      <trkpt lat="45.894799763336778" lon="7.661408269777894">
        <ele>2419.77</ele>
        <time>2021-07-25T12:33:06Z</time>
      </trkpt>
      <trkpt lat="45.89481744915247" lon="7.661430733278394">
        <ele>2420.73</ele>
        <time>2021-07-25T12:33:24Z</time>
      </trkpt>
      <trkpt lat="45.894831698387861" lon="7.661415562033653">
        <ele>2420.9099999999999</ele>
        <time>2021-07-25T12:33:38Z</time>
      </trkpt>
      <trkpt lat="45.894928006455302" lon="7.661377089098096">
        <ele>2420.71</ele>
        <time>2021-07-25T12:33:51Z</time>
      </trkpt>
      <trkpt lat="45.894944351166487" lon="7.661377172917128">
        <ele>2420.5999999999999</ele>
        <time>2021-07-25T12:33:53Z</time>
      </trkpt>
      <trkpt lat="45.894962791353464" lon="7.661376837641001">
        <ele>2420.1399999999999</ele>
        <time>2021-07-25T12:33:55Z</time>
      </trkpt>
      <trkpt lat="45.895020207390189" lon="7.661379938945174">
        <ele>2419.8299999999999</ele>
        <time>2021-07-25T12:34:02Z</time>
      </trkpt>
      <trkpt lat="45.895098159089684" lon="7.661313302814961">
        <ele>2417.8200000000002</ele>
        <time>2021-07-25T12:34:12Z</time>
      </trkpt>
      <trkpt lat="45.895212823525071" lon="7.661137953400612">
        <ele>2415.8299999999999</ele>
        <time>2021-07-25T12:34:28Z</time>
      </trkpt>
      <trkpt lat="45.895253727212548" lon="7.661048686131835">
        <ele>2415.2800000000002</ele>
        <time>2021-07-25T12:34:36Z</time>
      </trkpt>
      <trkpt lat="45.895215673372149" lon="7.660850286483765">
        <ele>2413.5700000000002</ele>
        <time>2021-07-25T12:34:51Z</time>
      </trkpt>
      <trkpt lat="45.895197568461299" lon="7.660664627328515">
        <ele>2411.0799999999999</ele>
        <time>2021-07-25T12:35:04Z</time>
      </trkpt>
      <trkpt lat="45.895237717777491" lon="7.660542083904147">
        <ele>2410.5500000000002</ele>
        <time>2021-07-25T12:35:15Z</time>
      </trkpt>
      <trkpt lat="45.895239897072315" lon="7.660540910437703">
        <ele>2410.3800000000001</ele>
        <time>2021-07-25T12:35:30Z</time>
      </trkpt>
      <trkpt lat="45.895243752747774" lon="7.660530181601644">
        <ele>2410.1399999999999</ele>
        <time>2021-07-25T12:35:31Z</time>
      </trkpt>
      <trkpt lat="45.895285243168473" lon="7.660439321771264">
        <ele>2409.71</ele>
        <time>2021-07-25T12:35:38Z</time>
      </trkpt>
      <trkpt lat="45.895312903448939" lon="7.660386012867093">
        <ele>2408.4200000000001</ele>
        <time>2021-07-25T12:35:42Z</time>
      </trkpt>
      <trkpt lat="45.895356070250273" lon="7.6603027805686">
        <ele>2407.4299999999998</ele>
        <time>2021-07-25T12:35:49Z</time>
      </trkpt>
      <trkpt lat="45.895441314205527" lon="7.660108990967274">
        <ele>2407.0900000000001</ele>
        <time>2021-07-25T12:36:04Z</time>
      </trkpt>
      <trkpt lat="45.895520774647593" lon="7.65996566042304">
        <ele>2407.1900000000001</ele>
        <time>2021-07-25T12:36:18Z</time>
      </trkpt>
      <trkpt lat="45.8955670427531" lon="7.659881841391325">
        <ele>2407.5100000000002</ele>
        <time>2021-07-25T12:36:35Z</time>
      </trkpt>
      <trkpt lat="45.89565790258348" lon="7.659658715128899">
        <ele>2406.0500000000002</ele>
        <time>2021-07-25T12:36:52Z</time>
      </trkpt>
      <trkpt lat="45.895709618926048" lon="7.659541871398687">
        <ele>2405.8499999999999</ele>
        <time>2021-07-25T12:37:06Z</time>
      </trkpt>
      <trkpt lat="45.895731998607516" lon="7.659460483118892">
        <ele>2405.3499999999999</ele>
        <time>2021-07-25T12:37:16Z</time>
      </trkpt>
      <trkpt lat="45.895740129053593" lon="7.659353446215391">
        <ele>2405.54</ele>
        <time>2021-07-25T12:37:24Z</time>
      </trkpt>
      <trkpt lat="45.895723951980472" lon="7.659151777625084">
        <ele>2405.1199999999999</ele>
        <time>2021-07-25T12:37:39Z</time>
      </trkpt>
      <trkpt lat="45.895696710795164" lon="7.6589126419276">
        <ele>2403.3400000000001</ele>
        <time>2021-07-25T12:37:56Z</time>
      </trkpt>
      <trkpt lat="45.895675756037235" lon="7.658660179004073">
        <ele>2403.02</ele>
        <time>2021-07-25T12:38:12Z</time>
      </trkpt>
      <trkpt lat="45.895645245909691" lon="7.658401262015104">
        <ele>2401.4099999999999</ele>
        <time>2021-07-25T12:38:28Z</time>
      </trkpt>
      <trkpt lat="45.895612891763449" lon="7.658156175166369">
        <ele>2400.0900000000001</ele>
        <time>2021-07-25T12:38:44Z</time>
      </trkpt>
      <trkpt lat="45.895589170977473" lon="7.657887702807784">
        <ele>2397.5500000000002</ele>
        <time>2021-07-25T12:39:00Z</time>
      </trkpt>
      <trkpt lat="45.895578693598509" lon="7.657712688669562">
        <ele>2395.8699999999999</ele>
        <time>2021-07-25T12:39:15Z</time>
      </trkpt>
      <trkpt lat="45.895572239533067" lon="7.65764907002449">
        <ele>2395.21</ele>
        <time>2021-07-25T12:39:39Z</time>
      </trkpt>
      <trkpt lat="45.895562097430229" lon="7.657584780827165">
        <ele>2393.9000000000001</ele>
        <time>2021-07-25T12:39:52Z</time>
      </trkpt>
      <trkpt lat="45.895544495433569" lon="7.657319577410817">
        <ele>2392.9699999999998</ele>
        <time>2021-07-25T12:40:11Z</time>
      </trkpt>
      <trkpt lat="45.89550107717514" lon="7.657177336513996">
        <ele>2390.9699999999998</ele>
        <time>2021-07-25T12:40:24Z</time>
      </trkpt>
      <trkpt lat="45.895386580377817" lon="7.657087817788124">
        <ele>2387.79</ele>
        <time>2021-07-25T12:40:38Z</time>
      </trkpt>
      <trkpt lat="45.895286751911044" lon="7.656875504180789">
        <ele>2384.5900000000001</ele>
        <time>2021-07-25T12:40:55Z</time>
      </trkpt>
      <trkpt lat="45.895220618695021" lon="7.656586915254593">
        <ele>2382.5100000000002</ele>
        <time>2021-07-25T12:41:13Z</time>
      </trkpt>
      <trkpt lat="45.895153228193521" lon="7.656314503401518">
        <ele>2380.3400000000001</ele>
        <time>2021-07-25T12:41:31Z</time>
      </trkpt>
      <trkpt lat="45.895059853792191" lon="7.656077546998859">
        <ele>2378.27</ele>
        <time>2021-07-25T12:41:48Z</time>
      </trkpt>
      <trkpt lat="45.894951475784183" lon="7.655938910320401">
        <ele>2375.21</ele>
        <time>2021-07-25T12:42:02Z</time>
      </trkpt>
      <trkpt lat="45.89486338198185" lon="7.655858779326081">
        <ele>2373.2800000000002</ele>
        <time>2021-07-25T12:42:15Z</time>
      </trkpt>
      <trkpt lat="45.894803954288363" lon="7.655797675251961">
        <ele>2370.0799999999999</ele>
        <time>2021-07-25T12:42:23Z</time>
      </trkpt>
      <trkpt lat="45.894729690626264" lon="7.655710000544787">
        <ele>2367.02</ele>
        <time>2021-07-25T12:42:34Z</time>
      </trkpt>
      <trkpt lat="45.89468945749104" lon="7.655651494860649">
        <ele>2365.5599999999999</ele>
        <time>2021-07-25T12:42:44Z</time>
      </trkpt>
      <trkpt lat="45.894576469436288" lon="7.65546977519989">
        <ele>2362.79</ele>
        <time>2021-07-25T12:43:00Z</time>
      </trkpt>
      <trkpt lat="45.894463984295726" lon="7.655316470190883">
        <ele>2359.6100000000001</ele>
        <time>2021-07-25T12:43:15Z</time>
      </trkpt>
      <trkpt lat="45.894391983747482" lon="7.655184287577868">
        <ele>2356.4099999999999</ele>
        <time>2021-07-25T12:43:27Z</time>
      </trkpt>
      <trkpt lat="45.894309170544147" lon="7.654973650351167">
        <ele>2353.25</ele>
        <time>2021-07-25T12:43:43Z</time>
      </trkpt>
      <trkpt lat="45.89423306286335" lon="7.654801988974214">
        <ele>2350.3699999999999</ele>
        <time>2021-07-25T12:43:57Z</time>
      </trkpt>
      <trkpt lat="45.894130887463689" lon="7.654577102512121">
        <ele>2347.75</ele>
        <time>2021-07-25T12:44:15Z</time>
      </trkpt>
      <trkpt lat="45.894059808924794" lon="7.654417678713799">
        <ele>2344.6399999999999</ele>
        <time>2021-07-25T12:44:28Z</time>
      </trkpt>
      <trkpt lat="45.893958304077387" lon="7.654196983203292">
        <ele>2341.5999999999999</ele>
        <time>2021-07-25T12:44:45Z</time>
      </trkpt>
      <trkpt lat="45.893848165869713" lon="7.653960362076759">
        <ele>2339.0500000000002</ele>
        <time>2021-07-25T12:45:03Z</time>
      </trkpt>
      <trkpt lat="45.893768034875393" lon="7.653766321018338">
        <ele>2335.9299999999998</ele>
        <time>2021-07-25T12:45:18Z</time>
      </trkpt>
      <trkpt lat="45.893692765384912" lon="7.653586277738214">
        <ele>2332.7399999999998</ele>
        <time>2021-07-25T12:45:32Z</time>
      </trkpt>
      <trkpt lat="45.893685473129153" lon="7.653560293838382">
        <ele>2332.54</ele>
        <time>2021-07-25T12:45:34Z</time>
      </trkpt>
      <trkpt lat="45.893693268299103" lon="7.653369102627039">
        <ele>2329.29</ele>
        <time>2021-07-25T12:45:46Z</time>
      </trkpt>
      <trkpt lat="45.893692513927817" lon="7.653327444568276">
        <ele>2328.3899999999999</ele>
        <time>2021-07-25T12:45:49Z</time>
      </trkpt>
      <trkpt lat="45.893722102046013" lon="7.653169948607683">
        <ele>2324.8899999999999</ele>
        <time>2021-07-25T12:46:01Z</time>
      </trkpt>
      <trkpt lat="45.893722269684076" lon="7.653015134856105">
        <ele>2321.5</ele>
        <time>2021-07-25T12:46:12Z</time>
      </trkpt>
      <trkpt lat="45.893736938014627" lon="7.652956712990999">
        <ele>2319.8000000000002</ele>
        <time>2021-07-25T12:46:16Z</time>
      </trkpt>
      <trkpt lat="45.893743727356195" lon="7.65281111933291">
        <ele>2316.4499999999998</ele>
        <time>2021-07-25T12:46:26Z</time>
      </trkpt>
      <trkpt lat="45.893750349059701" lon="7.652677679434419">
        <ele>2313.02</ele>
        <time>2021-07-25T12:46:35Z</time>
      </trkpt>
      <trkpt lat="45.893755797296762" lon="7.652636356651783">
        <ele>2311.7600000000002</ele>
        <time>2021-07-25T12:46:38Z</time>
      </trkpt>
      <trkpt lat="45.893744062632322" lon="7.652448015287519">
        <ele>2308.6300000000001</ele>
        <time>2021-07-25T12:46:51Z</time>
      </trkpt>
      <trkpt lat="45.893726041540504" lon="7.652204940095544">
        <ele>2305.52</ele>
        <time>2021-07-25T12:47:07Z</time>
      </trkpt>
      <trkpt lat="45.893762335181236" lon="7.651959098875523">
        <ele>2303.1500000000001</ele>
        <time>2021-07-25T12:47:22Z</time>
      </trkpt>
      <trkpt lat="45.893750097602606" lon="7.651685597375035">
        <ele>2300.1799999999998</ele>
        <time>2021-07-25T12:47:38Z</time>
      </trkpt>
      <trkpt lat="45.893741380423307" lon="7.651467332616448">
        <ele>2297.1100000000001</ele>
        <time>2021-07-25T12:47:50Z</time>
      </trkpt>
      <trkpt lat="45.893742889165878" lon="7.651206655427814">
        <ele>2297.8299999999999</ele>
        <time>2021-07-25T12:48:05Z</time>
      </trkpt>
      <trkpt lat="45.893763089552522" lon="7.650957209989429">
        <ele>2298.52</ele>
        <time>2021-07-25T12:48:20Z</time>
      </trkpt>
      <trkpt lat="45.893769208341837" lon="7.650756295770407">
        <ele>2299.7399999999998</ele>
        <time>2021-07-25T12:48:34Z</time>
      </trkpt>
      <trkpt lat="45.893691759556532" lon="7.650509029626846">
        <ele>2299.5900000000001</ele>
        <time>2021-07-25T12:48:50Z</time>
      </trkpt>
      <trkpt lat="45.893692346289754" lon="7.650252124294639">
        <ele>2298.27</ele>
        <time>2021-07-25T12:49:06Z</time>
      </trkpt>
      <trkpt lat="45.893675582483411" lon="7.649985076859593">
        <ele>2298.6300000000001</ele>
        <time>2021-07-25T12:49:23Z</time>
      </trkpt>
      <trkpt lat="45.893651191145182" lon="7.649765303358436">
        <ele>2299.46</ele>
        <time>2021-07-25T12:49:37Z</time>
      </trkpt>
      <trkpt lat="45.893672397360206" lon="7.649508733302355">
        <ele>2300.6799999999998</ele>
        <time>2021-07-25T12:49:54Z</time>
      </trkpt>
      <trkpt lat="45.89370533823967" lon="7.649320727214217">
        <ele>2301.8499999999999</ele>
        <time>2021-07-25T12:50:08Z</time>
      </trkpt>
      <trkpt lat="45.893749259412289" lon="7.649160213768482">
        <ele>2303.5900000000001</ele>
        <time>2021-07-25T12:50:23Z</time>
      </trkpt>
      <trkpt lat="45.893813213333488" lon="7.649067090824246">
        <ele>2304.0799999999999</ele>
        <time>2021-07-25T12:50:34Z</time>
      </trkpt>
      <trkpt lat="45.893831988796592" lon="7.649054517969489">
        <ele>2303.79</ele>
        <time>2021-07-25T12:50:46Z</time>
      </trkpt>
      <trkpt lat="45.893849926069379" lon="7.649042280390859">
        <ele>2303.3299999999999</ele>
        <time>2021-07-25T12:51:01Z</time>
      </trkpt>
      <trkpt lat="45.893868198618293" lon="7.64903306029737">
        <ele>2303.5300000000002</ele>
        <time>2021-07-25T12:51:03Z</time>
      </trkpt>
      <trkpt lat="45.89400976896286" lon="7.648957706987858">
        <ele>2303.1700000000001</ele>
        <time>2021-07-25T12:51:17Z</time>
      </trkpt>
      <trkpt lat="45.894070789217949" lon="7.648888556286693">
        <ele>2304.8800000000001</ele>
        <time>2021-07-25T12:51:27Z</time>
      </trkpt>
      <trkpt lat="45.894071878865361" lon="7.648842036724091">
        <ele>2304.71</ele>
        <time>2021-07-25T12:51:37Z</time>
      </trkpt>
      <trkpt lat="45.894073555245996" lon="7.648851592093706">
        <ele>2304.6900000000001</ele>
        <time>2021-07-25T12:51:46Z</time>
      </trkpt>
      <trkpt lat="45.894070537760854" lon="7.648860309273005">
        <ele>2303.3299999999999</ele>
        <time>2021-07-25T12:51:57Z</time>
      </trkpt>
      <trkpt lat="45.894074309617281" lon="7.648862404748797">
        <ele>2304.1900000000001</ele>
        <time>2021-07-25T12:52:03Z</time>
      </trkpt>
    </trkseg>
  </trk>

</gpx>